<?xml version="1.0" encoding="UTF-8" standalone="no" ?>
<gpx xmlns="http://www.topografix.com/GPX/1/1" xmlns:xsi="http://www.w3.org/2001/XMLSchema-instance" xsi:schemaLocation="http://www.topografix.com/GPX/1/1 http://www.topografix.com/GPX/1/1/gpx.xsd" version="1.1" creator="VisuGPX - https://www.visugpx.com">
  <metadata>
    <name>Sun Trip 2019</name>
    <desc><![CDATA[Le parcours du Sun Trip 2019]]></desc>
  </metadata>
  <trk>
    <name><![CDATA[J5]]></name>
    <trkseg>
      <trkpt lat="45.9883" lon="4.04515">
        <ele>319</ele>
        <time>2019-04-17T10:06:49Z</time>
      </trkpt>
      <trkpt lat="45.98833" lon="4.04488">
        <ele>321</ele>
        <time>2019-04-17T10:07:49Z</time>
      </trkpt>
      <trkpt lat="45.98838" lon="4.04467">
        <ele>322</ele>
        <time>2019-04-17T10:08:49Z</time>
      </trkpt>
      <trkpt lat="45.98835" lon="4.0441">
        <ele>326</ele>
        <time>2019-04-17T10:09:49Z</time>
      </trkpt>
      <trkpt lat="45.9884" lon="4.04383">
        <ele>328</ele>
        <time>2019-04-17T10:10:49Z</time>
      </trkpt>
      <trkpt lat="45.98825" lon="4.04378">
        <ele>329</ele>
        <time>2019-04-17T10:11:49Z</time>
      </trkpt>
      <trkpt lat="45.98803" lon="4.04379">
        <ele>329</ele>
        <time>2019-04-17T10:12:49Z</time>
      </trkpt>
      <trkpt lat="45.98789" lon="4.04385">
        <ele>328</ele>
        <time>2019-04-17T10:13:49Z</time>
      </trkpt>
      <trkpt lat="45.98773" lon="4.04397">
        <ele>327</ele>
        <time>2019-04-17T10:14:49Z</time>
      </trkpt>
      <trkpt lat="45.98705" lon="4.0455">
        <ele>317</ele>
        <time>2019-04-17T10:15:49Z</time>
      </trkpt>
      <trkpt lat="45.98649" lon="4.04666">
        <ele>306</ele>
        <time>2019-04-17T10:16:49Z</time>
      </trkpt>
      <trkpt lat="45.98634" lon="4.047">
        <ele>307</ele>
        <time>2019-04-17T10:17:49Z</time>
      </trkpt>
      <trkpt lat="45.98624" lon="4.04743">
        <ele>308</ele>
        <time>2019-04-17T10:18:49Z</time>
      </trkpt>
      <trkpt lat="45.9862" lon="4.04773">
        <ele>308</ele>
        <time>2019-04-17T10:19:49Z</time>
      </trkpt>
      <trkpt lat="45.98621" lon="4.04812">
        <ele>308</ele>
        <time>2019-04-17T10:20:49Z</time>
      </trkpt>
      <trkpt lat="45.98628" lon="4.04853">
        <ele>308</ele>
        <time>2019-04-17T10:21:49Z</time>
      </trkpt>
      <trkpt lat="45.98639" lon="4.04899">
        <ele>311</ele>
        <time>2019-04-17T10:22:49Z</time>
      </trkpt>
      <trkpt lat="45.98659" lon="4.04954">
        <ele>322</ele>
        <time>2019-04-17T10:23:49Z</time>
      </trkpt>
      <trkpt lat="45.98667" lon="4.04968">
        <ele>326</ele>
        <time>2019-04-17T10:24:49Z</time>
      </trkpt>
      <trkpt lat="45.98684" lon="4.04981">
        <ele>328</ele>
        <time>2019-04-17T10:25:49Z</time>
      </trkpt>
      <trkpt lat="45.98718" lon="4.0499">
        <ele>327</ele>
        <time>2019-04-17T10:26:49Z</time>
      </trkpt>
      <trkpt lat="45.98747" lon="4.05003">
        <ele>328</ele>
        <time>2019-04-17T10:27:49Z</time>
      </trkpt>
      <trkpt lat="45.98765" lon="4.05023">
        <ele>333</ele>
        <time>2019-04-17T10:28:49Z</time>
      </trkpt>
      <trkpt lat="45.98804" lon="4.05082">
        <ele>348</ele>
        <time>2019-04-17T10:29:49Z</time>
      </trkpt>
      <trkpt lat="45.98817" lon="4.05094">
        <ele>349</ele>
        <time>2019-04-17T10:30:49Z</time>
      </trkpt>
      <trkpt lat="45.98836" lon="4.05098">
        <ele>347</ele>
        <time>2019-04-17T10:31:49Z</time>
      </trkpt>
      <trkpt lat="45.98859" lon="4.05101">
        <ele>347</ele>
        <time>2019-04-17T10:32:49Z</time>
      </trkpt>
      <trkpt lat="45.98901" lon="4.05101">
        <ele>344</ele>
        <time>2019-04-17T10:33:49Z</time>
      </trkpt>
      <trkpt lat="45.9892" lon="4.05111">
        <ele>345</ele>
        <time>2019-04-17T10:34:49Z</time>
      </trkpt>
      <trkpt lat="45.98935" lon="4.05131">
        <ele>347</ele>
        <time>2019-04-17T10:35:49Z</time>
      </trkpt>
      <trkpt lat="45.98948" lon="4.05156">
        <ele>350</ele>
        <time>2019-04-17T10:36:49Z</time>
      </trkpt>
      <trkpt lat="45.98953" lon="4.05173">
        <ele>352</ele>
        <time>2019-04-17T10:37:49Z</time>
      </trkpt>
      <trkpt lat="45.98956" lon="4.05193">
        <ele>353</ele>
        <time>2019-04-17T10:38:49Z</time>
      </trkpt>
      <trkpt lat="45.98956" lon="4.05224">
        <ele>356</ele>
        <time>2019-04-17T10:39:49Z</time>
      </trkpt>
      <trkpt lat="45.98951" lon="4.05248">
        <ele>359</ele>
        <time>2019-04-17T10:40:49Z</time>
      </trkpt>
      <trkpt lat="45.98912" lon="4.0534">
        <ele>366</ele>
        <time>2019-04-17T10:41:49Z</time>
      </trkpt>
      <trkpt lat="45.989" lon="4.05374">
        <ele>368</ele>
        <time>2019-04-17T10:42:49Z</time>
      </trkpt>
      <trkpt lat="45.98894" lon="4.05407">
        <ele>370</ele>
        <time>2019-04-17T10:43:49Z</time>
      </trkpt>
      <trkpt lat="45.98893" lon="4.0543">
        <ele>371</ele>
        <time>2019-04-17T10:44:49Z</time>
      </trkpt>
      <trkpt lat="45.98893" lon="4.05456">
        <ele>372</ele>
        <time>2019-04-17T10:45:49Z</time>
      </trkpt>
      <trkpt lat="45.98901" lon="4.05491">
        <ele>374</ele>
        <time>2019-04-17T10:46:49Z</time>
      </trkpt>
      <trkpt lat="45.98902" lon="4.05512">
        <ele>375</ele>
        <time>2019-04-17T10:47:49Z</time>
      </trkpt>
      <trkpt lat="45.989" lon="4.05537">
        <ele>376</ele>
        <time>2019-04-17T10:48:49Z</time>
      </trkpt>
      <trkpt lat="45.98896" lon="4.05545">
        <ele>377</ele>
        <time>2019-04-17T10:49:49Z</time>
      </trkpt>
      <trkpt lat="45.98894" lon="4.05553">
        <ele>377</ele>
        <time>2019-04-17T10:50:49Z</time>
      </trkpt>
      <trkpt lat="45.98894" lon="4.05562">
        <ele>378</ele>
        <time>2019-04-17T10:51:49Z</time>
      </trkpt>
      <trkpt lat="45.98853" lon="4.05604">
        <ele>378</ele>
        <time>2019-04-17T10:52:49Z</time>
      </trkpt>
      <trkpt lat="45.9883" lon="4.05618">
        <ele>378</ele>
        <time>2019-04-17T10:53:49Z</time>
      </trkpt>
      <trkpt lat="45.98796" lon="4.05631">
        <ele>378</ele>
        <time>2019-04-17T10:54:49Z</time>
      </trkpt>
      <trkpt lat="45.98709" lon="4.05679">
        <ele>378</ele>
        <time>2019-04-17T10:55:49Z</time>
      </trkpt>
      <trkpt lat="45.98663" lon="4.05697">
        <ele>379</ele>
        <time>2019-04-17T10:56:49Z</time>
      </trkpt>
      <trkpt lat="45.98627" lon="4.05706">
        <ele>381</ele>
        <time>2019-04-17T10:57:49Z</time>
      </trkpt>
      <trkpt lat="45.98559" lon="4.05714">
        <ele>384</ele>
        <time>2019-04-17T10:58:49Z</time>
      </trkpt>
      <trkpt lat="45.98379" lon="4.05728">
        <ele>392</ele>
        <time>2019-04-17T10:59:49Z</time>
      </trkpt>
      <trkpt lat="45.98352" lon="4.05728">
        <ele>393</ele>
        <time>2019-04-17T11:00:49Z</time>
      </trkpt>
      <trkpt lat="45.9833" lon="4.05721">
        <ele>394</ele>
        <time>2019-04-17T11:01:49Z</time>
      </trkpt>
      <trkpt lat="45.98292" lon="4.05697">
        <ele>396</ele>
        <time>2019-04-17T11:02:49Z</time>
      </trkpt>
      <trkpt lat="45.98267" lon="4.05669">
        <ele>398</ele>
        <time>2019-04-17T11:03:49Z</time>
      </trkpt>
      <trkpt lat="45.98163" lon="4.05531">
        <ele>399</ele>
        <time>2019-04-17T11:04:49Z</time>
      </trkpt>
      <trkpt lat="45.98144" lon="4.05513">
        <ele>398</ele>
        <time>2019-04-17T11:05:49Z</time>
      </trkpt>
      <trkpt lat="45.98115" lon="4.05495">
        <ele>397</ele>
        <time>2019-04-17T11:06:49Z</time>
      </trkpt>
      <trkpt lat="45.98039" lon="4.05458">
        <ele>393</ele>
        <time>2019-04-17T11:07:49Z</time>
      </trkpt>
      <trkpt lat="45.98025" lon="4.05449">
        <ele>393</ele>
        <time>2019-04-17T11:08:49Z</time>
      </trkpt>
      <trkpt lat="45.97851" lon="4.05297">
        <ele>391</ele>
        <time>2019-04-17T11:09:49Z</time>
      </trkpt>
      <trkpt lat="45.97807" lon="4.0525">
        <ele>393</ele>
        <time>2019-04-17T11:10:49Z</time>
      </trkpt>
      <trkpt lat="45.97772" lon="4.05201">
        <ele>393</ele>
        <time>2019-04-17T11:11:49Z</time>
      </trkpt>
      <trkpt lat="45.97725" lon="4.05124">
        <ele>394</ele>
        <time>2019-04-17T11:12:49Z</time>
      </trkpt>
      <trkpt lat="45.97713" lon="4.05098">
        <ele>394</ele>
        <time>2019-04-17T11:13:49Z</time>
      </trkpt>
      <trkpt lat="45.97703" lon="4.05056">
        <ele>394</ele>
        <time>2019-04-17T11:14:49Z</time>
      </trkpt>
      <trkpt lat="45.97699" lon="4.05011">
        <ele>394</ele>
        <time>2019-04-17T11:15:49Z</time>
      </trkpt>
      <trkpt lat="45.97701" lon="4.04979">
        <ele>394</ele>
        <time>2019-04-17T11:16:49Z</time>
      </trkpt>
      <trkpt lat="45.9772" lon="4.04848">
        <ele>392</ele>
        <time>2019-04-17T11:17:49Z</time>
      </trkpt>
      <trkpt lat="45.97723" lon="4.0482">
        <ele>391</ele>
        <time>2019-04-17T11:18:49Z</time>
      </trkpt>
      <trkpt lat="45.97724" lon="4.04784">
        <ele>391</ele>
        <time>2019-04-17T11:19:49Z</time>
      </trkpt>
      <trkpt lat="45.9771" lon="4.04553">
        <ele>391</ele>
        <time>2019-04-17T11:20:49Z</time>
      </trkpt>
      <trkpt lat="45.97705" lon="4.04505">
        <ele>391</ele>
        <time>2019-04-17T11:21:49Z</time>
      </trkpt>
      <trkpt lat="45.97697" lon="4.0447">
        <ele>390</ele>
        <time>2019-04-17T11:22:49Z</time>
      </trkpt>
      <trkpt lat="45.97648" lon="4.04293">
        <ele>384</ele>
        <time>2019-04-17T11:23:49Z</time>
      </trkpt>
      <trkpt lat="45.97634" lon="4.04263">
        <ele>383</ele>
        <time>2019-04-17T11:24:49Z</time>
      </trkpt>
      <trkpt lat="45.97623" lon="4.04244">
        <ele>382</ele>
        <time>2019-04-17T11:25:49Z</time>
      </trkpt>
      <trkpt lat="45.97603" lon="4.04218">
        <ele>382</ele>
        <time>2019-04-17T11:26:49Z</time>
      </trkpt>
      <trkpt lat="45.97581" lon="4.04196">
        <ele>382</ele>
        <time>2019-04-17T11:27:49Z</time>
      </trkpt>
      <trkpt lat="45.9751" lon="4.04139">
        <ele>375</ele>
        <time>2019-04-17T11:28:49Z</time>
      </trkpt>
      <trkpt lat="45.97457" lon="4.04114">
        <ele>369</ele>
        <time>2019-04-17T11:29:49Z</time>
      </trkpt>
      <trkpt lat="45.97418" lon="4.04109">
        <ele>365</ele>
        <time>2019-04-17T11:30:49Z</time>
      </trkpt>
      <trkpt lat="45.97266" lon="4.04124">
        <ele>356</ele>
        <time>2019-04-17T11:31:49Z</time>
      </trkpt>
      <trkpt lat="45.97245" lon="4.0413">
        <ele>355</ele>
        <time>2019-04-17T11:32:49Z</time>
      </trkpt>
      <trkpt lat="45.97224" lon="4.04142">
        <ele>352</ele>
        <time>2019-04-17T11:33:49Z</time>
      </trkpt>
      <trkpt lat="45.97206" lon="4.04158">
        <ele>350</ele>
        <time>2019-04-17T11:34:49Z</time>
      </trkpt>
      <trkpt lat="45.97191" lon="4.04187">
        <ele>348</ele>
        <time>2019-04-17T11:35:49Z</time>
      </trkpt>
      <trkpt lat="45.97178" lon="4.0422">
        <ele>346</ele>
        <time>2019-04-17T11:36:49Z</time>
      </trkpt>
      <trkpt lat="45.97113" lon="4.04442">
        <ele>338</ele>
        <time>2019-04-17T11:37:49Z</time>
      </trkpt>
      <trkpt lat="45.97102" lon="4.0447">
        <ele>335</ele>
        <time>2019-04-17T11:38:49Z</time>
      </trkpt>
      <trkpt lat="45.97084" lon="4.04497">
        <ele>330</ele>
        <time>2019-04-17T11:39:49Z</time>
      </trkpt>
      <trkpt lat="45.97072" lon="4.04507">
        <ele>331</ele>
        <time>2019-04-17T11:40:49Z</time>
      </trkpt>
      <trkpt lat="45.97061" lon="4.04512">
        <ele>332</ele>
        <time>2019-04-17T11:41:49Z</time>
      </trkpt>
      <trkpt lat="45.97045" lon="4.04512">
        <ele>333</ele>
        <time>2019-04-17T11:42:49Z</time>
      </trkpt>
      <trkpt lat="45.97031" lon="4.04506">
        <ele>334</ele>
        <time>2019-04-17T11:43:49Z</time>
      </trkpt>
      <trkpt lat="45.9702" lon="4.04495">
        <ele>335</ele>
        <time>2019-04-17T11:44:49Z</time>
      </trkpt>
      <trkpt lat="45.97007" lon="4.04478">
        <ele>336</ele>
        <time>2019-04-17T11:45:49Z</time>
      </trkpt>
      <trkpt lat="45.96997" lon="4.04455">
        <ele>337</ele>
        <time>2019-04-17T11:46:49Z</time>
      </trkpt>
      <trkpt lat="45.96985" lon="4.04416">
        <ele>340</ele>
        <time>2019-04-17T11:47:49Z</time>
      </trkpt>
      <trkpt lat="45.96966" lon="4.04341">
        <ele>345</ele>
        <time>2019-04-17T11:48:49Z</time>
      </trkpt>
      <trkpt lat="45.96951" lon="4.04309">
        <ele>346</ele>
        <time>2019-04-17T11:49:49Z</time>
      </trkpt>
      <trkpt lat="45.96937" lon="4.04293">
        <ele>348</ele>
        <time>2019-04-17T11:50:49Z</time>
      </trkpt>
      <trkpt lat="45.96919" lon="4.0428">
        <ele>349</ele>
        <time>2019-04-17T11:51:49Z</time>
      </trkpt>
      <trkpt lat="45.96902" lon="4.04273">
        <ele>351</ele>
        <time>2019-04-17T11:52:49Z</time>
      </trkpt>
      <trkpt lat="45.96883" lon="4.0427">
        <ele>352</ele>
        <time>2019-04-17T11:53:49Z</time>
      </trkpt>
      <trkpt lat="45.96856" lon="4.04276">
        <ele>355</ele>
        <time>2019-04-17T11:54:49Z</time>
      </trkpt>
      <trkpt lat="45.96749" lon="4.04317">
        <ele>367</ele>
        <time>2019-04-17T11:55:49Z</time>
      </trkpt>
      <trkpt lat="45.96709" lon="4.04321">
        <ele>372</ele>
        <time>2019-04-17T11:56:49Z</time>
      </trkpt>
      <trkpt lat="45.9668" lon="4.04317">
        <ele>375</ele>
        <time>2019-04-17T11:57:49Z</time>
      </trkpt>
      <trkpt lat="45.96582" lon="4.04274">
        <ele>385</ele>
        <time>2019-04-17T11:58:49Z</time>
      </trkpt>
      <trkpt lat="45.96539" lon="4.04258">
        <ele>388</ele>
        <time>2019-04-17T11:59:49Z</time>
      </trkpt>
      <trkpt lat="45.96503" lon="4.04249">
        <ele>392</ele>
        <time>2019-04-17T12:00:49Z</time>
      </trkpt>
      <trkpt lat="45.96469" lon="4.04245">
        <ele>394</ele>
        <time>2019-04-17T12:01:49Z</time>
      </trkpt>
      <trkpt lat="45.96421" lon="4.04244">
        <ele>398</ele>
        <time>2019-04-17T12:02:49Z</time>
      </trkpt>
      <trkpt lat="45.96305" lon="4.0426">
        <ele>407</ele>
        <time>2019-04-17T12:03:49Z</time>
      </trkpt>
      <trkpt lat="45.96284" lon="4.04262">
        <ele>410</ele>
        <time>2019-04-17T12:04:49Z</time>
      </trkpt>
      <trkpt lat="45.96142" lon="4.04265">
        <ele>421</ele>
        <time>2019-04-17T12:05:49Z</time>
      </trkpt>
      <trkpt lat="45.96124" lon="4.04261">
        <ele>422</ele>
        <time>2019-04-17T12:06:49Z</time>
      </trkpt>
      <trkpt lat="45.96104" lon="4.04253">
        <ele>424</ele>
        <time>2019-04-17T12:07:49Z</time>
      </trkpt>
      <trkpt lat="45.96085" lon="4.0424">
        <ele>426</ele>
        <time>2019-04-17T12:08:49Z</time>
      </trkpt>
      <trkpt lat="45.96065" lon="4.04222">
        <ele>427</ele>
        <time>2019-04-17T12:09:49Z</time>
      </trkpt>
      <trkpt lat="45.96018" lon="4.04153">
        <ele>433</ele>
        <time>2019-04-17T12:10:49Z</time>
      </trkpt>
      <trkpt lat="45.96004" lon="4.04141">
        <ele>434</ele>
        <time>2019-04-17T12:11:49Z</time>
      </trkpt>
      <trkpt lat="45.95993" lon="4.04134">
        <ele>435</ele>
        <time>2019-04-17T12:12:49Z</time>
      </trkpt>
      <trkpt lat="45.9598" lon="4.04131">
        <ele>436</ele>
        <time>2019-04-17T12:13:49Z</time>
      </trkpt>
      <trkpt lat="45.95952" lon="4.04135">
        <ele>438</ele>
        <time>2019-04-17T12:14:49Z</time>
      </trkpt>
      <trkpt lat="45.95933" lon="4.04142">
        <ele>439</ele>
        <time>2019-04-17T12:15:49Z</time>
      </trkpt>
      <trkpt lat="45.95909" lon="4.04157">
        <ele>440</ele>
        <time>2019-04-17T12:16:49Z</time>
      </trkpt>
      <trkpt lat="45.95835" lon="4.04228">
        <ele>441</ele>
        <time>2019-04-17T12:17:49Z</time>
      </trkpt>
      <trkpt lat="45.95817" lon="4.04242">
        <ele>442</ele>
        <time>2019-04-17T12:18:49Z</time>
      </trkpt>
      <trkpt lat="45.95795" lon="4.04254">
        <ele>443</ele>
        <time>2019-04-17T12:19:49Z</time>
      </trkpt>
      <trkpt lat="45.95778" lon="4.0426">
        <ele>444</ele>
        <time>2019-04-17T12:20:49Z</time>
      </trkpt>
      <trkpt lat="45.95752" lon="4.04266">
        <ele>445</ele>
        <time>2019-04-17T12:21:49Z</time>
      </trkpt>
      <trkpt lat="45.95572" lon="4.04278">
        <ele>445</ele>
        <time>2019-04-17T12:22:49Z</time>
      </trkpt>
      <trkpt lat="45.95552" lon="4.04276">
        <ele>445</ele>
        <time>2019-04-17T12:23:49Z</time>
      </trkpt>
      <trkpt lat="45.9548" lon="4.04254">
        <ele>443</ele>
        <time>2019-04-17T12:24:49Z</time>
      </trkpt>
      <trkpt lat="45.95461" lon="4.04254">
        <ele>443</ele>
        <time>2019-04-17T12:25:49Z</time>
      </trkpt>
      <trkpt lat="45.95438" lon="4.04258">
        <ele>442</ele>
        <time>2019-04-17T12:26:49Z</time>
      </trkpt>
      <trkpt lat="45.95391" lon="4.0427">
        <ele>444</ele>
        <time>2019-04-17T12:27:49Z</time>
      </trkpt>
      <trkpt lat="45.95367" lon="4.04281">
        <ele>446</ele>
        <time>2019-04-17T12:28:49Z</time>
      </trkpt>
      <trkpt lat="45.9535" lon="4.04293">
        <ele>447</ele>
        <time>2019-04-17T12:29:49Z</time>
      </trkpt>
      <trkpt lat="45.95337" lon="4.0431">
        <ele>449</ele>
        <time>2019-04-17T12:30:49Z</time>
      </trkpt>
      <trkpt lat="45.95301" lon="4.04382">
        <ele>453</ele>
        <time>2019-04-17T12:31:49Z</time>
      </trkpt>
      <trkpt lat="45.95285" lon="4.0441">
        <ele>454</ele>
        <time>2019-04-17T12:32:49Z</time>
      </trkpt>
      <trkpt lat="45.9527" lon="4.04428">
        <ele>455</ele>
        <time>2019-04-17T12:33:49Z</time>
      </trkpt>
      <trkpt lat="45.95251" lon="4.04445">
        <ele>456</ele>
        <time>2019-04-17T12:34:49Z</time>
      </trkpt>
      <trkpt lat="45.9523" lon="4.04458">
        <ele>457</ele>
        <time>2019-04-17T12:35:49Z</time>
      </trkpt>
      <trkpt lat="45.95213" lon="4.04465">
        <ele>458</ele>
        <time>2019-04-17T12:36:49Z</time>
      </trkpt>
      <trkpt lat="45.95131" lon="4.04489">
        <ele>461</ele>
        <time>2019-04-17T12:37:49Z</time>
      </trkpt>
      <trkpt lat="45.95089" lon="4.0451">
        <ele>462</ele>
        <time>2019-04-17T12:38:49Z</time>
      </trkpt>
      <trkpt lat="45.95001" lon="4.04569">
        <ele>463</ele>
        <time>2019-04-17T12:39:49Z</time>
      </trkpt>
      <trkpt lat="45.94949" lon="4.04615">
        <ele>463</ele>
        <time>2019-04-17T12:40:49Z</time>
      </trkpt>
      <trkpt lat="45.94929" lon="4.04638">
        <ele>462</ele>
        <time>2019-04-17T12:41:49Z</time>
      </trkpt>
      <trkpt lat="45.94921" lon="4.04653">
        <ele>461</ele>
        <time>2019-04-17T12:42:49Z</time>
      </trkpt>
      <trkpt lat="45.94895" lon="4.04748">
        <ele>456</ele>
        <time>2019-04-17T12:43:49Z</time>
      </trkpt>
      <trkpt lat="45.94883" lon="4.04779">
        <ele>455</ele>
        <time>2019-04-17T12:44:49Z</time>
      </trkpt>
      <trkpt lat="45.94864" lon="4.04815">
        <ele>454</ele>
        <time>2019-04-17T12:45:49Z</time>
      </trkpt>
      <trkpt lat="45.94821" lon="4.04884">
        <ele>454</ele>
        <time>2019-04-17T12:46:49Z</time>
      </trkpt>
      <trkpt lat="45.94798" lon="4.04905">
        <ele>454</ele>
        <time>2019-04-17T12:47:49Z</time>
      </trkpt>
      <trkpt lat="45.94771" lon="4.0492">
        <ele>455</ele>
        <time>2019-04-17T12:48:49Z</time>
      </trkpt>
      <trkpt lat="45.94672" lon="4.04959">
        <ele>459</ele>
        <time>2019-04-17T12:49:49Z</time>
      </trkpt>
      <trkpt lat="45.9465" lon="4.04975">
        <ele>460</ele>
        <time>2019-04-17T12:50:49Z</time>
      </trkpt>
      <trkpt lat="45.94632" lon="4.04992">
        <ele>461</ele>
        <time>2019-04-17T12:51:49Z</time>
      </trkpt>
      <trkpt lat="45.94615" lon="4.05011">
        <ele>461</ele>
        <time>2019-04-17T12:52:49Z</time>
      </trkpt>
      <trkpt lat="45.946" lon="4.05035">
        <ele>462</ele>
        <time>2019-04-17T12:53:49Z</time>
      </trkpt>
      <trkpt lat="45.94513" lon="4.05194">
        <ele>460</ele>
        <time>2019-04-17T12:54:49Z</time>
      </trkpt>
      <trkpt lat="45.94499" lon="4.05216">
        <ele>459</ele>
        <time>2019-04-17T12:55:49Z</time>
      </trkpt>
      <trkpt lat="45.94482" lon="4.05237">
        <ele>458</ele>
        <time>2019-04-17T12:56:49Z</time>
      </trkpt>
      <trkpt lat="45.94442" lon="4.05274">
        <ele>458</ele>
        <time>2019-04-17T12:57:49Z</time>
      </trkpt>
      <trkpt lat="45.94379" lon="4.05326">
        <ele>460</ele>
        <time>2019-04-17T12:58:49Z</time>
      </trkpt>
      <trkpt lat="45.94155" lon="4.05538">
        <ele>476</ele>
        <time>2019-04-17T12:59:49Z</time>
      </trkpt>
      <trkpt lat="45.9411" lon="4.05579">
        <ele>477</ele>
        <time>2019-04-17T13:00:49Z</time>
      </trkpt>
      <trkpt lat="45.94054" lon="4.05617">
        <ele>476</ele>
        <time>2019-04-17T13:01:49Z</time>
      </trkpt>
      <trkpt lat="45.93979" lon="4.05644">
        <ele>473</ele>
        <time>2019-04-17T13:02:49Z</time>
      </trkpt>
      <trkpt lat="45.93955" lon="4.05655">
        <ele>472</ele>
        <time>2019-04-17T13:03:49Z</time>
      </trkpt>
      <trkpt lat="45.93742" lon="4.05779">
        <ele>464</ele>
        <time>2019-04-17T13:04:49Z</time>
      </trkpt>
      <trkpt lat="45.93716" lon="4.05792">
        <ele>463</ele>
        <time>2019-04-17T13:05:49Z</time>
      </trkpt>
      <trkpt lat="45.93701" lon="4.05796">
        <ele>462</ele>
        <time>2019-04-17T13:06:49Z</time>
      </trkpt>
      <trkpt lat="45.93685" lon="4.05796">
        <ele>461</ele>
        <time>2019-04-17T13:07:49Z</time>
      </trkpt>
      <trkpt lat="45.93526" lon="4.05771">
        <ele>452</ele>
        <time>2019-04-17T13:08:49Z</time>
      </trkpt>
      <trkpt lat="45.93493" lon="4.05759">
        <ele>450</ele>
        <time>2019-04-17T13:09:49Z</time>
      </trkpt>
      <trkpt lat="45.93479" lon="4.05748">
        <ele>449</ele>
        <time>2019-04-17T13:10:49Z</time>
      </trkpt>
      <trkpt lat="45.93469" lon="4.05734">
        <ele>449</ele>
        <time>2019-04-17T13:11:49Z</time>
      </trkpt>
      <trkpt lat="45.93459" lon="4.05714">
        <ele>449</ele>
        <time>2019-04-17T13:12:49Z</time>
      </trkpt>
      <trkpt lat="45.93423" lon="4.05625">
        <ele>451</ele>
        <time>2019-04-17T13:13:49Z</time>
      </trkpt>
      <trkpt lat="45.93416" lon="4.05616">
        <ele>452</ele>
        <time>2019-04-17T13:14:49Z</time>
      </trkpt>
      <trkpt lat="45.93392" lon="4.05597">
        <ele>452</ele>
        <time>2019-04-17T13:15:49Z</time>
      </trkpt>
      <trkpt lat="45.93378" lon="4.05594">
        <ele>452</ele>
        <time>2019-04-17T13:16:49Z</time>
      </trkpt>
      <trkpt lat="45.93173" lon="4.05603">
        <ele>440</ele>
        <time>2019-04-17T13:17:49Z</time>
      </trkpt>
      <trkpt lat="45.9315" lon="4.05602">
        <ele>437</ele>
        <time>2019-04-17T13:18:49Z</time>
      </trkpt>
      <trkpt lat="45.93134" lon="4.05594">
        <ele>436</ele>
        <time>2019-04-17T13:19:49Z</time>
      </trkpt>
      <trkpt lat="45.93122" lon="4.05582">
        <ele>436</ele>
        <time>2019-04-17T13:20:49Z</time>
      </trkpt>
      <trkpt lat="45.93112" lon="4.05568">
        <ele>435</ele>
        <time>2019-04-17T13:21:49Z</time>
      </trkpt>
      <trkpt lat="45.93104" lon="4.05547">
        <ele>435</ele>
        <time>2019-04-17T13:22:49Z</time>
      </trkpt>
      <trkpt lat="45.93099" lon="4.05528">
        <ele>436</ele>
        <time>2019-04-17T13:23:49Z</time>
      </trkpt>
      <trkpt lat="45.93097" lon="4.05503">
        <ele>437</ele>
        <time>2019-04-17T13:24:49Z</time>
      </trkpt>
      <trkpt lat="45.93098" lon="4.05465">
        <ele>437</ele>
        <time>2019-04-17T13:25:49Z</time>
      </trkpt>
      <trkpt lat="45.93094" lon="4.05394">
        <ele>435</ele>
        <time>2019-04-17T13:26:49Z</time>
      </trkpt>
      <trkpt lat="45.93079" lon="4.05319">
        <ele>431</ele>
        <time>2019-04-17T13:27:49Z</time>
      </trkpt>
      <trkpt lat="45.93062" lon="4.05244">
        <ele>427</ele>
        <time>2019-04-17T13:28:49Z</time>
      </trkpt>
      <trkpt lat="45.93053" lon="4.052">
        <ele>425</ele>
        <time>2019-04-17T13:29:49Z</time>
      </trkpt>
      <trkpt lat="45.93051" lon="4.05158">
        <ele>425</ele>
        <time>2019-04-17T13:30:49Z</time>
      </trkpt>
      <trkpt lat="45.93055" lon="4.05066">
        <ele>422</ele>
        <time>2019-04-17T13:31:49Z</time>
      </trkpt>
      <trkpt lat="45.93054" lon="4.0505">
        <ele>421</ele>
        <time>2019-04-17T13:32:49Z</time>
      </trkpt>
      <trkpt lat="45.93051" lon="4.05038">
        <ele>420</ele>
        <time>2019-04-17T13:33:49Z</time>
      </trkpt>
      <trkpt lat="45.93044" lon="4.05029">
        <ele>418</ele>
        <time>2019-04-17T13:34:49Z</time>
      </trkpt>
      <trkpt lat="45.93034" lon="4.05023">
        <ele>416</ele>
        <time>2019-04-17T13:35:49Z</time>
      </trkpt>
      <trkpt lat="45.93018" lon="4.05024">
        <ele>413</ele>
        <time>2019-04-17T13:36:49Z</time>
      </trkpt>
      <trkpt lat="45.93007" lon="4.05035">
        <ele>412</ele>
        <time>2019-04-17T13:37:49Z</time>
      </trkpt>
      <trkpt lat="45.92997" lon="4.05059">
        <ele>411</ele>
        <time>2019-04-17T13:38:49Z</time>
      </trkpt>
      <trkpt lat="45.92975" lon="4.05124">
        <ele>407</ele>
        <time>2019-04-17T13:39:49Z</time>
      </trkpt>
      <trkpt lat="45.9295" lon="4.05168">
        <ele>403</ele>
        <time>2019-04-17T13:40:49Z</time>
      </trkpt>
      <trkpt lat="45.92899" lon="4.05226">
        <ele>392</ele>
        <time>2019-04-17T13:41:49Z</time>
      </trkpt>
      <trkpt lat="45.92885" lon="4.05257">
        <ele>389</ele>
        <time>2019-04-17T13:42:49Z</time>
      </trkpt>
      <trkpt lat="45.92879" lon="4.05285">
        <ele>387</ele>
        <time>2019-04-17T13:43:49Z</time>
      </trkpt>
      <trkpt lat="45.92877" lon="4.05314">
        <ele>386</ele>
        <time>2019-04-17T13:44:49Z</time>
      </trkpt>
      <trkpt lat="45.92886" lon="4.05371">
        <ele>389</ele>
        <time>2019-04-17T13:45:49Z</time>
      </trkpt>
      <trkpt lat="45.92889" lon="4.05401">
        <ele>390</ele>
        <time>2019-04-17T13:46:49Z</time>
      </trkpt>
      <trkpt lat="45.92885" lon="4.05424">
        <ele>390</ele>
        <time>2019-04-17T13:47:49Z</time>
      </trkpt>
      <trkpt lat="45.92876" lon="4.05443">
        <ele>388</ele>
        <time>2019-04-17T13:48:49Z</time>
      </trkpt>
      <trkpt lat="45.92864" lon="4.05453">
        <ele>385</ele>
        <time>2019-04-17T13:49:49Z</time>
      </trkpt>
      <trkpt lat="45.9285" lon="4.05459">
        <ele>382</ele>
        <time>2019-04-17T13:50:49Z</time>
      </trkpt>
      <trkpt lat="45.92837" lon="4.0546">
        <ele>379</ele>
        <time>2019-04-17T13:51:49Z</time>
      </trkpt>
      <trkpt lat="45.92822" lon="4.05454">
        <ele>379</ele>
        <time>2019-04-17T13:52:49Z</time>
      </trkpt>
      <trkpt lat="45.92803" lon="4.05439">
        <ele>381</ele>
        <time>2019-04-17T13:53:49Z</time>
      </trkpt>
      <trkpt lat="45.92755" lon="4.05393">
        <ele>382</ele>
        <time>2019-04-17T13:54:49Z</time>
      </trkpt>
      <trkpt lat="45.92739" lon="4.05376">
        <ele>383</ele>
        <time>2019-04-17T13:55:49Z</time>
      </trkpt>
      <trkpt lat="45.9273" lon="4.05354">
        <ele>383</ele>
        <time>2019-04-17T13:56:49Z</time>
      </trkpt>
      <trkpt lat="45.92717" lon="4.05286">
        <ele>382</ele>
        <time>2019-04-17T13:57:49Z</time>
      </trkpt>
      <trkpt lat="45.92709" lon="4.05259">
        <ele>383</ele>
        <time>2019-04-17T13:58:49Z</time>
      </trkpt>
      <trkpt lat="45.92695" lon="4.05234">
        <ele>384</ele>
        <time>2019-04-17T13:59:49Z</time>
      </trkpt>
      <trkpt lat="45.92658" lon="4.05186">
        <ele>388</ele>
        <time>2019-04-17T14:00:49Z</time>
      </trkpt>
      <trkpt lat="45.9263" lon="4.05156">
        <ele>389</ele>
        <time>2019-04-17T14:01:49Z</time>
      </trkpt>
      <trkpt lat="45.92609" lon="4.05141">
        <ele>391</ele>
        <time>2019-04-17T14:02:49Z</time>
      </trkpt>
      <trkpt lat="45.92587" lon="4.0513">
        <ele>393</ele>
        <time>2019-04-17T14:03:49Z</time>
      </trkpt>
      <trkpt lat="45.92559" lon="4.05125">
        <ele>396</ele>
        <time>2019-04-17T14:04:49Z</time>
      </trkpt>
      <trkpt lat="45.92526" lon="4.05126">
        <ele>398</ele>
        <time>2019-04-17T14:05:49Z</time>
      </trkpt>
      <trkpt lat="45.92295" lon="4.0514">
        <ele>400</ele>
        <time>2019-04-17T14:06:49Z</time>
      </trkpt>
      <trkpt lat="45.9227" lon="4.05144">
        <ele>399</ele>
        <time>2019-04-17T14:07:49Z</time>
      </trkpt>
      <trkpt lat="45.9224" lon="4.0516">
        <ele>400</ele>
        <time>2019-04-17T14:08:49Z</time>
      </trkpt>
      <trkpt lat="45.9223" lon="4.05172">
        <ele>400</ele>
        <time>2019-04-17T14:09:49Z</time>
      </trkpt>
      <trkpt lat="45.92214" lon="4.05194">
        <ele>399</ele>
        <time>2019-04-17T14:10:49Z</time>
      </trkpt>
      <trkpt lat="45.922" lon="4.05221">
        <ele>400</ele>
        <time>2019-04-17T14:11:49Z</time>
      </trkpt>
      <trkpt lat="45.92177" lon="4.05272">
        <ele>402</ele>
        <time>2019-04-17T14:12:49Z</time>
      </trkpt>
      <trkpt lat="45.92166" lon="4.05291">
        <ele>403</ele>
        <time>2019-04-17T14:13:49Z</time>
      </trkpt>
      <trkpt lat="45.92154" lon="4.05305">
        <ele>404</ele>
        <time>2019-04-17T14:14:49Z</time>
      </trkpt>
      <trkpt lat="45.92139" lon="4.05317">
        <ele>404</ele>
        <time>2019-04-17T14:15:49Z</time>
      </trkpt>
      <trkpt lat="45.92121" lon="4.05328">
        <ele>404</ele>
        <time>2019-04-17T14:16:49Z</time>
      </trkpt>
      <trkpt lat="45.92061" lon="4.05359">
        <ele>400</ele>
        <time>2019-04-17T14:17:49Z</time>
      </trkpt>
      <trkpt lat="45.92034" lon="4.05378">
        <ele>399</ele>
        <time>2019-04-17T14:18:49Z</time>
      </trkpt>
      <trkpt lat="45.92002" lon="4.05413">
        <ele>399</ele>
        <time>2019-04-17T14:19:49Z</time>
      </trkpt>
      <trkpt lat="45.9199" lon="4.05432">
        <ele>398</ele>
        <time>2019-04-17T14:20:49Z</time>
      </trkpt>
      <trkpt lat="45.91976" lon="4.05459">
        <ele>399</ele>
        <time>2019-04-17T14:21:49Z</time>
      </trkpt>
      <trkpt lat="45.91961" lon="4.05497">
        <ele>402</ele>
        <time>2019-04-17T14:22:49Z</time>
      </trkpt>
      <trkpt lat="45.91956" lon="4.05517">
        <ele>402</ele>
        <time>2019-04-17T14:23:49Z</time>
      </trkpt>
      <trkpt lat="45.91945" lon="4.05596">
        <ele>403</ele>
        <time>2019-04-17T14:24:49Z</time>
      </trkpt>
      <trkpt lat="45.91942" lon="4.05655">
        <ele>404</ele>
        <time>2019-04-17T14:25:49Z</time>
      </trkpt>
      <trkpt lat="45.91934" lon="4.05696">
        <ele>404</ele>
        <time>2019-04-17T14:26:49Z</time>
      </trkpt>
      <trkpt lat="45.91928" lon="4.05716">
        <ele>404</ele>
        <time>2019-04-17T14:27:49Z</time>
      </trkpt>
      <trkpt lat="45.91904" lon="4.05757">
        <ele>403</ele>
        <time>2019-04-17T14:28:49Z</time>
      </trkpt>
      <trkpt lat="45.9189" lon="4.05775">
        <ele>402</ele>
        <time>2019-04-17T14:29:49Z</time>
      </trkpt>
      <trkpt lat="45.91879" lon="4.05796">
        <ele>403</ele>
        <time>2019-04-17T14:30:49Z</time>
      </trkpt>
      <trkpt lat="45.91871" lon="4.05819">
        <ele>404</ele>
        <time>2019-04-17T14:31:49Z</time>
      </trkpt>
      <trkpt lat="45.91867" lon="4.05843">
        <ele>404</ele>
        <time>2019-04-17T14:32:49Z</time>
      </trkpt>
      <trkpt lat="45.91866" lon="4.05863">
        <ele>403</ele>
        <time>2019-04-17T14:33:49Z</time>
      </trkpt>
      <trkpt lat="45.91867" lon="4.05883">
        <ele>402</ele>
        <time>2019-04-17T14:34:49Z</time>
      </trkpt>
      <trkpt lat="45.9187" lon="4.05902">
        <ele>401</ele>
        <time>2019-04-17T14:35:49Z</time>
      </trkpt>
      <trkpt lat="45.91877" lon="4.05925">
        <ele>400</ele>
        <time>2019-04-17T14:36:49Z</time>
      </trkpt>
      <trkpt lat="45.91953" lon="4.0611">
        <ele>396</ele>
        <time>2019-04-17T14:37:49Z</time>
      </trkpt>
      <trkpt lat="45.91965" lon="4.06146">
        <ele>395</ele>
        <time>2019-04-17T14:38:49Z</time>
      </trkpt>
      <trkpt lat="45.9197" lon="4.06169">
        <ele>394</ele>
        <time>2019-04-17T14:39:49Z</time>
      </trkpt>
      <trkpt lat="45.91974" lon="4.06192">
        <ele>393</ele>
        <time>2019-04-17T14:40:49Z</time>
      </trkpt>
      <trkpt lat="45.91977" lon="4.06218">
        <ele>393</ele>
        <time>2019-04-17T14:41:49Z</time>
      </trkpt>
      <trkpt lat="45.91973" lon="4.06262">
        <ele>391</ele>
        <time>2019-04-17T14:42:49Z</time>
      </trkpt>
      <trkpt lat="45.91963" lon="4.06307">
        <ele>393</ele>
        <time>2019-04-17T14:43:49Z</time>
      </trkpt>
      <trkpt lat="45.91944" lon="4.0636">
        <ele>395</ele>
        <time>2019-04-17T14:44:49Z</time>
      </trkpt>
      <trkpt lat="45.91899" lon="4.06457">
        <ele>401</ele>
        <time>2019-04-17T14:45:49Z</time>
      </trkpt>
      <trkpt lat="45.91868" lon="4.06532">
        <ele>400</ele>
        <time>2019-04-17T14:46:49Z</time>
      </trkpt>
      <trkpt lat="45.91857" lon="4.06579">
        <ele>396</ele>
        <time>2019-04-17T14:47:49Z</time>
      </trkpt>
      <trkpt lat="45.91854" lon="4.06621">
        <ele>393</ele>
        <time>2019-04-17T14:48:49Z</time>
      </trkpt>
      <trkpt lat="45.91855" lon="4.06646">
        <ele>392</ele>
        <time>2019-04-17T14:49:49Z</time>
      </trkpt>
      <trkpt lat="45.91859" lon="4.06669">
        <ele>391</ele>
        <time>2019-04-17T14:50:49Z</time>
      </trkpt>
      <trkpt lat="45.91877" lon="4.06714">
        <ele>387</ele>
        <time>2019-04-17T14:51:49Z</time>
      </trkpt>
      <trkpt lat="45.91891" lon="4.06738">
        <ele>385</ele>
        <time>2019-04-17T14:52:49Z</time>
      </trkpt>
      <trkpt lat="45.91905" lon="4.06757">
        <ele>383</ele>
        <time>2019-04-17T14:53:49Z</time>
      </trkpt>
      <trkpt lat="45.9194" lon="4.0679">
        <ele>380</ele>
        <time>2019-04-17T14:54:49Z</time>
      </trkpt>
      <trkpt lat="45.92029" lon="4.06855">
        <ele>376</ele>
        <time>2019-04-17T14:55:49Z</time>
      </trkpt>
      <trkpt lat="45.9204" lon="4.06866">
        <ele>375</ele>
        <time>2019-04-17T14:56:49Z</time>
      </trkpt>
      <trkpt lat="45.92048" lon="4.06879">
        <ele>374</ele>
        <time>2019-04-17T14:57:49Z</time>
      </trkpt>
      <trkpt lat="45.92055" lon="4.06893">
        <ele>372</ele>
        <time>2019-04-17T14:58:49Z</time>
      </trkpt>
      <trkpt lat="45.92057" lon="4.06907">
        <ele>370</ele>
        <time>2019-04-17T14:59:49Z</time>
      </trkpt>
      <trkpt lat="45.92057" lon="4.06922">
        <ele>369</ele>
        <time>2019-04-17T15:00:49Z</time>
      </trkpt>
      <trkpt lat="45.92055" lon="4.06937">
        <ele>369</ele>
        <time>2019-04-17T15:01:49Z</time>
      </trkpt>
      <trkpt lat="45.9205" lon="4.06954">
        <ele>369</ele>
        <time>2019-04-17T15:02:49Z</time>
      </trkpt>
      <trkpt lat="45.92043" lon="4.06965">
        <ele>369</ele>
        <time>2019-04-17T15:03:49Z</time>
      </trkpt>
      <trkpt lat="45.92032" lon="4.06979">
        <ele>368</ele>
        <time>2019-04-17T15:04:49Z</time>
      </trkpt>
      <trkpt lat="45.91996" lon="4.06996">
        <ele>364</ele>
        <time>2019-04-17T15:05:49Z</time>
      </trkpt>
      <trkpt lat="45.91965" lon="4.07001">
        <ele>363</ele>
        <time>2019-04-17T15:06:49Z</time>
      </trkpt>
      <trkpt lat="45.91935" lon="4.07002">
        <ele>361</ele>
        <time>2019-04-17T15:07:49Z</time>
      </trkpt>
      <trkpt lat="45.91908" lon="4.06996">
        <ele>360</ele>
        <time>2019-04-17T15:08:49Z</time>
      </trkpt>
      <trkpt lat="45.91785" lon="4.06952">
        <ele>351</ele>
        <time>2019-04-17T15:09:49Z</time>
      </trkpt>
      <trkpt lat="45.91727" lon="4.06935">
        <ele>344</ele>
        <time>2019-04-17T15:10:49Z</time>
      </trkpt>
      <trkpt lat="45.91692" lon="4.06935">
        <ele>341</ele>
        <time>2019-04-17T15:11:49Z</time>
      </trkpt>
      <trkpt lat="45.91618" lon="4.06947">
        <ele>336</ele>
        <time>2019-04-17T15:12:49Z</time>
      </trkpt>
      <trkpt lat="45.91584" lon="4.06957">
        <ele>333</ele>
        <time>2019-04-17T15:13:49Z</time>
      </trkpt>
      <trkpt lat="45.91568" lon="4.06968">
        <ele>332</ele>
        <time>2019-04-17T15:14:49Z</time>
      </trkpt>
      <trkpt lat="45.9155" lon="4.06985">
        <ele>331</ele>
        <time>2019-04-17T15:15:49Z</time>
      </trkpt>
      <trkpt lat="45.91524" lon="4.07023">
        <ele>329</ele>
        <time>2019-04-17T15:16:49Z</time>
      </trkpt>
      <trkpt lat="45.91514" lon="4.07046">
        <ele>328</ele>
        <time>2019-04-17T15:17:49Z</time>
      </trkpt>
      <trkpt lat="45.91505" lon="4.07075">
        <ele>327</ele>
        <time>2019-04-17T15:18:49Z</time>
      </trkpt>
      <trkpt lat="45.91387" lon="4.0749">
        <ele>326</ele>
        <time>2019-04-17T15:19:49Z</time>
      </trkpt>
      <trkpt lat="45.91374" lon="4.07545">
        <ele>325</ele>
        <time>2019-04-17T15:20:49Z</time>
      </trkpt>
      <trkpt lat="45.91371" lon="4.07569">
        <ele>325</ele>
        <time>2019-04-17T15:21:49Z</time>
      </trkpt>
      <trkpt lat="45.91372" lon="4.0768">
        <ele>324</ele>
        <time>2019-04-17T15:22:49Z</time>
      </trkpt>
      <trkpt lat="45.91366" lon="4.07715">
        <ele>322</ele>
        <time>2019-04-17T15:23:49Z</time>
      </trkpt>
      <trkpt lat="45.91352" lon="4.07751">
        <ele>320</ele>
        <time>2019-04-17T15:24:49Z</time>
      </trkpt>
      <trkpt lat="45.9133" lon="4.07788">
        <ele>323</ele>
        <time>2019-04-17T15:25:49Z</time>
      </trkpt>
      <trkpt lat="45.91269" lon="4.07851">
        <ele>327</ele>
        <time>2019-04-17T15:26:49Z</time>
      </trkpt>
      <trkpt lat="45.91242" lon="4.07886">
        <ele>332</ele>
        <time>2019-04-17T15:27:49Z</time>
      </trkpt>
      <trkpt lat="45.91224" lon="4.07915">
        <ele>333</ele>
        <time>2019-04-17T15:28:49Z</time>
      </trkpt>
      <trkpt lat="45.91214" lon="4.07944">
        <ele>334</ele>
        <time>2019-04-17T15:29:49Z</time>
      </trkpt>
      <trkpt lat="45.91202" lon="4.07992">
        <ele>336</ele>
        <time>2019-04-17T15:30:49Z</time>
      </trkpt>
      <trkpt lat="45.91187" lon="4.0808">
        <ele>336</ele>
        <time>2019-04-17T15:31:49Z</time>
      </trkpt>
      <trkpt lat="45.91177" lon="4.08115">
        <ele>337</ele>
        <time>2019-04-17T15:32:49Z</time>
      </trkpt>
      <trkpt lat="45.9114" lon="4.0821">
        <ele>339</ele>
        <time>2019-04-17T15:33:49Z</time>
      </trkpt>
      <trkpt lat="45.91129" lon="4.08257">
        <ele>340</ele>
        <time>2019-04-17T15:34:49Z</time>
      </trkpt>
      <trkpt lat="45.91109" lon="4.08357">
        <ele>341</ele>
        <time>2019-04-17T15:35:49Z</time>
      </trkpt>
      <trkpt lat="45.91093" lon="4.08416">
        <ele>339</ele>
        <time>2019-04-17T15:36:49Z</time>
      </trkpt>
      <trkpt lat="45.9104" lon="4.08533">
        <ele>343</ele>
        <time>2019-04-17T15:37:49Z</time>
      </trkpt>
      <trkpt lat="45.90982" lon="4.08656">
        <ele>345</ele>
        <time>2019-04-17T15:38:49Z</time>
      </trkpt>
      <trkpt lat="45.90966" lon="4.08684">
        <ele>345</ele>
        <time>2019-04-17T15:39:49Z</time>
      </trkpt>
      <trkpt lat="45.90949" lon="4.08704">
        <ele>344</ele>
        <time>2019-04-17T15:40:49Z</time>
      </trkpt>
      <trkpt lat="45.90933" lon="4.08718">
        <ele>343</ele>
        <time>2019-04-17T15:41:49Z</time>
      </trkpt>
      <trkpt lat="45.9091" lon="4.08728">
        <ele>341</ele>
        <time>2019-04-17T15:42:49Z</time>
      </trkpt>
      <trkpt lat="45.90838" lon="4.08748">
        <ele>336</ele>
        <time>2019-04-17T15:43:49Z</time>
      </trkpt>
      <trkpt lat="45.90816" lon="4.08761">
        <ele>335</ele>
        <time>2019-04-17T15:44:49Z</time>
      </trkpt>
      <trkpt lat="45.90793" lon="4.08778">
        <ele>333</ele>
        <time>2019-04-17T15:45:49Z</time>
      </trkpt>
      <trkpt lat="45.90776" lon="4.088">
        <ele>333</ele>
        <time>2019-04-17T15:46:49Z</time>
      </trkpt>
      <trkpt lat="45.90766" lon="4.08822">
        <ele>333</ele>
        <time>2019-04-17T15:47:49Z</time>
      </trkpt>
      <trkpt lat="45.9076" lon="4.08847">
        <ele>333</ele>
        <time>2019-04-17T15:48:49Z</time>
      </trkpt>
      <trkpt lat="45.90758" lon="4.08877">
        <ele>333</ele>
        <time>2019-04-17T15:49:49Z</time>
      </trkpt>
      <trkpt lat="45.9076" lon="4.08909">
        <ele>334</ele>
        <time>2019-04-17T15:50:49Z</time>
      </trkpt>
      <trkpt lat="45.9077" lon="4.08974">
        <ele>337</ele>
        <time>2019-04-17T15:51:49Z</time>
      </trkpt>
      <trkpt lat="45.90778" lon="4.09047">
        <ele>340</ele>
        <time>2019-04-17T15:52:49Z</time>
      </trkpt>
      <trkpt lat="45.90778" lon="4.09078">
        <ele>342</ele>
        <time>2019-04-17T15:53:49Z</time>
      </trkpt>
      <trkpt lat="45.90771" lon="4.09105">
        <ele>342</ele>
        <time>2019-04-17T15:54:49Z</time>
      </trkpt>
      <trkpt lat="45.9076" lon="4.0913">
        <ele>342</ele>
        <time>2019-04-17T15:55:49Z</time>
      </trkpt>
      <trkpt lat="45.9074" lon="4.09151">
        <ele>343</ele>
        <time>2019-04-17T15:56:49Z</time>
      </trkpt>
      <trkpt lat="45.90718" lon="4.09165">
        <ele>343</ele>
        <time>2019-04-17T15:57:49Z</time>
      </trkpt>
      <trkpt lat="45.90357" lon="4.09333">
        <ele>336</ele>
        <time>2019-04-17T15:58:49Z</time>
      </trkpt>
      <trkpt lat="45.90136" lon="4.09427">
        <ele>340</ele>
        <time>2019-04-17T15:59:49Z</time>
      </trkpt>
      <trkpt lat="45.8993" lon="4.09563">
        <ele>345</ele>
        <time>2019-04-17T16:00:49Z</time>
      </trkpt>
      <trkpt lat="45.89887" lon="4.09574">
        <ele>345</ele>
        <time>2019-04-17T16:01:49Z</time>
      </trkpt>
      <trkpt lat="45.89845" lon="4.09566">
        <ele>343</ele>
        <time>2019-04-17T16:02:49Z</time>
      </trkpt>
      <trkpt lat="45.89816" lon="4.09568">
        <ele>340</ele>
        <time>2019-04-17T16:03:49Z</time>
      </trkpt>
      <trkpt lat="45.89796" lon="4.09575">
        <ele>339</ele>
        <time>2019-04-17T16:04:49Z</time>
      </trkpt>
      <trkpt lat="45.89781" lon="4.09586">
        <ele>338</ele>
        <time>2019-04-17T16:05:49Z</time>
      </trkpt>
      <trkpt lat="45.89756" lon="4.09623">
        <ele>336</ele>
        <time>2019-04-17T16:06:49Z</time>
      </trkpt>
      <trkpt lat="45.89749" lon="4.09642">
        <ele>335</ele>
        <time>2019-04-17T16:07:49Z</time>
      </trkpt>
      <trkpt lat="45.89745" lon="4.09659">
        <ele>336</ele>
        <time>2019-04-17T16:08:49Z</time>
      </trkpt>
      <trkpt lat="45.89742" lon="4.09683">
        <ele>336</ele>
        <time>2019-04-17T16:09:49Z</time>
      </trkpt>
      <trkpt lat="45.89741" lon="4.09713">
        <ele>336</ele>
        <time>2019-04-17T16:10:49Z</time>
      </trkpt>
      <trkpt lat="45.89743" lon="4.09814">
        <ele>336</ele>
        <time>2019-04-17T16:11:49Z</time>
      </trkpt>
      <trkpt lat="45.89741" lon="4.09849">
        <ele>337</ele>
        <time>2019-04-17T16:12:49Z</time>
      </trkpt>
      <trkpt lat="45.89729" lon="4.099">
        <ele>339</ele>
        <time>2019-04-17T16:13:49Z</time>
      </trkpt>
      <trkpt lat="45.89699" lon="4.09983">
        <ele>336</ele>
        <time>2019-04-17T16:14:49Z</time>
      </trkpt>
      <trkpt lat="45.89688" lon="4.10027">
        <ele>334</ele>
        <time>2019-04-17T16:15:49Z</time>
      </trkpt>
      <trkpt lat="45.89685" lon="4.10062">
        <ele>333</ele>
        <time>2019-04-17T16:16:49Z</time>
      </trkpt>
      <trkpt lat="45.89688" lon="4.1009">
        <ele>334</ele>
        <time>2019-04-17T16:17:49Z</time>
      </trkpt>
      <trkpt lat="45.89704" lon="4.10149">
        <ele>333</ele>
        <time>2019-04-17T16:18:49Z</time>
      </trkpt>
      <trkpt lat="45.89708" lon="4.10179">
        <ele>332</ele>
        <time>2019-04-17T16:19:49Z</time>
      </trkpt>
      <trkpt lat="45.89707" lon="4.10206">
        <ele>332</ele>
        <time>2019-04-17T16:20:49Z</time>
      </trkpt>
      <trkpt lat="45.89704" lon="4.10239">
        <ele>331</ele>
        <time>2019-04-17T16:21:49Z</time>
      </trkpt>
      <trkpt lat="45.89693" lon="4.10273">
        <ele>330</ele>
        <time>2019-04-17T16:22:49Z</time>
      </trkpt>
      <trkpt lat="45.89658" lon="4.10369">
        <ele>331</ele>
        <time>2019-04-17T16:23:49Z</time>
      </trkpt>
      <trkpt lat="45.89645" lon="4.10415">
        <ele>334</ele>
        <time>2019-04-17T16:24:49Z</time>
      </trkpt>
      <trkpt lat="45.89635" lon="4.10466">
        <ele>335</ele>
        <time>2019-04-17T16:25:49Z</time>
      </trkpt>
      <trkpt lat="45.89633" lon="4.10508">
        <ele>338</ele>
        <time>2019-04-17T16:26:49Z</time>
      </trkpt>
      <trkpt lat="45.89636" lon="4.10548">
        <ele>341</ele>
        <time>2019-04-17T16:27:49Z</time>
      </trkpt>
      <trkpt lat="45.89659" lon="4.10707">
        <ele>347</ele>
        <time>2019-04-17T16:28:49Z</time>
      </trkpt>
      <trkpt lat="45.89666" lon="4.10749">
        <ele>347</ele>
        <time>2019-04-17T16:29:49Z</time>
      </trkpt>
      <trkpt lat="45.89667" lon="4.10793">
        <ele>343</ele>
        <time>2019-04-17T16:30:49Z</time>
      </trkpt>
      <trkpt lat="45.89663" lon="4.10829">
        <ele>340</ele>
        <time>2019-04-17T16:31:49Z</time>
      </trkpt>
      <trkpt lat="45.8965" lon="4.10864">
        <ele>341</ele>
        <time>2019-04-17T16:32:49Z</time>
      </trkpt>
      <trkpt lat="45.89637" lon="4.10882">
        <ele>341</ele>
        <time>2019-04-17T16:33:49Z</time>
      </trkpt>
      <trkpt lat="45.89622" lon="4.10897">
        <ele>342</ele>
        <time>2019-04-17T16:34:49Z</time>
      </trkpt>
      <trkpt lat="45.89602" lon="4.10909">
        <ele>343</ele>
        <time>2019-04-17T16:35:49Z</time>
      </trkpt>
      <trkpt lat="45.89576" lon="4.10916">
        <ele>344</ele>
        <time>2019-04-17T16:36:49Z</time>
      </trkpt>
      <trkpt lat="45.89461" lon="4.10923">
        <ele>350</ele>
        <time>2019-04-17T16:37:49Z</time>
      </trkpt>
      <trkpt lat="45.89413" lon="4.10928">
        <ele>350</ele>
        <time>2019-04-17T16:38:49Z</time>
      </trkpt>
      <trkpt lat="45.89369" lon="4.10936">
        <ele>345</ele>
        <time>2019-04-17T16:39:49Z</time>
      </trkpt>
      <trkpt lat="45.89283" lon="4.10964">
        <ele>348</ele>
        <time>2019-04-17T16:40:49Z</time>
      </trkpt>
      <trkpt lat="45.89248" lon="4.10982">
        <ele>353</ele>
        <time>2019-04-17T16:41:49Z</time>
      </trkpt>
      <trkpt lat="45.89073" lon="4.11105">
        <ele>373</ele>
        <time>2019-04-17T16:42:49Z</time>
      </trkpt>
      <trkpt lat="45.89049" lon="4.11126">
        <ele>374</ele>
        <time>2019-04-17T16:43:49Z</time>
      </trkpt>
      <trkpt lat="45.89027" lon="4.11154">
        <ele>376</ele>
        <time>2019-04-17T16:44:49Z</time>
      </trkpt>
      <trkpt lat="45.89011" lon="4.1118">
        <ele>378</ele>
        <time>2019-04-17T16:45:49Z</time>
      </trkpt>
      <trkpt lat="45.88997" lon="4.11216">
        <ele>380</ele>
        <time>2019-04-17T16:46:49Z</time>
      </trkpt>
      <trkpt lat="45.88985" lon="4.11255">
        <ele>381</ele>
        <time>2019-04-17T16:47:49Z</time>
      </trkpt>
      <trkpt lat="45.88964" lon="4.11363">
        <ele>384</ele>
        <time>2019-04-17T16:48:49Z</time>
      </trkpt>
      <trkpt lat="45.88956" lon="4.11391">
        <ele>384</ele>
        <time>2019-04-17T16:49:49Z</time>
      </trkpt>
      <trkpt lat="45.88945" lon="4.11414">
        <ele>384</ele>
        <time>2019-04-17T16:50:49Z</time>
      </trkpt>
      <trkpt lat="45.88933" lon="4.11432">
        <ele>384</ele>
        <time>2019-04-17T16:51:49Z</time>
      </trkpt>
      <trkpt lat="45.88914" lon="4.11449">
        <ele>383</ele>
        <time>2019-04-17T16:52:49Z</time>
      </trkpt>
      <trkpt lat="45.88893" lon="4.11459">
        <ele>384</ele>
        <time>2019-04-17T16:53:49Z</time>
      </trkpt>
      <trkpt lat="45.88869" lon="4.11463">
        <ele>384</ele>
        <time>2019-04-17T16:54:49Z</time>
      </trkpt>
      <trkpt lat="45.88699" lon="4.11453">
        <ele>377</ele>
        <time>2019-04-17T16:55:49Z</time>
      </trkpt>
      <trkpt lat="45.88617" lon="4.11458">
        <ele>373</ele>
        <time>2019-04-17T16:56:49Z</time>
      </trkpt>
      <trkpt lat="45.88536" lon="4.1147">
        <ele>369</ele>
        <time>2019-04-17T16:57:49Z</time>
      </trkpt>
      <trkpt lat="45.88497" lon="4.1148">
        <ele>368</ele>
        <time>2019-04-17T16:58:49Z</time>
      </trkpt>
      <trkpt lat="45.88467" lon="4.11491">
        <ele>365</ele>
        <time>2019-04-17T16:59:49Z</time>
      </trkpt>
      <trkpt lat="45.88436" lon="4.11513">
        <ele>364</ele>
        <time>2019-04-17T17:00:49Z</time>
      </trkpt>
      <trkpt lat="45.88417" lon="4.11537">
        <ele>364</ele>
        <time>2019-04-17T17:01:49Z</time>
      </trkpt>
      <trkpt lat="45.88401" lon="4.11565">
        <ele>364</ele>
        <time>2019-04-17T17:02:49Z</time>
      </trkpt>
      <trkpt lat="45.8839" lon="4.11594">
        <ele>363</ele>
        <time>2019-04-17T17:03:49Z</time>
      </trkpt>
      <trkpt lat="45.88383" lon="4.11624">
        <ele>362</ele>
        <time>2019-04-17T17:04:49Z</time>
      </trkpt>
      <trkpt lat="45.88378" lon="4.1167">
        <ele>362</ele>
        <time>2019-04-17T17:05:49Z</time>
      </trkpt>
      <trkpt lat="45.88391" lon="4.11884">
        <ele>362</ele>
        <time>2019-04-17T17:06:49Z</time>
      </trkpt>
      <trkpt lat="45.88395" lon="4.11922">
        <ele>364</ele>
        <time>2019-04-17T17:07:49Z</time>
      </trkpt>
      <trkpt lat="45.88403" lon="4.11952">
        <ele>366</ele>
        <time>2019-04-17T17:08:49Z</time>
      </trkpt>
      <trkpt lat="45.88422" lon="4.12">
        <ele>368</ele>
        <time>2019-04-17T17:09:49Z</time>
      </trkpt>
      <trkpt lat="45.88428" lon="4.12022">
        <ele>369</ele>
        <time>2019-04-17T17:10:49Z</time>
      </trkpt>
      <trkpt lat="45.88433" lon="4.12078">
        <ele>372</ele>
        <time>2019-04-17T17:11:49Z</time>
      </trkpt>
      <trkpt lat="45.88433" lon="4.1216">
        <ele>380</ele>
        <time>2019-04-17T17:12:49Z</time>
      </trkpt>
      <trkpt lat="45.88436" lon="4.1219">
        <ele>382</ele>
        <time>2019-04-17T17:13:49Z</time>
      </trkpt>
      <trkpt lat="45.88445" lon="4.12219">
        <ele>384</ele>
        <time>2019-04-17T17:14:49Z</time>
      </trkpt>
      <trkpt lat="45.88455" lon="4.12244">
        <ele>385</ele>
        <time>2019-04-17T17:15:49Z</time>
      </trkpt>
      <trkpt lat="45.88525" lon="4.12373">
        <ele>393</ele>
        <time>2019-04-17T17:16:49Z</time>
      </trkpt>
      <trkpt lat="45.88549" lon="4.12412">
        <ele>394</ele>
        <time>2019-04-17T17:17:49Z</time>
      </trkpt>
      <trkpt lat="45.8857" lon="4.12441">
        <ele>395</ele>
        <time>2019-04-17T17:18:49Z</time>
      </trkpt>
      <trkpt lat="45.88593" lon="4.12462">
        <ele>395</ele>
        <time>2019-04-17T17:19:49Z</time>
      </trkpt>
      <trkpt lat="45.88649" lon="4.12505">
        <ele>396</ele>
        <time>2019-04-17T17:20:49Z</time>
      </trkpt>
      <trkpt lat="45.8866" lon="4.12518">
        <ele>396</ele>
        <time>2019-04-17T17:21:49Z</time>
      </trkpt>
      <trkpt lat="45.88666" lon="4.12533">
        <ele>397</ele>
        <time>2019-04-17T17:22:49Z</time>
      </trkpt>
      <trkpt lat="45.88669" lon="4.12546">
        <ele>397</ele>
        <time>2019-04-17T17:23:49Z</time>
      </trkpt>
      <trkpt lat="45.8867" lon="4.12567">
        <ele>398</ele>
        <time>2019-04-17T17:24:49Z</time>
      </trkpt>
      <trkpt lat="45.88668" lon="4.12587">
        <ele>399</ele>
        <time>2019-04-17T17:25:49Z</time>
      </trkpt>
      <trkpt lat="45.88663" lon="4.12609">
        <ele>401</ele>
        <time>2019-04-17T17:26:49Z</time>
      </trkpt>
      <trkpt lat="45.88652" lon="4.12619">
        <ele>403</ele>
        <time>2019-04-17T17:27:49Z</time>
      </trkpt>
      <trkpt lat="45.88639" lon="4.12624">
        <ele>404</ele>
        <time>2019-04-17T17:28:49Z</time>
      </trkpt>
      <trkpt lat="45.88627" lon="4.12621">
        <ele>404</ele>
        <time>2019-04-17T17:29:49Z</time>
      </trkpt>
      <trkpt lat="45.88528" lon="4.12565">
        <ele>404</ele>
        <time>2019-04-17T17:30:49Z</time>
      </trkpt>
      <trkpt lat="45.88504" lon="4.12561">
        <ele>406</ele>
        <time>2019-04-17T17:31:49Z</time>
      </trkpt>
      <trkpt lat="45.88463" lon="4.12566">
        <ele>407</ele>
        <time>2019-04-17T17:32:49Z</time>
      </trkpt>
      <trkpt lat="45.8843" lon="4.12574">
        <ele>407</ele>
        <time>2019-04-17T17:33:49Z</time>
      </trkpt>
      <trkpt lat="45.88391" lon="4.12595">
        <ele>409</ele>
        <time>2019-04-17T17:34:49Z</time>
      </trkpt>
      <trkpt lat="45.88265" lon="4.12705">
        <ele>409</ele>
        <time>2019-04-17T17:35:49Z</time>
      </trkpt>
      <trkpt lat="45.88258" lon="4.12717">
        <ele>408</ele>
        <time>2019-04-17T17:36:49Z</time>
      </trkpt>
      <trkpt lat="45.88255" lon="4.12727">
        <ele>408</ele>
        <time>2019-04-17T17:37:49Z</time>
      </trkpt>
      <trkpt lat="45.88253" lon="4.12742">
        <ele>408</ele>
        <time>2019-04-17T17:38:49Z</time>
      </trkpt>
      <trkpt lat="45.88265" lon="4.12835">
        <ele>410</ele>
        <time>2019-04-17T17:39:49Z</time>
      </trkpt>
      <trkpt lat="45.88267" lon="4.12868">
        <ele>411</ele>
        <time>2019-04-17T17:40:49Z</time>
      </trkpt>
      <trkpt lat="45.88261" lon="4.12973">
        <ele>412</ele>
        <time>2019-04-17T17:41:49Z</time>
      </trkpt>
      <trkpt lat="45.8826" lon="4.1305">
        <ele>413</ele>
        <time>2019-04-17T17:42:49Z</time>
      </trkpt>
      <trkpt lat="45.88257" lon="4.13081">
        <ele>413</ele>
        <time>2019-04-17T17:43:49Z</time>
      </trkpt>
      <trkpt lat="45.88252" lon="4.13096">
        <ele>413</ele>
        <time>2019-04-17T17:44:49Z</time>
      </trkpt>
      <trkpt lat="45.88243" lon="4.13113">
        <ele>413</ele>
        <time>2019-04-17T17:45:49Z</time>
      </trkpt>
      <trkpt lat="45.88232" lon="4.13123">
        <ele>413</ele>
        <time>2019-04-17T17:46:49Z</time>
      </trkpt>
      <trkpt lat="45.88199" lon="4.13138">
        <ele>414</ele>
        <time>2019-04-17T17:47:49Z</time>
      </trkpt>
      <trkpt lat="45.88083" lon="4.13167">
        <ele>418</ele>
        <time>2019-04-17T17:48:49Z</time>
      </trkpt>
      <trkpt lat="45.88061" lon="4.13178">
        <ele>418</ele>
        <time>2019-04-17T17:49:49Z</time>
      </trkpt>
      <trkpt lat="45.88074" lon="4.13256">
        <ele>420</ele>
        <time>2019-04-17T17:50:49Z</time>
      </trkpt>
      <trkpt lat="45.88084" lon="4.13285">
        <ele>421</ele>
        <time>2019-04-17T17:51:49Z</time>
      </trkpt>
      <trkpt lat="45.88127" lon="4.13323">
        <ele>422</ele>
        <time>2019-04-17T17:52:49Z</time>
      </trkpt>
      <trkpt lat="45.88183" lon="4.13377">
        <ele>422</ele>
        <time>2019-04-17T17:53:49Z</time>
      </trkpt>
      <trkpt lat="45.88205" lon="4.13404">
        <ele>422</ele>
        <time>2019-04-17T17:54:49Z</time>
      </trkpt>
      <trkpt lat="45.88221" lon="4.13427">
        <ele>422</ele>
        <time>2019-04-17T17:55:49Z</time>
      </trkpt>
      <trkpt lat="45.88235" lon="4.13453">
        <ele>423</ele>
        <time>2019-04-17T17:56:49Z</time>
      </trkpt>
      <trkpt lat="45.88253" lon="4.13504">
        <ele>426</ele>
        <time>2019-04-17T17:57:49Z</time>
      </trkpt>
      <trkpt lat="45.88287" lon="4.13593">
        <ele>427</ele>
        <time>2019-04-17T17:58:49Z</time>
      </trkpt>
      <trkpt lat="45.88311" lon="4.1365">
        <ele>428</ele>
        <time>2019-04-17T17:59:49Z</time>
      </trkpt>
      <trkpt lat="45.88333" lon="4.13696">
        <ele>429</ele>
        <time>2019-04-17T18:00:49Z</time>
      </trkpt>
      <trkpt lat="45.88357" lon="4.13732">
        <ele>429</ele>
        <time>2019-04-17T18:01:49Z</time>
      </trkpt>
      <trkpt lat="45.88392" lon="4.13774">
        <ele>430</ele>
        <time>2019-04-17T18:02:49Z</time>
      </trkpt>
      <trkpt lat="45.88426" lon="4.13806">
        <ele>431</ele>
        <time>2019-04-17T18:03:49Z</time>
      </trkpt>
      <trkpt lat="45.8854" lon="4.13904">
        <ele>435</ele>
        <time>2019-04-17T18:04:49Z</time>
      </trkpt>
      <trkpt lat="45.88557" lon="4.1392">
        <ele>435</ele>
        <time>2019-04-17T18:05:49Z</time>
      </trkpt>
      <trkpt lat="45.8859" lon="4.13975">
        <ele>436</ele>
        <time>2019-04-17T18:06:49Z</time>
      </trkpt>
      <trkpt lat="45.88625" lon="4.14048">
        <ele>437</ele>
        <time>2019-04-17T18:07:49Z</time>
      </trkpt>
      <trkpt lat="45.88657" lon="4.14125">
        <ele>438</ele>
        <time>2019-04-17T18:08:49Z</time>
      </trkpt>
      <trkpt lat="45.88677" lon="4.14149">
        <ele>438</ele>
        <time>2019-04-17T18:09:49Z</time>
      </trkpt>
      <trkpt lat="45.887" lon="4.14169">
        <ele>438</ele>
        <time>2019-04-17T18:10:49Z</time>
      </trkpt>
      <trkpt lat="45.88766" lon="4.14201">
        <ele>439</ele>
        <time>2019-04-17T18:11:49Z</time>
      </trkpt>
      <trkpt lat="45.88788" lon="4.14215">
        <ele>440</ele>
        <time>2019-04-17T18:12:49Z</time>
      </trkpt>
      <trkpt lat="45.88805" lon="4.14233">
        <ele>440</ele>
        <time>2019-04-17T18:13:49Z</time>
      </trkpt>
      <trkpt lat="45.88853" lon="4.14296">
        <ele>443</ele>
        <time>2019-04-17T18:14:49Z</time>
      </trkpt>
      <trkpt lat="45.88887" lon="4.14344">
        <ele>446</ele>
        <time>2019-04-17T18:15:49Z</time>
      </trkpt>
      <trkpt lat="45.88922" lon="4.14413">
        <ele>449</ele>
        <time>2019-04-17T18:16:49Z</time>
      </trkpt>
      <trkpt lat="45.88941" lon="4.14428">
        <ele>449</ele>
        <time>2019-04-17T18:17:49Z</time>
      </trkpt>
      <trkpt lat="45.88974" lon="4.14444">
        <ele>450</ele>
        <time>2019-04-17T18:18:49Z</time>
      </trkpt>
      <trkpt lat="45.89015" lon="4.14454">
        <ele>451</ele>
        <time>2019-04-17T18:19:49Z</time>
      </trkpt>
      <trkpt lat="45.89118" lon="4.14494">
        <ele>456</ele>
        <time>2019-04-17T18:20:49Z</time>
      </trkpt>
      <trkpt lat="45.89163" lon="4.14505">
        <ele>460</ele>
        <time>2019-04-17T18:21:49Z</time>
      </trkpt>
      <trkpt lat="45.89217" lon="4.14513">
        <ele>462</ele>
        <time>2019-04-17T18:22:49Z</time>
      </trkpt>
      <trkpt lat="45.8923" lon="4.1452">
        <ele>463</ele>
        <time>2019-04-17T18:23:49Z</time>
      </trkpt>
      <trkpt lat="45.89315" lon="4.14593">
        <ele>466</ele>
        <time>2019-04-17T18:24:49Z</time>
      </trkpt>
      <trkpt lat="45.8941" lon="4.14712">
        <ele>473</ele>
        <time>2019-04-17T18:25:49Z</time>
      </trkpt>
      <trkpt lat="45.89426" lon="4.14735">
        <ele>474</ele>
        <time>2019-04-17T18:26:49Z</time>
      </trkpt>
      <trkpt lat="45.89444" lon="4.14771">
        <ele>476</ele>
        <time>2019-04-17T18:27:49Z</time>
      </trkpt>
      <trkpt lat="45.89509" lon="4.14923">
        <ele>480</ele>
        <time>2019-04-17T18:28:49Z</time>
      </trkpt>
      <trkpt lat="45.89536" lon="4.14992">
        <ele>483</ele>
        <time>2019-04-17T18:29:49Z</time>
      </trkpt>
      <trkpt lat="45.89559" lon="4.15028">
        <ele>483</ele>
        <time>2019-04-17T18:30:49Z</time>
      </trkpt>
      <trkpt lat="45.89581" lon="4.15054">
        <ele>482</ele>
        <time>2019-04-17T18:31:49Z</time>
      </trkpt>
      <trkpt lat="45.89626" lon="4.1509">
        <ele>486</ele>
        <time>2019-04-17T18:32:49Z</time>
      </trkpt>
      <trkpt lat="45.89641" lon="4.15116">
        <ele>487</ele>
        <time>2019-04-17T18:33:49Z</time>
      </trkpt>
      <trkpt lat="45.89647" lon="4.15142">
        <ele>488</ele>
        <time>2019-04-17T18:34:49Z</time>
      </trkpt>
      <trkpt lat="45.89647" lon="4.15237">
        <ele>490</ele>
        <time>2019-04-17T18:35:49Z</time>
      </trkpt>
      <trkpt lat="45.8966" lon="4.1528">
        <ele>491</ele>
        <time>2019-04-17T18:36:49Z</time>
      </trkpt>
      <trkpt lat="45.89689" lon="4.15314">
        <ele>493</ele>
        <time>2019-04-17T18:37:49Z</time>
      </trkpt>
      <trkpt lat="45.89707" lon="4.15326">
        <ele>494</ele>
        <time>2019-04-17T18:38:49Z</time>
      </trkpt>
      <trkpt lat="45.89734" lon="4.1533">
        <ele>495</ele>
        <time>2019-04-17T18:39:49Z</time>
      </trkpt>
      <trkpt lat="45.8978" lon="4.15328">
        <ele>498</ele>
        <time>2019-04-17T18:40:49Z</time>
      </trkpt>
      <trkpt lat="45.89852" lon="4.15317">
        <ele>502</ele>
        <time>2019-04-17T18:41:49Z</time>
      </trkpt>
      <trkpt lat="45.89878" lon="4.15321">
        <ele>503</ele>
        <time>2019-04-17T18:42:49Z</time>
      </trkpt>
      <trkpt lat="45.89901" lon="4.15331">
        <ele>504</ele>
        <time>2019-04-17T18:43:49Z</time>
      </trkpt>
      <trkpt lat="45.89917" lon="4.15359">
        <ele>504</ele>
        <time>2019-04-17T18:44:49Z</time>
      </trkpt>
      <trkpt lat="45.89933" lon="4.15401">
        <ele>503</ele>
        <time>2019-04-17T18:45:49Z</time>
      </trkpt>
      <trkpt lat="45.89955" lon="4.15448">
        <ele>503</ele>
        <time>2019-04-17T18:46:49Z</time>
      </trkpt>
      <trkpt lat="45.89979" lon="4.15495">
        <ele>503</ele>
        <time>2019-04-17T18:47:49Z</time>
      </trkpt>
      <trkpt lat="45.90007" lon="4.15532">
        <ele>503</ele>
        <time>2019-04-17T18:48:49Z</time>
      </trkpt>
      <trkpt lat="45.9004" lon="4.15555">
        <ele>502</ele>
        <time>2019-04-17T18:49:49Z</time>
      </trkpt>
      <trkpt lat="45.90111" lon="4.15583">
        <ele>502</ele>
        <time>2019-04-17T18:50:49Z</time>
      </trkpt>
      <trkpt lat="45.90134" lon="4.15602">
        <ele>503</ele>
        <time>2019-04-17T18:51:49Z</time>
      </trkpt>
      <trkpt lat="45.90158" lon="4.15637">
        <ele>503</ele>
        <time>2019-04-17T18:52:49Z</time>
      </trkpt>
      <trkpt lat="45.90174" lon="4.1568">
        <ele>503</ele>
        <time>2019-04-17T18:53:49Z</time>
      </trkpt>
      <trkpt lat="45.90177" lon="4.15727">
        <ele>502</ele>
        <time>2019-04-17T18:54:49Z</time>
      </trkpt>
      <trkpt lat="45.90179" lon="4.15791">
        <ele>500</ele>
        <time>2019-04-17T18:55:49Z</time>
      </trkpt>
      <trkpt lat="45.90189" lon="4.15841">
        <ele>498</ele>
        <time>2019-04-17T18:56:49Z</time>
      </trkpt>
      <trkpt lat="45.90207" lon="4.15886">
        <ele>497</ele>
        <time>2019-04-17T18:57:49Z</time>
      </trkpt>
      <trkpt lat="45.904" lon="4.16266">
        <ele>504</ele>
        <time>2019-04-17T18:58:49Z</time>
      </trkpt>
      <trkpt lat="45.90416" lon="4.16306">
        <ele>505</ele>
        <time>2019-04-17T18:59:49Z</time>
      </trkpt>
      <trkpt lat="45.90431" lon="4.16358">
        <ele>506</ele>
        <time>2019-04-17T19:00:49Z</time>
      </trkpt>
      <trkpt lat="45.90493" lon="4.16613">
        <ele>509</ele>
        <time>2019-04-17T19:01:49Z</time>
      </trkpt>
      <trkpt lat="45.90509" lon="4.16647">
        <ele>509</ele>
        <time>2019-04-17T19:02:49Z</time>
      </trkpt>
      <trkpt lat="45.90524" lon="4.16668">
        <ele>509</ele>
        <time>2019-04-17T19:03:49Z</time>
      </trkpt>
      <trkpt lat="45.90564" lon="4.16705">
        <ele>510</ele>
        <time>2019-04-17T19:04:49Z</time>
      </trkpt>
      <trkpt lat="45.90588" lon="4.16733">
        <ele>511</ele>
        <time>2019-04-17T19:05:49Z</time>
      </trkpt>
      <trkpt lat="45.906" lon="4.1675">
        <ele>511</ele>
        <time>2019-04-17T19:06:49Z</time>
      </trkpt>
      <trkpt lat="45.9061" lon="4.16777">
        <ele>512</ele>
        <time>2019-04-17T19:07:49Z</time>
      </trkpt>
      <trkpt lat="45.90615" lon="4.16802">
        <ele>513</ele>
        <time>2019-04-17T19:08:49Z</time>
      </trkpt>
      <trkpt lat="45.90618" lon="4.16836">
        <ele>514</ele>
        <time>2019-04-17T19:09:49Z</time>
      </trkpt>
      <trkpt lat="45.90615" lon="4.16955">
        <ele>520</ele>
        <time>2019-04-17T19:10:49Z</time>
      </trkpt>
      <trkpt lat="45.90611" lon="4.16982">
        <ele>522</ele>
        <time>2019-04-17T19:11:49Z</time>
      </trkpt>
      <trkpt lat="45.906" lon="4.17011">
        <ele>524</ele>
        <time>2019-04-17T19:12:49Z</time>
      </trkpt>
      <trkpt lat="45.90588" lon="4.17034">
        <ele>526</ele>
        <time>2019-04-17T19:13:49Z</time>
      </trkpt>
      <trkpt lat="45.90565" lon="4.17056">
        <ele>528</ele>
        <time>2019-04-17T19:14:49Z</time>
      </trkpt>
      <trkpt lat="45.90381" lon="4.17185">
        <ele>533</ele>
        <time>2019-04-17T19:15:49Z</time>
      </trkpt>
      <trkpt lat="45.90345" lon="4.17212">
        <ele>533</ele>
        <time>2019-04-17T19:16:49Z</time>
      </trkpt>
      <trkpt lat="45.90329" lon="4.1723">
        <ele>533</ele>
        <time>2019-04-17T19:17:49Z</time>
      </trkpt>
      <trkpt lat="45.90323" lon="4.17258">
        <ele>534</ele>
        <time>2019-04-17T19:18:49Z</time>
      </trkpt>
      <trkpt lat="45.90324" lon="4.17283">
        <ele>533</ele>
        <time>2019-04-17T19:19:49Z</time>
      </trkpt>
      <trkpt lat="45.90334" lon="4.17305">
        <ele>533</ele>
        <time>2019-04-17T19:20:49Z</time>
      </trkpt>
      <trkpt lat="45.90353" lon="4.17331">
        <ele>535</ele>
        <time>2019-04-17T19:21:49Z</time>
      </trkpt>
      <trkpt lat="45.90383" lon="4.17364">
        <ele>536</ele>
        <time>2019-04-17T19:22:49Z</time>
      </trkpt>
      <trkpt lat="45.90397" lon="4.17383">
        <ele>537</ele>
        <time>2019-04-17T19:23:49Z</time>
      </trkpt>
      <trkpt lat="45.9041" lon="4.17427">
        <ele>537</ele>
        <time>2019-04-17T19:24:49Z</time>
      </trkpt>
      <trkpt lat="45.90413" lon="4.1746">
        <ele>536</ele>
        <time>2019-04-17T19:25:49Z</time>
      </trkpt>
      <trkpt lat="45.90422" lon="4.17481">
        <ele>536</ele>
        <time>2019-04-17T19:26:49Z</time>
      </trkpt>
      <trkpt lat="45.9044" lon="4.17506">
        <ele>536</ele>
        <time>2019-04-17T19:27:49Z</time>
      </trkpt>
      <trkpt lat="45.90464" lon="4.17533">
        <ele>537</ele>
        <time>2019-04-17T19:28:49Z</time>
      </trkpt>
      <trkpt lat="45.90475" lon="4.17551">
        <ele>537</ele>
        <time>2019-04-17T19:29:49Z</time>
      </trkpt>
      <trkpt lat="45.90477" lon="4.17572">
        <ele>537</ele>
        <time>2019-04-17T19:30:49Z</time>
      </trkpt>
      <trkpt lat="45.90474" lon="4.1759">
        <ele>537</ele>
        <time>2019-04-17T19:31:49Z</time>
      </trkpt>
      <trkpt lat="45.90429" lon="4.17687">
        <ele>538</ele>
        <time>2019-04-17T19:32:49Z</time>
      </trkpt>
      <trkpt lat="45.90386" lon="4.17768">
        <ele>541</ele>
        <time>2019-04-17T19:33:49Z</time>
      </trkpt>
      <trkpt lat="45.9034" lon="4.17861">
        <ele>546</ele>
        <time>2019-04-17T19:34:49Z</time>
      </trkpt>
      <trkpt lat="45.90267" lon="4.17985">
        <ele>552</ele>
        <time>2019-04-17T19:35:49Z</time>
      </trkpt>
      <trkpt lat="45.90262" lon="4.18">
        <ele>553</ele>
        <time>2019-04-17T19:36:49Z</time>
      </trkpt>
      <trkpt lat="45.90268" lon="4.18015">
        <ele>553</ele>
        <time>2019-04-17T19:37:49Z</time>
      </trkpt>
      <trkpt lat="45.9022" lon="4.18068">
        <ele>554</ele>
        <time>2019-04-17T19:38:49Z</time>
      </trkpt>
      <trkpt lat="45.90221" lon="4.18087">
        <ele>554</ele>
        <time>2019-04-17T19:39:49Z</time>
      </trkpt>
      <trkpt lat="45.90219" lon="4.18168">
        <ele>553</ele>
        <time>2019-04-17T19:40:49Z</time>
      </trkpt>
      <trkpt lat="45.90211" lon="4.18266">
        <ele>552</ele>
        <time>2019-04-17T19:41:49Z</time>
      </trkpt>
      <trkpt lat="45.90201" lon="4.18352">
        <ele>553</ele>
        <time>2019-04-17T19:42:49Z</time>
      </trkpt>
      <trkpt lat="45.90179" lon="4.18441">
        <ele>553</ele>
        <time>2019-04-17T19:43:49Z</time>
      </trkpt>
      <trkpt lat="45.90167" lon="4.18504">
        <ele>552</ele>
        <time>2019-04-17T19:44:49Z</time>
      </trkpt>
      <trkpt lat="45.90166" lon="4.1856">
        <ele>551</ele>
        <time>2019-04-17T19:45:49Z</time>
      </trkpt>
      <trkpt lat="45.90174" lon="4.18621">
        <ele>552</ele>
        <time>2019-04-17T19:46:49Z</time>
      </trkpt>
      <trkpt lat="45.90188" lon="4.18677">
        <ele>552</ele>
        <time>2019-04-17T19:47:49Z</time>
      </trkpt>
      <trkpt lat="45.90204" lon="4.18774">
        <ele>551</ele>
        <time>2019-04-17T19:48:49Z</time>
      </trkpt>
      <trkpt lat="45.90207" lon="4.18885">
        <ele>544</ele>
        <time>2019-04-17T19:49:49Z</time>
      </trkpt>
      <trkpt lat="45.90193" lon="4.18996">
        <ele>541</ele>
        <time>2019-04-17T19:50:49Z</time>
      </trkpt>
      <trkpt lat="45.90156" lon="4.19147">
        <ele>531</ele>
        <time>2019-04-17T19:51:49Z</time>
      </trkpt>
      <trkpt lat="45.90142" lon="4.19214">
        <ele>526</ele>
        <time>2019-04-17T19:52:49Z</time>
      </trkpt>
      <trkpt lat="45.90132" lon="4.19283">
        <ele>521</ele>
        <time>2019-04-17T19:53:49Z</time>
      </trkpt>
      <trkpt lat="45.90131" lon="4.19331">
        <ele>519</ele>
        <time>2019-04-17T19:54:49Z</time>
      </trkpt>
      <trkpt lat="45.90135" lon="4.19397">
        <ele>517</ele>
        <time>2019-04-17T19:55:49Z</time>
      </trkpt>
      <trkpt lat="45.90153" lon="4.19526">
        <ele>515</ele>
        <time>2019-04-17T19:56:49Z</time>
      </trkpt>
      <trkpt lat="45.90177" lon="4.19663">
        <ele>514</ele>
        <time>2019-04-17T19:57:49Z</time>
      </trkpt>
      <trkpt lat="45.90183" lon="4.19762">
        <ele>515</ele>
        <time>2019-04-17T19:58:49Z</time>
      </trkpt>
      <trkpt lat="45.90191" lon="4.20202">
        <ele>532</ele>
        <time>2019-04-17T19:59:49Z</time>
      </trkpt>
      <trkpt lat="45.90195" lon="4.20381">
        <ele>531</ele>
        <time>2019-04-17T20:00:49Z</time>
      </trkpt>
      <trkpt lat="45.90207" lon="4.20454">
        <ele>534</ele>
        <time>2019-04-17T20:01:49Z</time>
      </trkpt>
      <trkpt lat="45.90228" lon="4.20514">
        <ele>534</ele>
        <time>2019-04-17T20:02:49Z</time>
      </trkpt>
      <trkpt lat="45.90376" lon="4.20762">
        <ele>527</ele>
        <time>2019-04-17T20:03:49Z</time>
      </trkpt>
      <trkpt lat="45.90428" lon="4.20854">
        <ele>534</ele>
        <time>2019-04-17T20:04:49Z</time>
      </trkpt>
      <trkpt lat="45.90453" lon="4.20918">
        <ele>536</ele>
        <time>2019-04-17T20:05:49Z</time>
      </trkpt>
      <trkpt lat="45.90462" lon="4.21001">
        <ele>531</ele>
        <time>2019-04-17T20:06:49Z</time>
      </trkpt>
      <trkpt lat="45.90464" lon="4.21039">
        <ele>531</ele>
        <time>2019-04-17T20:07:49Z</time>
      </trkpt>
      <trkpt lat="45.90453" lon="4.21309">
        <ele>533</ele>
        <time>2019-04-17T20:08:49Z</time>
      </trkpt>
      <trkpt lat="45.9046" lon="4.21377">
        <ele>535</ele>
        <time>2019-04-17T20:09:49Z</time>
      </trkpt>
      <trkpt lat="45.90477" lon="4.21417">
        <ele>535</ele>
        <time>2019-04-17T20:10:49Z</time>
      </trkpt>
      <trkpt lat="45.90507" lon="4.21451">
        <ele>532</ele>
        <time>2019-04-17T20:11:49Z</time>
      </trkpt>
      <trkpt lat="45.90557" lon="4.21484">
        <ele>530</ele>
        <time>2019-04-17T20:12:49Z</time>
      </trkpt>
      <trkpt lat="45.90629" lon="4.21517">
        <ele>530</ele>
        <time>2019-04-17T20:13:49Z</time>
      </trkpt>
      <trkpt lat="45.90669" lon="4.21553">
        <ele>531</ele>
        <time>2019-04-17T20:14:49Z</time>
      </trkpt>
      <trkpt lat="45.90711" lon="4.2162">
        <ele>530</ele>
        <time>2019-04-17T20:15:49Z</time>
      </trkpt>
      <trkpt lat="45.90782" lon="4.21739">
        <ele>526</ele>
        <time>2019-04-17T20:16:49Z</time>
      </trkpt>
      <trkpt lat="45.90798" lon="4.21799">
        <ele>524</ele>
        <time>2019-04-17T20:17:49Z</time>
      </trkpt>
      <trkpt lat="45.90806" lon="4.21853">
        <ele>522</ele>
        <time>2019-04-17T20:18:49Z</time>
      </trkpt>
      <trkpt lat="45.90807" lon="4.21879">
        <ele>522</ele>
        <time>2019-04-17T20:19:49Z</time>
      </trkpt>
      <trkpt lat="45.90806" lon="4.2192">
        <ele>521</ele>
        <time>2019-04-17T20:20:49Z</time>
      </trkpt>
      <trkpt lat="45.90799" lon="4.21976">
        <ele>518</ele>
        <time>2019-04-17T20:21:49Z</time>
      </trkpt>
      <trkpt lat="45.90791" lon="4.22005">
        <ele>518</ele>
        <time>2019-04-17T20:22:49Z</time>
      </trkpt>
      <trkpt lat="45.9078" lon="4.22041">
        <ele>518</ele>
        <time>2019-04-17T20:23:49Z</time>
      </trkpt>
      <trkpt lat="45.90766" lon="4.22072">
        <ele>519</ele>
        <time>2019-04-17T20:24:49Z</time>
      </trkpt>
      <trkpt lat="45.90645" lon="4.2222">
        <ele>525</ele>
        <time>2019-04-17T20:25:49Z</time>
      </trkpt>
      <trkpt lat="45.906" lon="4.22266">
        <ele>527</ele>
        <time>2019-04-17T20:26:49Z</time>
      </trkpt>
      <trkpt lat="45.90582" lon="4.22275">
        <ele>528</ele>
        <time>2019-04-17T20:27:49Z</time>
      </trkpt>
      <trkpt lat="45.90565" lon="4.22281">
        <ele>529</ele>
        <time>2019-04-17T20:28:49Z</time>
      </trkpt>
      <trkpt lat="45.90418" lon="4.22292">
        <ele>535</ele>
        <time>2019-04-17T20:29:49Z</time>
      </trkpt>
      <trkpt lat="45.90392" lon="4.22298">
        <ele>535</ele>
        <time>2019-04-17T20:30:49Z</time>
      </trkpt>
      <trkpt lat="45.90358" lon="4.22314">
        <ele>536</ele>
        <time>2019-04-17T20:31:49Z</time>
      </trkpt>
      <trkpt lat="45.90333" lon="4.22333">
        <ele>538</ele>
        <time>2019-04-17T20:32:49Z</time>
      </trkpt>
      <trkpt lat="45.90298" lon="4.22367">
        <ele>540</ele>
        <time>2019-04-17T20:33:49Z</time>
      </trkpt>
      <trkpt lat="45.90219" lon="4.22483">
        <ele>542</ele>
        <time>2019-04-17T20:34:49Z</time>
      </trkpt>
      <trkpt lat="45.90198" lon="4.22504">
        <ele>542</ele>
        <time>2019-04-17T20:35:49Z</time>
      </trkpt>
      <trkpt lat="45.90173" lon="4.22523">
        <ele>541</ele>
        <time>2019-04-17T20:36:49Z</time>
      </trkpt>
      <trkpt lat="45.90143" lon="4.22539">
        <ele>540</ele>
        <time>2019-04-17T20:37:49Z</time>
      </trkpt>
      <trkpt lat="45.89941" lon="4.22621">
        <ele>545</ele>
        <time>2019-04-17T20:38:49Z</time>
      </trkpt>
      <trkpt lat="45.89882" lon="4.22678">
        <ele>547</ele>
        <time>2019-04-17T20:39:49Z</time>
      </trkpt>
      <trkpt lat="45.8984" lon="4.2283">
        <ele>553</ele>
        <time>2019-04-17T20:40:49Z</time>
      </trkpt>
      <trkpt lat="45.89817" lon="4.22882">
        <ele>554</ele>
        <time>2019-04-17T20:41:49Z</time>
      </trkpt>
      <trkpt lat="45.89634" lon="4.23047">
        <ele>558</ele>
        <time>2019-04-17T20:42:49Z</time>
      </trkpt>
      <trkpt lat="45.89539" lon="4.23118">
        <ele>559</ele>
        <time>2019-04-17T20:43:49Z</time>
      </trkpt>
      <trkpt lat="45.89384" lon="4.23242">
        <ele>562</ele>
        <time>2019-04-17T20:44:49Z</time>
      </trkpt>
      <trkpt lat="45.89363" lon="4.23256">
        <ele>563</ele>
        <time>2019-04-17T20:45:49Z</time>
      </trkpt>
      <trkpt lat="45.89341" lon="4.23266">
        <ele>564</ele>
        <time>2019-04-17T20:46:49Z</time>
      </trkpt>
      <trkpt lat="45.89238" lon="4.23286">
        <ele>563</ele>
        <time>2019-04-17T20:47:49Z</time>
      </trkpt>
      <trkpt lat="45.89218" lon="4.23294">
        <ele>562</ele>
        <time>2019-04-17T20:48:49Z</time>
      </trkpt>
      <trkpt lat="45.89206" lon="4.23309">
        <ele>562</ele>
        <time>2019-04-17T20:49:49Z</time>
      </trkpt>
      <trkpt lat="45.89198" lon="4.23329">
        <ele>563</ele>
        <time>2019-04-17T20:50:49Z</time>
      </trkpt>
      <trkpt lat="45.89194" lon="4.23347">
        <ele>563</ele>
        <time>2019-04-17T20:51:49Z</time>
      </trkpt>
      <trkpt lat="45.89205" lon="4.23548">
        <ele>566</ele>
        <time>2019-04-17T20:52:49Z</time>
      </trkpt>
      <trkpt lat="45.89213" lon="4.23619">
        <ele>566</ele>
        <time>2019-04-17T20:53:49Z</time>
      </trkpt>
      <trkpt lat="45.89208" lon="4.23622">
        <ele>566</ele>
        <time>2019-04-17T20:54:49Z</time>
      </trkpt>
      <trkpt lat="45.89206" lon="4.23629">
        <ele>566</ele>
        <time>2019-04-17T20:55:49Z</time>
      </trkpt>
      <trkpt lat="45.89209" lon="4.23637">
        <ele>566</ele>
        <time>2019-04-17T20:56:49Z</time>
      </trkpt>
      <trkpt lat="45.89213" lon="4.23639">
        <ele>566</ele>
        <time>2019-04-17T20:57:49Z</time>
      </trkpt>
      <trkpt lat="45.89218" lon="4.23636">
        <ele>566</ele>
        <time>2019-04-17T20:58:49Z</time>
      </trkpt>
      <trkpt lat="45.89239" lon="4.23739">
        <ele>565</ele>
        <time>2019-04-17T20:59:49Z</time>
      </trkpt>
      <trkpt lat="45.89258" lon="4.23839">
        <ele>566</ele>
        <time>2019-04-17T21:00:49Z</time>
      </trkpt>
      <trkpt lat="45.893" lon="4.23985">
        <ele>567</ele>
        <time>2019-04-17T21:01:49Z</time>
      </trkpt>
      <trkpt lat="45.8932" lon="4.24047">
        <ele>569</ele>
        <time>2019-04-17T21:02:49Z</time>
      </trkpt>
      <trkpt lat="45.89322" lon="4.24075">
        <ele>570</ele>
        <time>2019-04-17T21:03:49Z</time>
      </trkpt>
      <trkpt lat="45.89319" lon="4.24116">
        <ele>570</ele>
        <time>2019-04-17T21:04:49Z</time>
      </trkpt>
      <trkpt lat="45.89295" lon="4.24162">
        <ele>569</ele>
        <time>2019-04-17T21:05:49Z</time>
      </trkpt>
      <trkpt lat="45.89286" lon="4.24171">
        <ele>569</ele>
        <time>2019-04-17T21:06:49Z</time>
      </trkpt>
      <trkpt lat="45.89117" lon="4.24275">
        <ele>556</ele>
        <time>2019-04-17T21:07:49Z</time>
      </trkpt>
      <trkpt lat="45.89086" lon="4.24297">
        <ele>554</ele>
        <time>2019-04-17T21:08:49Z</time>
      </trkpt>
      <trkpt lat="45.89037" lon="4.24344">
        <ele>550</ele>
        <time>2019-04-17T21:09:49Z</time>
      </trkpt>
      <trkpt lat="45.88983" lon="4.24404">
        <ele>546</ele>
        <time>2019-04-17T21:10:49Z</time>
      </trkpt>
      <trkpt lat="45.88956" lon="4.2444">
        <ele>543</ele>
        <time>2019-04-17T21:11:49Z</time>
      </trkpt>
      <trkpt lat="45.88935" lon="4.24486">
        <ele>540</ele>
        <time>2019-04-17T21:12:49Z</time>
      </trkpt>
      <trkpt lat="45.88923" lon="4.24501">
        <ele>540</ele>
        <time>2019-04-17T21:13:49Z</time>
      </trkpt>
      <trkpt lat="45.88898" lon="4.24512">
        <ele>540</ele>
        <time>2019-04-17T21:14:49Z</time>
      </trkpt>
      <trkpt lat="45.88879" lon="4.24515">
        <ele>539</ele>
        <time>2019-04-17T21:15:49Z</time>
      </trkpt>
      <trkpt lat="45.88857" lon="4.24531">
        <ele>538</ele>
        <time>2019-04-17T21:16:49Z</time>
      </trkpt>
      <trkpt lat="45.88849" lon="4.24561">
        <ele>536</ele>
        <time>2019-04-17T21:17:49Z</time>
      </trkpt>
      <trkpt lat="45.88853" lon="4.24589">
        <ele>535</ele>
        <time>2019-04-17T21:18:49Z</time>
      </trkpt>
      <trkpt lat="45.88869" lon="4.24607">
        <ele>534</ele>
        <time>2019-04-17T21:19:49Z</time>
      </trkpt>
      <trkpt lat="45.88889" lon="4.24605">
        <ele>533</ele>
        <time>2019-04-17T21:20:49Z</time>
      </trkpt>
      <trkpt lat="45.8901" lon="4.24502">
        <ele>532</ele>
        <time>2019-04-17T21:21:49Z</time>
      </trkpt>
      <trkpt lat="45.89024" lon="4.24501">
        <ele>533</ele>
        <time>2019-04-17T21:22:49Z</time>
      </trkpt>
      <trkpt lat="45.89032" lon="4.24506">
        <ele>533</ele>
        <time>2019-04-17T21:23:49Z</time>
      </trkpt>
      <trkpt lat="45.89036" lon="4.24516">
        <ele>533</ele>
        <time>2019-04-17T21:24:49Z</time>
      </trkpt>
      <trkpt lat="45.89036" lon="4.24533">
        <ele>532</ele>
        <time>2019-04-17T21:25:49Z</time>
      </trkpt>
      <trkpt lat="45.8903" lon="4.24549">
        <ele>531</ele>
        <time>2019-04-17T21:26:49Z</time>
      </trkpt>
      <trkpt lat="45.88981" lon="4.24624">
        <ele>528</ele>
        <time>2019-04-17T21:27:49Z</time>
      </trkpt>
      <trkpt lat="45.88962" lon="4.24679">
        <ele>527</ele>
        <time>2019-04-17T21:28:49Z</time>
      </trkpt>
      <trkpt lat="45.8895" lon="4.24705">
        <ele>526</ele>
        <time>2019-04-17T21:29:49Z</time>
      </trkpt>
      <trkpt lat="45.88951" lon="4.24735">
        <ele>524</ele>
        <time>2019-04-17T21:30:49Z</time>
      </trkpt>
      <trkpt lat="45.88956" lon="4.24782">
        <ele>523</ele>
        <time>2019-04-17T21:31:49Z</time>
      </trkpt>
      <trkpt lat="45.8897" lon="4.24842">
        <ele>521</ele>
        <time>2019-04-17T21:32:49Z</time>
      </trkpt>
      <trkpt lat="45.88961" lon="4.24918">
        <ele>517</ele>
        <time>2019-04-17T21:33:49Z</time>
      </trkpt>
      <trkpt lat="45.88927" lon="4.25049">
        <ele>510</ele>
        <time>2019-04-17T21:34:49Z</time>
      </trkpt>
      <trkpt lat="45.88923" lon="4.25108">
        <ele>509</ele>
        <time>2019-04-17T21:35:49Z</time>
      </trkpt>
      <trkpt lat="45.88941" lon="4.25298">
        <ele>500</ele>
        <time>2019-04-17T21:36:49Z</time>
      </trkpt>
      <trkpt lat="45.88946" lon="4.25328">
        <ele>498</ele>
        <time>2019-04-17T21:37:49Z</time>
      </trkpt>
      <trkpt lat="45.88957" lon="4.25357">
        <ele>496</ele>
        <time>2019-04-17T21:38:49Z</time>
      </trkpt>
      <trkpt lat="45.88986" lon="4.25393">
        <ele>493</ele>
        <time>2019-04-17T21:39:49Z</time>
      </trkpt>
      <trkpt lat="45.89048" lon="4.25424">
        <ele>491</ele>
        <time>2019-04-17T21:40:49Z</time>
      </trkpt>
      <trkpt lat="45.89148" lon="4.25434">
        <ele>489</ele>
        <time>2019-04-17T21:41:49Z</time>
      </trkpt>
      <trkpt lat="45.89272" lon="4.25431">
        <ele>485</ele>
        <time>2019-04-17T21:42:49Z</time>
      </trkpt>
      <trkpt lat="45.89401" lon="4.25411">
        <ele>479</ele>
        <time>2019-04-17T21:43:49Z</time>
      </trkpt>
      <trkpt lat="45.89491" lon="4.25375">
        <ele>476</ele>
        <time>2019-04-17T21:44:49Z</time>
      </trkpt>
      <trkpt lat="45.89507" lon="4.2538">
        <ele>475</ele>
        <time>2019-04-17T21:45:49Z</time>
      </trkpt>
      <trkpt lat="45.8952" lon="4.25396">
        <ele>474</ele>
        <time>2019-04-17T21:46:49Z</time>
      </trkpt>
      <trkpt lat="45.89529" lon="4.25413">
        <ele>473</ele>
        <time>2019-04-17T21:47:49Z</time>
      </trkpt>
      <trkpt lat="45.89543" lon="4.25564">
        <ele>473</ele>
        <time>2019-04-17T21:48:49Z</time>
      </trkpt>
      <trkpt lat="45.89564" lon="4.25692">
        <ele>482</ele>
        <time>2019-04-17T21:49:49Z</time>
      </trkpt>
      <trkpt lat="45.89573" lon="4.25722">
        <ele>483</ele>
        <time>2019-04-17T21:50:49Z</time>
      </trkpt>
      <trkpt lat="45.8959" lon="4.25767">
        <ele>484</ele>
        <time>2019-04-17T21:51:49Z</time>
      </trkpt>
      <trkpt lat="45.89612" lon="4.25874">
        <ele>487</ele>
        <time>2019-04-17T21:52:49Z</time>
      </trkpt>
      <trkpt lat="45.89628" lon="4.2593">
        <ele>490</ele>
        <time>2019-04-17T21:53:49Z</time>
      </trkpt>
      <trkpt lat="45.89637" lon="4.25956">
        <ele>491</ele>
        <time>2019-04-17T21:54:49Z</time>
      </trkpt>
      <trkpt lat="45.89649" lon="4.25979">
        <ele>490</ele>
        <time>2019-04-17T21:55:49Z</time>
      </trkpt>
      <trkpt lat="45.89683" lon="4.26025">
        <ele>488</ele>
        <time>2019-04-17T21:56:49Z</time>
      </trkpt>
      <trkpt lat="45.89712" lon="4.26059">
        <ele>490</ele>
        <time>2019-04-17T21:57:49Z</time>
      </trkpt>
      <trkpt lat="45.89752" lon="4.26115">
        <ele>489</ele>
        <time>2019-04-17T21:58:49Z</time>
      </trkpt>
      <trkpt lat="45.89815" lon="4.26183">
        <ele>490</ele>
        <time>2019-04-17T21:59:49Z</time>
      </trkpt>
      <trkpt lat="45.89832" lon="4.26204">
        <ele>491</ele>
        <time>2019-04-17T22:00:49Z</time>
      </trkpt>
      <trkpt lat="45.89842" lon="4.26222">
        <ele>492</ele>
        <time>2019-04-17T22:01:49Z</time>
      </trkpt>
      <trkpt lat="45.89874" lon="4.26267">
        <ele>496</ele>
        <time>2019-04-17T22:02:49Z</time>
      </trkpt>
      <trkpt lat="45.89907" lon="4.26328">
        <ele>498</ele>
        <time>2019-04-17T22:03:49Z</time>
      </trkpt>
      <trkpt lat="45.89957" lon="4.26428">
        <ele>502</ele>
        <time>2019-04-17T22:04:49Z</time>
      </trkpt>
      <trkpt lat="45.89971" lon="4.26449">
        <ele>503</ele>
        <time>2019-04-17T22:05:49Z</time>
      </trkpt>
      <trkpt lat="45.89991" lon="4.26469">
        <ele>504</ele>
        <time>2019-04-17T22:06:49Z</time>
      </trkpt>
      <trkpt lat="45.90023" lon="4.26486">
        <ele>506</ele>
        <time>2019-04-17T22:07:49Z</time>
      </trkpt>
      <trkpt lat="45.90058" lon="4.26497">
        <ele>506</ele>
        <time>2019-04-17T22:08:49Z</time>
      </trkpt>
      <trkpt lat="45.90125" lon="4.26505">
        <ele>507</ele>
        <time>2019-04-17T22:09:49Z</time>
      </trkpt>
      <trkpt lat="45.90161" lon="4.26513">
        <ele>507</ele>
        <time>2019-04-17T22:10:49Z</time>
      </trkpt>
      <trkpt lat="45.90181" lon="4.26524">
        <ele>508</ele>
        <time>2019-04-17T22:11:49Z</time>
      </trkpt>
      <trkpt lat="45.90199" lon="4.26541">
        <ele>510</ele>
        <time>2019-04-17T22:12:49Z</time>
      </trkpt>
      <trkpt lat="45.90214" lon="4.26565">
        <ele>512</ele>
        <time>2019-04-17T22:13:49Z</time>
      </trkpt>
      <trkpt lat="45.90225" lon="4.26592">
        <ele>513</ele>
        <time>2019-04-17T22:14:49Z</time>
      </trkpt>
      <trkpt lat="45.90242" lon="4.2665">
        <ele>515</ele>
        <time>2019-04-17T22:15:49Z</time>
      </trkpt>
      <trkpt lat="45.90254" lon="4.26679">
        <ele>515</ele>
        <time>2019-04-17T22:16:49Z</time>
      </trkpt>
      <trkpt lat="45.90271" lon="4.26703">
        <ele>517</ele>
        <time>2019-04-17T22:17:49Z</time>
      </trkpt>
      <trkpt lat="45.90324" lon="4.26765">
        <ele>522</ele>
        <time>2019-04-17T22:18:49Z</time>
      </trkpt>
      <trkpt lat="45.90389" lon="4.26835">
        <ele>526</ele>
        <time>2019-04-17T22:19:49Z</time>
      </trkpt>
      <trkpt lat="45.9044" lon="4.26886">
        <ele>529</ele>
        <time>2019-04-17T22:20:49Z</time>
      </trkpt>
      <trkpt lat="45.9048" lon="4.26922">
        <ele>531</ele>
        <time>2019-04-17T22:21:49Z</time>
      </trkpt>
      <trkpt lat="45.90543" lon="4.26964">
        <ele>534</ele>
        <time>2019-04-17T22:22:49Z</time>
      </trkpt>
      <trkpt lat="45.90648" lon="4.27016">
        <ele>538</ele>
        <time>2019-04-17T22:23:49Z</time>
      </trkpt>
      <trkpt lat="45.9074" lon="4.27111">
        <ele>544</ele>
        <time>2019-04-17T22:24:49Z</time>
      </trkpt>
      <trkpt lat="45.90827" lon="4.27167">
        <ele>550</ele>
        <time>2019-04-17T22:25:49Z</time>
      </trkpt>
      <trkpt lat="45.90841" lon="4.27181">
        <ele>552</ele>
        <time>2019-04-17T22:26:49Z</time>
      </trkpt>
      <trkpt lat="45.90878" lon="4.27257">
        <ele>556</ele>
        <time>2019-04-17T22:27:49Z</time>
      </trkpt>
      <trkpt lat="45.90896" lon="4.27316">
        <ele>557</ele>
        <time>2019-04-17T22:28:49Z</time>
      </trkpt>
      <trkpt lat="45.90907" lon="4.2734">
        <ele>557</ele>
        <time>2019-04-17T22:29:49Z</time>
      </trkpt>
      <trkpt lat="45.90931" lon="4.27382">
        <ele>558</ele>
        <time>2019-04-17T22:30:49Z</time>
      </trkpt>
      <trkpt lat="45.90944" lon="4.27411">
        <ele>556</ele>
        <time>2019-04-17T22:31:49Z</time>
      </trkpt>
      <trkpt lat="45.90958" lon="4.27446">
        <ele>553</ele>
        <time>2019-04-17T22:32:49Z</time>
      </trkpt>
      <trkpt lat="45.9097" lon="4.27494">
        <ele>549</ele>
        <time>2019-04-17T22:33:49Z</time>
      </trkpt>
      <trkpt lat="45.90991" lon="4.27664">
        <ele>545</ele>
        <time>2019-04-17T22:34:49Z</time>
      </trkpt>
      <trkpt lat="45.90986" lon="4.2772">
        <ele>541</ele>
        <time>2019-04-17T22:35:49Z</time>
      </trkpt>
      <trkpt lat="45.90976" lon="4.27757">
        <ele>539</ele>
        <time>2019-04-17T22:36:49Z</time>
      </trkpt>
      <trkpt lat="45.90962" lon="4.27787">
        <ele>538</ele>
        <time>2019-04-17T22:37:49Z</time>
      </trkpt>
      <trkpt lat="45.90895" lon="4.27898">
        <ele>534</ele>
        <time>2019-04-17T22:38:49Z</time>
      </trkpt>
      <trkpt lat="45.90871" lon="4.27943">
        <ele>532</ele>
        <time>2019-04-17T22:39:49Z</time>
      </trkpt>
      <trkpt lat="45.90864" lon="4.27967">
        <ele>531</ele>
        <time>2019-04-17T22:40:49Z</time>
      </trkpt>
      <trkpt lat="45.90862" lon="4.27983">
        <ele>531</ele>
        <time>2019-04-17T22:41:49Z</time>
      </trkpt>
      <trkpt lat="45.90863" lon="4.28001">
        <ele>530</ele>
        <time>2019-04-17T22:42:49Z</time>
      </trkpt>
      <trkpt lat="45.9087" lon="4.28015">
        <ele>531</ele>
        <time>2019-04-17T22:43:49Z</time>
      </trkpt>
      <trkpt lat="45.90889" lon="4.28029">
        <ele>531</ele>
        <time>2019-04-17T22:44:49Z</time>
      </trkpt>
      <trkpt lat="45.90913" lon="4.28027">
        <ele>529</ele>
        <time>2019-04-17T22:45:49Z</time>
      </trkpt>
      <trkpt lat="45.90961" lon="4.28">
        <ele>530</ele>
        <time>2019-04-17T22:46:49Z</time>
      </trkpt>
      <trkpt lat="45.90984" lon="4.27994">
        <ele>530</ele>
        <time>2019-04-17T22:47:49Z</time>
      </trkpt>
      <trkpt lat="45.91009" lon="4.27992">
        <ele>531</ele>
        <time>2019-04-17T22:48:49Z</time>
      </trkpt>
      <trkpt lat="45.91036" lon="4.27993">
        <ele>532</ele>
        <time>2019-04-17T22:49:49Z</time>
      </trkpt>
      <trkpt lat="45.91066" lon="4.27999">
        <ele>533</ele>
        <time>2019-04-17T22:50:49Z</time>
      </trkpt>
      <trkpt lat="45.91151" lon="4.28025">
        <ele>534</ele>
        <time>2019-04-17T22:51:49Z</time>
      </trkpt>
      <trkpt lat="45.91186" lon="4.28045">
        <ele>534</ele>
        <time>2019-04-17T22:52:49Z</time>
      </trkpt>
      <trkpt lat="45.9123" lon="4.28116">
        <ele>535</ele>
        <time>2019-04-17T22:53:49Z</time>
      </trkpt>
      <trkpt lat="45.91276" lon="4.28193">
        <ele>537</ele>
        <time>2019-04-17T22:54:49Z</time>
      </trkpt>
      <trkpt lat="45.91288" lon="4.28208">
        <ele>536</ele>
        <time>2019-04-17T22:55:49Z</time>
      </trkpt>
      <trkpt lat="45.91304" lon="4.28222">
        <ele>535</ele>
        <time>2019-04-17T22:56:49Z</time>
      </trkpt>
      <trkpt lat="45.91336" lon="4.28229">
        <ele>532</ele>
        <time>2019-04-17T22:57:49Z</time>
      </trkpt>
      <trkpt lat="45.9135" lon="4.28235">
        <ele>533</ele>
        <time>2019-04-17T22:58:49Z</time>
      </trkpt>
      <trkpt lat="45.91361" lon="4.28244">
        <ele>533</ele>
        <time>2019-04-17T22:59:49Z</time>
      </trkpt>
      <trkpt lat="45.91386" lon="4.28278">
        <ele>535</ele>
        <time>2019-04-17T23:00:49Z</time>
      </trkpt>
      <trkpt lat="45.91405" lon="4.28321">
        <ele>537</ele>
        <time>2019-04-17T23:01:49Z</time>
      </trkpt>
      <trkpt lat="45.9142" lon="4.28407">
        <ele>538</ele>
        <time>2019-04-17T23:02:49Z</time>
      </trkpt>
      <trkpt lat="45.91428" lon="4.28479">
        <ele>538</ele>
        <time>2019-04-17T23:03:49Z</time>
      </trkpt>
      <trkpt lat="45.91438" lon="4.28489">
        <ele>537</ele>
        <time>2019-04-17T23:04:49Z</time>
      </trkpt>
      <trkpt lat="45.91446" lon="4.28523">
        <ele>535</ele>
        <time>2019-04-17T23:05:49Z</time>
      </trkpt>
      <trkpt lat="45.9145" lon="4.28681">
        <ele>533</ele>
        <time>2019-04-17T23:06:49Z</time>
      </trkpt>
      <trkpt lat="45.91456" lon="4.28713">
        <ele>532</ele>
        <time>2019-04-17T23:07:49Z</time>
      </trkpt>
      <trkpt lat="45.91464" lon="4.2873">
        <ele>531</ele>
        <time>2019-04-17T23:08:49Z</time>
      </trkpt>
      <trkpt lat="45.91531" lon="4.2879">
        <ele>528</ele>
        <time>2019-04-17T23:09:49Z</time>
      </trkpt>
      <trkpt lat="45.91557" lon="4.28816">
        <ele>530</ele>
        <time>2019-04-17T23:10:49Z</time>
      </trkpt>
      <trkpt lat="45.91578" lon="4.28847">
        <ele>531</ele>
        <time>2019-04-17T23:11:49Z</time>
      </trkpt>
      <trkpt lat="45.91627" lon="4.28938">
        <ele>538</ele>
        <time>2019-04-17T23:12:49Z</time>
      </trkpt>
      <trkpt lat="45.91651" lon="4.28997">
        <ele>541</ele>
        <time>2019-04-17T23:13:49Z</time>
      </trkpt>
      <trkpt lat="45.91719" lon="4.29131">
        <ele>551</ele>
        <time>2019-04-17T23:14:49Z</time>
      </trkpt>
      <trkpt lat="45.91735" lon="4.29179">
        <ele>552</ele>
        <time>2019-04-17T23:15:49Z</time>
      </trkpt>
      <trkpt lat="45.91761" lon="4.29278">
        <ele>553</ele>
        <time>2019-04-17T23:16:49Z</time>
      </trkpt>
      <trkpt lat="45.91787" lon="4.29331">
        <ele>556</ele>
        <time>2019-04-17T23:17:49Z</time>
      </trkpt>
      <trkpt lat="45.91823" lon="4.2942">
        <ele>562</ele>
        <time>2019-04-17T23:18:49Z</time>
      </trkpt>
      <trkpt lat="45.91847" lon="4.29469">
        <ele>565</ele>
        <time>2019-04-17T23:19:49Z</time>
      </trkpt>
      <trkpt lat="45.91852" lon="4.29482">
        <ele>566</ele>
        <time>2019-04-17T23:20:49Z</time>
      </trkpt>
      <trkpt lat="45.91864" lon="4.29554">
        <ele>568</ele>
        <time>2019-04-17T23:21:49Z</time>
      </trkpt>
      <trkpt lat="45.91872" lon="4.29579">
        <ele>569</ele>
        <time>2019-04-17T23:22:49Z</time>
      </trkpt>
      <trkpt lat="45.91887" lon="4.29608">
        <ele>571</ele>
        <time>2019-04-17T23:23:49Z</time>
      </trkpt>
      <trkpt lat="45.91896" lon="4.29617">
        <ele>572</ele>
        <time>2019-04-17T23:24:49Z</time>
      </trkpt>
      <trkpt lat="45.91906" lon="4.29622">
        <ele>573</ele>
        <time>2019-04-17T23:25:49Z</time>
      </trkpt>
      <trkpt lat="45.91924" lon="4.29624">
        <ele>575</ele>
        <time>2019-04-17T23:26:49Z</time>
      </trkpt>
      <trkpt lat="45.91971" lon="4.2962">
        <ele>578</ele>
        <time>2019-04-17T23:27:49Z</time>
      </trkpt>
      <trkpt lat="45.91981" lon="4.29623">
        <ele>579</ele>
        <time>2019-04-17T23:28:49Z</time>
      </trkpt>
      <trkpt lat="45.9199" lon="4.2963">
        <ele>580</ele>
        <time>2019-04-17T23:29:49Z</time>
      </trkpt>
      <trkpt lat="45.92005" lon="4.29647">
        <ele>581</ele>
        <time>2019-04-17T23:30:49Z</time>
      </trkpt>
      <trkpt lat="45.92015" lon="4.2966">
        <ele>581</ele>
        <time>2019-04-17T23:31:49Z</time>
      </trkpt>
      <trkpt lat="45.92034" lon="4.29694">
        <ele>583</ele>
        <time>2019-04-17T23:32:49Z</time>
      </trkpt>
      <trkpt lat="45.92067" lon="4.29772">
        <ele>588</ele>
        <time>2019-04-17T23:33:49Z</time>
      </trkpt>
      <trkpt lat="45.92073" lon="4.29795">
        <ele>589</ele>
        <time>2019-04-17T23:34:49Z</time>
      </trkpt>
      <trkpt lat="45.92077" lon="4.29833">
        <ele>590</ele>
        <time>2019-04-17T23:35:49Z</time>
      </trkpt>
      <trkpt lat="45.92077" lon="4.29864">
        <ele>592</ele>
        <time>2019-04-17T23:36:49Z</time>
      </trkpt>
      <trkpt lat="45.92071" lon="4.29895">
        <ele>594</ele>
        <time>2019-04-17T23:37:49Z</time>
      </trkpt>
      <trkpt lat="45.92055" lon="4.29966">
        <ele>596</ele>
        <time>2019-04-17T23:38:49Z</time>
      </trkpt>
      <trkpt lat="45.9205" lon="4.29995">
        <ele>597</ele>
        <time>2019-04-17T23:39:49Z</time>
      </trkpt>
      <trkpt lat="45.92051" lon="4.30016">
        <ele>598</ele>
        <time>2019-04-17T23:40:49Z</time>
      </trkpt>
      <trkpt lat="45.92058" lon="4.30044">
        <ele>600</ele>
        <time>2019-04-17T23:41:49Z</time>
      </trkpt>
      <trkpt lat="45.92063" lon="4.3006">
        <ele>601</ele>
        <time>2019-04-17T23:42:49Z</time>
      </trkpt>
      <trkpt lat="45.9207" lon="4.30074">
        <ele>602</ele>
        <time>2019-04-17T23:43:49Z</time>
      </trkpt>
      <trkpt lat="45.92077" lon="4.30086">
        <ele>603</ele>
        <time>2019-04-17T23:44:49Z</time>
      </trkpt>
      <trkpt lat="45.92087" lon="4.30098">
        <ele>604</ele>
        <time>2019-04-17T23:45:49Z</time>
      </trkpt>
      <trkpt lat="45.92219" lon="4.302">
        <ele>616</ele>
        <time>2019-04-17T23:46:49Z</time>
      </trkpt>
      <trkpt lat="45.92215" lon="4.30214">
        <ele>616</ele>
        <time>2019-04-17T23:47:49Z</time>
      </trkpt>
      <trkpt lat="45.92208" lon="4.30228">
        <ele>616</ele>
        <time>2019-04-17T23:48:49Z</time>
      </trkpt>
      <trkpt lat="45.92138" lon="4.30297">
        <ele>614</ele>
        <time>2019-04-17T23:49:49Z</time>
      </trkpt>
      <trkpt lat="45.9213" lon="4.30314">
        <ele>615</ele>
        <time>2019-04-17T23:50:49Z</time>
      </trkpt>
      <trkpt lat="45.92127" lon="4.30335">
        <ele>616</ele>
        <time>2019-04-17T23:51:49Z</time>
      </trkpt>
      <trkpt lat="45.92115" lon="4.30455">
        <ele>621</ele>
        <time>2019-04-17T23:52:49Z</time>
      </trkpt>
      <trkpt lat="45.92115" lon="4.30532">
        <ele>624</ele>
        <time>2019-04-17T23:53:49Z</time>
      </trkpt>
      <trkpt lat="45.92124" lon="4.30641">
        <ele>630</ele>
        <time>2019-04-17T23:54:49Z</time>
      </trkpt>
      <trkpt lat="45.9214" lon="4.30718">
        <ele>638</ele>
        <time>2019-04-17T23:55:49Z</time>
      </trkpt>
      <trkpt lat="45.92132" lon="4.30768">
        <ele>639</ele>
        <time>2019-04-17T23:56:49Z</time>
      </trkpt>
      <trkpt lat="45.9213" lon="4.30863">
        <ele>644</ele>
        <time>2019-04-17T23:57:49Z</time>
      </trkpt>
      <trkpt lat="45.92144" lon="4.30961">
        <ele>650</ele>
        <time>2019-04-17T23:58:49Z</time>
      </trkpt>
      <trkpt lat="45.92177" lon="4.30991">
        <ele>659</ele>
        <time>2019-04-17T23:59:49Z</time>
      </trkpt>
      <trkpt lat="45.92197" lon="4.31026">
        <ele>663</ele>
        <time>2019-04-18T00:00:49Z</time>
      </trkpt>
      <trkpt lat="45.92222" lon="4.31114">
        <ele>669</ele>
        <time>2019-04-18T00:01:49Z</time>
      </trkpt>
      <trkpt lat="45.92235" lon="4.3118">
        <ele>673</ele>
        <time>2019-04-18T00:02:49Z</time>
      </trkpt>
      <trkpt lat="45.92239" lon="4.31239">
        <ele>676</ele>
        <time>2019-04-18T00:03:49Z</time>
      </trkpt>
      <trkpt lat="45.92239" lon="4.31291">
        <ele>677</ele>
        <time>2019-04-18T00:04:49Z</time>
      </trkpt>
      <trkpt lat="45.92231" lon="4.31338">
        <ele>677</ele>
        <time>2019-04-18T00:05:49Z</time>
      </trkpt>
      <trkpt lat="45.92209" lon="4.31412">
        <ele>678</ele>
        <time>2019-04-18T00:06:49Z</time>
      </trkpt>
      <trkpt lat="45.92185" lon="4.31517">
        <ele>687</ele>
        <time>2019-04-18T00:07:49Z</time>
      </trkpt>
      <trkpt lat="45.92169" lon="4.31613">
        <ele>694</ele>
        <time>2019-04-18T00:08:49Z</time>
      </trkpt>
      <trkpt lat="45.92156" lon="4.31722">
        <ele>700</ele>
        <time>2019-04-18T00:09:49Z</time>
      </trkpt>
      <trkpt lat="45.9214" lon="4.3182">
        <ele>704</ele>
        <time>2019-04-18T00:10:49Z</time>
      </trkpt>
      <trkpt lat="45.92127" lon="4.31875">
        <ele>706</ele>
        <time>2019-04-18T00:11:49Z</time>
      </trkpt>
      <trkpt lat="45.9211" lon="4.31926">
        <ele>709</ele>
        <time>2019-04-18T00:12:49Z</time>
      </trkpt>
      <trkpt lat="45.921" lon="4.31949">
        <ele>711</ele>
        <time>2019-04-18T00:13:49Z</time>
      </trkpt>
      <trkpt lat="45.92079" lon="4.31985">
        <ele>713</ele>
        <time>2019-04-18T00:14:49Z</time>
      </trkpt>
      <trkpt lat="45.9207" lon="4.31997">
        <ele>714</ele>
        <time>2019-04-18T00:15:49Z</time>
      </trkpt>
      <trkpt lat="45.9192" lon="4.32165">
        <ele>727</ele>
        <time>2019-04-18T00:16:49Z</time>
      </trkpt>
      <trkpt lat="45.91892" lon="4.322">
        <ele>732</ele>
        <time>2019-04-18T00:17:49Z</time>
      </trkpt>
      <trkpt lat="45.91864" lon="4.32243">
        <ele>737</ele>
        <time>2019-04-18T00:18:49Z</time>
      </trkpt>
      <trkpt lat="45.91845" lon="4.32284">
        <ele>739</ele>
        <time>2019-04-18T00:19:49Z</time>
      </trkpt>
      <trkpt lat="45.91829" lon="4.32333">
        <ele>740</ele>
        <time>2019-04-18T00:20:49Z</time>
      </trkpt>
      <trkpt lat="45.91822" lon="4.32362">
        <ele>739</ele>
        <time>2019-04-18T00:21:49Z</time>
      </trkpt>
      <trkpt lat="45.91818" lon="4.32395">
        <ele>738</ele>
        <time>2019-04-18T00:22:49Z</time>
      </trkpt>
      <trkpt lat="45.91815" lon="4.32432">
        <ele>737</ele>
        <time>2019-04-18T00:23:49Z</time>
      </trkpt>
      <trkpt lat="45.91814" lon="4.32461">
        <ele>735</ele>
        <time>2019-04-18T00:24:49Z</time>
      </trkpt>
      <trkpt lat="45.91819" lon="4.33061">
        <ele>749</ele>
        <time>2019-04-18T00:25:49Z</time>
      </trkpt>
      <trkpt lat="45.91817" lon="4.3311">
        <ele>751</ele>
        <time>2019-04-18T00:26:49Z</time>
      </trkpt>
      <trkpt lat="45.91812" lon="4.33145">
        <ele>752</ele>
        <time>2019-04-18T00:27:49Z</time>
      </trkpt>
      <trkpt lat="45.91805" lon="4.33175">
        <ele>752</ele>
        <time>2019-04-18T00:28:49Z</time>
      </trkpt>
      <trkpt lat="45.91797" lon="4.33202">
        <ele>753</ele>
        <time>2019-04-18T00:29:49Z</time>
      </trkpt>
      <trkpt lat="45.91788" lon="4.33224">
        <ele>754</ele>
        <time>2019-04-18T00:30:49Z</time>
      </trkpt>
      <trkpt lat="45.91773" lon="4.33252">
        <ele>756</ele>
        <time>2019-04-18T00:31:49Z</time>
      </trkpt>
      <trkpt lat="45.91758" lon="4.33276">
        <ele>755</ele>
        <time>2019-04-18T00:32:49Z</time>
      </trkpt>
      <trkpt lat="45.91682" lon="4.33382">
        <ele>755</ele>
        <time>2019-04-18T00:33:49Z</time>
      </trkpt>
      <trkpt lat="45.91667" lon="4.33408">
        <ele>753</ele>
        <time>2019-04-18T00:34:49Z</time>
      </trkpt>
      <trkpt lat="45.91653" lon="4.33437">
        <ele>752</ele>
        <time>2019-04-18T00:35:49Z</time>
      </trkpt>
      <trkpt lat="45.9163" lon="4.33509">
        <ele>745</ele>
        <time>2019-04-18T00:36:49Z</time>
      </trkpt>
      <trkpt lat="45.91597" lon="4.3365">
        <ele>749</ele>
        <time>2019-04-18T00:37:49Z</time>
      </trkpt>
      <trkpt lat="45.91597" lon="4.33669">
        <ele>749</ele>
        <time>2019-04-18T00:38:49Z</time>
      </trkpt>
      <trkpt lat="45.916" lon="4.33695">
        <ele>749</ele>
        <time>2019-04-18T00:39:49Z</time>
      </trkpt>
      <trkpt lat="45.91603" lon="4.33718">
        <ele>749</ele>
        <time>2019-04-18T00:40:49Z</time>
      </trkpt>
      <trkpt lat="45.91608" lon="4.33742">
        <ele>749</ele>
        <time>2019-04-18T00:41:49Z</time>
      </trkpt>
      <trkpt lat="45.91624" lon="4.33784">
        <ele>751</ele>
        <time>2019-04-18T00:42:49Z</time>
      </trkpt>
      <trkpt lat="45.91659" lon="4.3386">
        <ele>757</ele>
        <time>2019-04-18T00:43:49Z</time>
      </trkpt>
      <trkpt lat="45.91669" lon="4.33887">
        <ele>758</ele>
        <time>2019-04-18T00:44:49Z</time>
      </trkpt>
      <trkpt lat="45.91675" lon="4.33911">
        <ele>759</ele>
        <time>2019-04-18T00:45:49Z</time>
      </trkpt>
      <trkpt lat="45.91678" lon="4.33937">
        <ele>759</ele>
        <time>2019-04-18T00:46:49Z</time>
      </trkpt>
      <trkpt lat="45.91678" lon="4.33962">
        <ele>759</ele>
        <time>2019-04-18T00:47:49Z</time>
      </trkpt>
      <trkpt lat="45.91676" lon="4.33985">
        <ele>759</ele>
        <time>2019-04-18T00:48:49Z</time>
      </trkpt>
      <trkpt lat="45.9167" lon="4.34012">
        <ele>759</ele>
        <time>2019-04-18T00:49:49Z</time>
      </trkpt>
      <trkpt lat="45.91662" lon="4.34035">
        <ele>758</ele>
        <time>2019-04-18T00:50:49Z</time>
      </trkpt>
      <trkpt lat="45.91637" lon="4.34083">
        <ele>757</ele>
        <time>2019-04-18T00:51:49Z</time>
      </trkpt>
      <trkpt lat="45.91595" lon="4.34144">
        <ele>758</ele>
        <time>2019-04-18T00:52:49Z</time>
      </trkpt>
      <trkpt lat="45.91579" lon="4.34183">
        <ele>758</ele>
        <time>2019-04-18T00:53:49Z</time>
      </trkpt>
      <trkpt lat="45.91574" lon="4.34201">
        <ele>758</ele>
        <time>2019-04-18T00:54:49Z</time>
      </trkpt>
      <trkpt lat="45.91571" lon="4.34222">
        <ele>757</ele>
        <time>2019-04-18T00:55:49Z</time>
      </trkpt>
      <trkpt lat="45.91568" lon="4.34338">
        <ele>756</ele>
        <time>2019-04-18T00:56:49Z</time>
      </trkpt>
      <trkpt lat="45.91566" lon="4.34366">
        <ele>757</ele>
        <time>2019-04-18T00:57:49Z</time>
      </trkpt>
      <trkpt lat="45.91531" lon="4.34568">
        <ele>755</ele>
        <time>2019-04-18T00:58:49Z</time>
      </trkpt>
      <trkpt lat="45.91524" lon="4.34683">
        <ele>750</ele>
        <time>2019-04-18T00:59:49Z</time>
      </trkpt>
      <trkpt lat="45.91521" lon="4.34708">
        <ele>751</ele>
        <time>2019-04-18T01:00:49Z</time>
      </trkpt>
      <trkpt lat="45.91488" lon="4.3486">
        <ele>746</ele>
        <time>2019-04-18T01:01:49Z</time>
      </trkpt>
      <trkpt lat="45.91485" lon="4.34901">
        <ele>745</ele>
        <time>2019-04-18T01:02:49Z</time>
      </trkpt>
      <trkpt lat="45.91492" lon="4.34985">
        <ele>744</ele>
        <time>2019-04-18T01:03:49Z</time>
      </trkpt>
      <trkpt lat="45.91493" lon="4.35019">
        <ele>744</ele>
        <time>2019-04-18T01:04:49Z</time>
      </trkpt>
      <trkpt lat="45.91492" lon="4.35041">
        <ele>744</ele>
        <time>2019-04-18T01:05:49Z</time>
      </trkpt>
      <trkpt lat="45.91488" lon="4.3506">
        <ele>743</ele>
        <time>2019-04-18T01:06:49Z</time>
      </trkpt>
      <trkpt lat="45.91495" lon="4.35066">
        <ele>745</ele>
        <time>2019-04-18T01:07:49Z</time>
      </trkpt>
      <trkpt lat="45.91499" lon="4.35076">
        <ele>746</ele>
        <time>2019-04-18T01:08:49Z</time>
      </trkpt>
      <trkpt lat="45.91499" lon="4.35084">
        <ele>746</ele>
        <time>2019-04-18T01:09:49Z</time>
      </trkpt>
      <trkpt lat="45.91457" lon="4.35201">
        <ele>743</ele>
        <time>2019-04-18T01:10:49Z</time>
      </trkpt>
      <trkpt lat="45.91449" lon="4.35267">
        <ele>745</ele>
        <time>2019-04-18T01:11:49Z</time>
      </trkpt>
      <trkpt lat="45.91451" lon="4.35349">
        <ele>745</ele>
        <time>2019-04-18T01:12:49Z</time>
      </trkpt>
      <trkpt lat="45.91462" lon="4.35391">
        <ele>746</ele>
        <time>2019-04-18T01:13:49Z</time>
      </trkpt>
      <trkpt lat="45.91498" lon="4.35446">
        <ele>750</ele>
        <time>2019-04-18T01:14:49Z</time>
      </trkpt>
      <trkpt lat="45.91522" lon="4.35495">
        <ele>754</ele>
        <time>2019-04-18T01:15:49Z</time>
      </trkpt>
      <trkpt lat="45.91535" lon="4.35561">
        <ele>755</ele>
        <time>2019-04-18T01:16:49Z</time>
      </trkpt>
      <trkpt lat="45.91537" lon="4.35815">
        <ele>760</ele>
        <time>2019-04-18T01:17:49Z</time>
      </trkpt>
      <trkpt lat="45.9153" lon="4.35842">
        <ele>760</ele>
        <time>2019-04-18T01:18:49Z</time>
      </trkpt>
      <trkpt lat="45.91501" lon="4.35914">
        <ele>757</ele>
        <time>2019-04-18T01:19:49Z</time>
      </trkpt>
      <trkpt lat="45.91498" lon="4.35953">
        <ele>755</ele>
        <time>2019-04-18T01:20:49Z</time>
      </trkpt>
      <trkpt lat="45.91492" lon="4.35996">
        <ele>754</ele>
        <time>2019-04-18T01:21:49Z</time>
      </trkpt>
      <trkpt lat="45.9146" lon="4.36092">
        <ele>756</ele>
        <time>2019-04-18T01:22:49Z</time>
      </trkpt>
      <trkpt lat="45.91442" lon="4.36172">
        <ele>758</ele>
        <time>2019-04-18T01:23:49Z</time>
      </trkpt>
      <trkpt lat="45.91442" lon="4.36314">
        <ele>755</ele>
        <time>2019-04-18T01:24:49Z</time>
      </trkpt>
      <trkpt lat="45.91428" lon="4.36353">
        <ele>755</ele>
        <time>2019-04-18T01:25:49Z</time>
      </trkpt>
      <trkpt lat="45.91262" lon="4.36594">
        <ele>757</ele>
        <time>2019-04-18T01:26:49Z</time>
      </trkpt>
      <trkpt lat="45.91243" lon="4.36664">
        <ele>753</ele>
        <time>2019-04-18T01:27:49Z</time>
      </trkpt>
      <trkpt lat="45.91234" lon="4.36754">
        <ele>756</ele>
        <time>2019-04-18T01:28:49Z</time>
      </trkpt>
      <trkpt lat="45.91241" lon="4.36778">
        <ele>756</ele>
        <time>2019-04-18T01:29:49Z</time>
      </trkpt>
      <trkpt lat="45.91338" lon="4.36875">
        <ele>752</ele>
        <time>2019-04-18T01:30:49Z</time>
      </trkpt>
      <trkpt lat="45.91363" lon="4.36885">
        <ele>752</ele>
        <time>2019-04-18T01:31:49Z</time>
      </trkpt>
      <trkpt lat="45.91451" lon="4.36889">
        <ele>747</ele>
        <time>2019-04-18T01:32:49Z</time>
      </trkpt>
      <trkpt lat="45.91465" lon="4.36893">
        <ele>746</ele>
        <time>2019-04-18T01:33:49Z</time>
      </trkpt>
      <trkpt lat="45.91477" lon="4.36914">
        <ele>746</ele>
        <time>2019-04-18T01:34:49Z</time>
      </trkpt>
      <trkpt lat="45.91479" lon="4.3694">
        <ele>745</ele>
        <time>2019-04-18T01:35:49Z</time>
      </trkpt>
      <trkpt lat="45.91463" lon="4.37054">
        <ele>747</ele>
        <time>2019-04-18T01:36:49Z</time>
      </trkpt>
      <trkpt lat="45.91465" lon="4.37082">
        <ele>746</ele>
        <time>2019-04-18T01:37:49Z</time>
      </trkpt>
      <trkpt lat="45.91475" lon="4.37114">
        <ele>749</ele>
        <time>2019-04-18T01:38:49Z</time>
      </trkpt>
      <trkpt lat="45.91495" lon="4.37138">
        <ele>750</ele>
        <time>2019-04-18T01:39:49Z</time>
      </trkpt>
      <trkpt lat="45.91545" lon="4.37157">
        <ele>745</ele>
        <time>2019-04-18T01:40:49Z</time>
      </trkpt>
      <trkpt lat="45.9158" lon="4.37181">
        <ele>742</ele>
        <time>2019-04-18T01:41:49Z</time>
      </trkpt>
      <trkpt lat="45.91671" lon="4.37262">
        <ele>739</ele>
        <time>2019-04-18T01:42:49Z</time>
      </trkpt>
      <trkpt lat="45.91693" lon="4.37279">
        <ele>739</ele>
        <time>2019-04-18T01:43:49Z</time>
      </trkpt>
      <trkpt lat="45.9178" lon="4.37319">
        <ele>736</ele>
        <time>2019-04-18T01:44:49Z</time>
      </trkpt>
      <trkpt lat="45.91827" lon="4.37358">
        <ele>737</ele>
        <time>2019-04-18T01:45:49Z</time>
      </trkpt>
      <trkpt lat="45.91843" lon="4.37363">
        <ele>736</ele>
        <time>2019-04-18T01:46:49Z</time>
      </trkpt>
      <trkpt lat="45.91884" lon="4.37357">
        <ele>733</ele>
        <time>2019-04-18T01:47:49Z</time>
      </trkpt>
      <trkpt lat="45.91907" lon="4.37361">
        <ele>732</ele>
        <time>2019-04-18T01:48:49Z</time>
      </trkpt>
      <trkpt lat="45.91926" lon="4.37373">
        <ele>731</ele>
        <time>2019-04-18T01:49:49Z</time>
      </trkpt>
      <trkpt lat="45.91944" lon="4.37402">
        <ele>730</ele>
        <time>2019-04-18T01:50:49Z</time>
      </trkpt>
      <trkpt lat="45.91966" lon="4.37492">
        <ele>729</ele>
        <time>2019-04-18T01:51:49Z</time>
      </trkpt>
      <trkpt lat="45.91967" lon="4.37522">
        <ele>729</ele>
        <time>2019-04-18T01:52:49Z</time>
      </trkpt>
      <trkpt lat="45.91955" lon="4.37615">
        <ele>731</ele>
        <time>2019-04-18T01:53:49Z</time>
      </trkpt>
      <trkpt lat="45.9196" lon="4.37652">
        <ele>731</ele>
        <time>2019-04-18T01:54:49Z</time>
      </trkpt>
      <trkpt lat="45.92014" lon="4.3779">
        <ele>729</ele>
        <time>2019-04-18T01:55:49Z</time>
      </trkpt>
      <trkpt lat="45.92028" lon="4.378">
        <ele>729</ele>
        <time>2019-04-18T01:56:49Z</time>
      </trkpt>
      <trkpt lat="45.92044" lon="4.37809">
        <ele>728</ele>
        <time>2019-04-18T01:57:49Z</time>
      </trkpt>
      <trkpt lat="45.92066" lon="4.37806">
        <ele>728</ele>
        <time>2019-04-18T01:58:49Z</time>
      </trkpt>
      <trkpt lat="45.92084" lon="4.37797">
        <ele>726</ele>
        <time>2019-04-18T01:59:49Z</time>
      </trkpt>
      <trkpt lat="45.92132" lon="4.37751">
        <ele>723</ele>
        <time>2019-04-18T02:00:49Z</time>
      </trkpt>
      <trkpt lat="45.92157" lon="4.37744">
        <ele>722</ele>
        <time>2019-04-18T02:01:49Z</time>
      </trkpt>
      <trkpt lat="45.9224" lon="4.37737">
        <ele>722</ele>
        <time>2019-04-18T02:02:49Z</time>
      </trkpt>
      <trkpt lat="45.9227" lon="4.37733">
        <ele>721</ele>
        <time>2019-04-18T02:03:49Z</time>
      </trkpt>
      <trkpt lat="45.92352" lon="4.37727">
        <ele>723</ele>
        <time>2019-04-18T02:04:49Z</time>
      </trkpt>
      <trkpt lat="45.92613" lon="4.37723">
        <ele>723</ele>
        <time>2019-04-18T02:05:49Z</time>
      </trkpt>
      <trkpt lat="45.9263" lon="4.3773">
        <ele>722</ele>
        <time>2019-04-18T02:06:49Z</time>
      </trkpt>
      <trkpt lat="45.92648" lon="4.37745">
        <ele>721</ele>
        <time>2019-04-18T02:07:49Z</time>
      </trkpt>
      <trkpt lat="45.92661" lon="4.37765">
        <ele>720</ele>
        <time>2019-04-18T02:08:49Z</time>
      </trkpt>
      <trkpt lat="45.92684" lon="4.37831">
        <ele>722</ele>
        <time>2019-04-18T02:09:49Z</time>
      </trkpt>
      <trkpt lat="45.92698" lon="4.37842">
        <ele>723</ele>
        <time>2019-04-18T02:10:49Z</time>
      </trkpt>
      <trkpt lat="45.92695" lon="4.37884">
        <ele>723</ele>
        <time>2019-04-18T02:11:49Z</time>
      </trkpt>
      <trkpt lat="45.92692" lon="4.38078">
        <ele>720</ele>
        <time>2019-04-18T02:12:49Z</time>
      </trkpt>
      <trkpt lat="45.92696" lon="4.38125">
        <ele>719</ele>
        <time>2019-04-18T02:13:49Z</time>
      </trkpt>
      <trkpt lat="45.92752" lon="4.3831">
        <ele>718</ele>
        <time>2019-04-18T02:14:49Z</time>
      </trkpt>
      <trkpt lat="45.9277" lon="4.38348">
        <ele>717</ele>
        <time>2019-04-18T02:15:49Z</time>
      </trkpt>
      <trkpt lat="45.92829" lon="4.38388">
        <ele>719</ele>
        <time>2019-04-18T02:16:49Z</time>
      </trkpt>
      <trkpt lat="45.92843" lon="4.38399">
        <ele>720</ele>
        <time>2019-04-18T02:17:49Z</time>
      </trkpt>
      <trkpt lat="45.92847" lon="4.38422">
        <ele>719</ele>
        <time>2019-04-18T02:18:49Z</time>
      </trkpt>
      <trkpt lat="45.9285" lon="4.38447">
        <ele>720</ele>
        <time>2019-04-18T02:19:49Z</time>
      </trkpt>
      <trkpt lat="45.92824" lon="4.38544">
        <ele>715</ele>
        <time>2019-04-18T02:20:49Z</time>
      </trkpt>
      <trkpt lat="45.92814" lon="4.38586">
        <ele>713</ele>
        <time>2019-04-18T02:21:49Z</time>
      </trkpt>
      <trkpt lat="45.92813" lon="4.38626">
        <ele>713</ele>
        <time>2019-04-18T02:22:49Z</time>
      </trkpt>
      <trkpt lat="45.92821" lon="4.38666">
        <ele>714</ele>
        <time>2019-04-18T02:23:49Z</time>
      </trkpt>
      <trkpt lat="45.92848" lon="4.38716">
        <ele>712</ele>
        <time>2019-04-18T02:24:49Z</time>
      </trkpt>
      <trkpt lat="45.9286" lon="4.38747">
        <ele>709</ele>
        <time>2019-04-18T02:25:49Z</time>
      </trkpt>
      <trkpt lat="45.92862" lon="4.38781">
        <ele>711</ele>
        <time>2019-04-18T02:26:49Z</time>
      </trkpt>
      <trkpt lat="45.92851" lon="4.38814">
        <ele>712</ele>
        <time>2019-04-18T02:27:49Z</time>
      </trkpt>
      <trkpt lat="45.92873" lon="4.38863">
        <ele>717</ele>
        <time>2019-04-18T02:28:49Z</time>
      </trkpt>
      <trkpt lat="45.92911" lon="4.38933">
        <ele>725</ele>
        <time>2019-04-18T02:29:49Z</time>
      </trkpt>
      <trkpt lat="45.92943" lon="4.38984">
        <ele>730</ele>
        <time>2019-04-18T02:30:49Z</time>
      </trkpt>
      <trkpt lat="45.92965" lon="4.39005">
        <ele>732</ele>
        <time>2019-04-18T02:31:49Z</time>
      </trkpt>
      <trkpt lat="45.92985" lon="4.39015">
        <ele>733</ele>
        <time>2019-04-18T02:32:49Z</time>
      </trkpt>
      <trkpt lat="45.93023" lon="4.39012">
        <ele>737</ele>
        <time>2019-04-18T02:33:49Z</time>
      </trkpt>
      <trkpt lat="45.93034" lon="4.39014">
        <ele>738</ele>
        <time>2019-04-18T02:34:49Z</time>
      </trkpt>
      <trkpt lat="45.93046" lon="4.39024">
        <ele>738</ele>
        <time>2019-04-18T02:35:49Z</time>
      </trkpt>
      <trkpt lat="45.93074" lon="4.39072">
        <ele>735</ele>
        <time>2019-04-18T02:36:49Z</time>
      </trkpt>
      <trkpt lat="45.93093" lon="4.39109">
        <ele>732</ele>
        <time>2019-04-18T02:37:49Z</time>
      </trkpt>
      <trkpt lat="45.93112" lon="4.39133">
        <ele>729</ele>
        <time>2019-04-18T02:38:49Z</time>
      </trkpt>
      <trkpt lat="45.9313" lon="4.39145">
        <ele>728</ele>
        <time>2019-04-18T02:39:49Z</time>
      </trkpt>
      <trkpt lat="45.93175" lon="4.39163">
        <ele>729</ele>
        <time>2019-04-18T02:40:49Z</time>
      </trkpt>
      <trkpt lat="45.93192" lon="4.39173">
        <ele>729</ele>
        <time>2019-04-18T02:41:49Z</time>
      </trkpt>
      <trkpt lat="45.932" lon="4.39191">
        <ele>729</ele>
        <time>2019-04-18T02:42:49Z</time>
      </trkpt>
      <trkpt lat="45.93201" lon="4.39215">
        <ele>726</ele>
        <time>2019-04-18T02:43:49Z</time>
      </trkpt>
      <trkpt lat="45.93186" lon="4.39314">
        <ele>714</ele>
        <time>2019-04-18T02:44:49Z</time>
      </trkpt>
      <trkpt lat="45.93183" lon="4.39403">
        <ele>715</ele>
        <time>2019-04-18T02:45:49Z</time>
      </trkpt>
      <trkpt lat="45.93173" lon="4.39466">
        <ele>715</ele>
        <time>2019-04-18T02:46:49Z</time>
      </trkpt>
      <trkpt lat="45.93155" lon="4.39526">
        <ele>715</ele>
        <time>2019-04-18T02:47:49Z</time>
      </trkpt>
      <trkpt lat="45.93113" lon="4.39616">
        <ele>713</ele>
        <time>2019-04-18T02:48:49Z</time>
      </trkpt>
      <trkpt lat="45.93103" lon="4.39642">
        <ele>713</ele>
        <time>2019-04-18T02:49:49Z</time>
      </trkpt>
      <trkpt lat="45.93094" lon="4.39679">
        <ele>714</ele>
        <time>2019-04-18T02:50:49Z</time>
      </trkpt>
      <trkpt lat="45.9309" lon="4.39705">
        <ele>713</ele>
        <time>2019-04-18T02:51:49Z</time>
      </trkpt>
      <trkpt lat="45.93091" lon="4.39733">
        <ele>713</ele>
        <time>2019-04-18T02:52:49Z</time>
      </trkpt>
      <trkpt lat="45.93096" lon="4.39758">
        <ele>714</ele>
        <time>2019-04-18T02:53:49Z</time>
      </trkpt>
      <trkpt lat="45.93104" lon="4.39777">
        <ele>714</ele>
        <time>2019-04-18T02:54:49Z</time>
      </trkpt>
      <trkpt lat="45.93119" lon="4.39804">
        <ele>717</ele>
        <time>2019-04-18T02:55:49Z</time>
      </trkpt>
      <trkpt lat="45.93125" lon="4.39837">
        <ele>716</ele>
        <time>2019-04-18T02:56:49Z</time>
      </trkpt>
      <trkpt lat="45.93125" lon="4.39872">
        <ele>716</ele>
        <time>2019-04-18T02:57:49Z</time>
      </trkpt>
      <trkpt lat="45.93117" lon="4.39919">
        <ele>714</ele>
        <time>2019-04-18T02:58:49Z</time>
      </trkpt>
      <trkpt lat="45.93096" lon="4.39992">
        <ele>714</ele>
        <time>2019-04-18T02:59:49Z</time>
      </trkpt>
      <trkpt lat="45.93096" lon="4.40014">
        <ele>715</ele>
        <time>2019-04-18T03:00:49Z</time>
      </trkpt>
      <trkpt lat="45.93098" lon="4.40027">
        <ele>715</ele>
        <time>2019-04-18T03:01:49Z</time>
      </trkpt>
      <trkpt lat="45.93103" lon="4.40037">
        <ele>716</ele>
        <time>2019-04-18T03:02:49Z</time>
      </trkpt>
      <trkpt lat="45.93111" lon="4.40042">
        <ele>716</ele>
        <time>2019-04-18T03:03:49Z</time>
      </trkpt>
      <trkpt lat="45.9319" lon="4.40062">
        <ele>715</ele>
        <time>2019-04-18T03:04:49Z</time>
      </trkpt>
      <trkpt lat="45.93243" lon="4.40055">
        <ele>716</ele>
        <time>2019-04-18T03:05:49Z</time>
      </trkpt>
      <trkpt lat="45.93264" lon="4.40039">
        <ele>718</ele>
        <time>2019-04-18T03:06:49Z</time>
      </trkpt>
      <trkpt lat="45.93278" lon="4.40021">
        <ele>720</ele>
        <time>2019-04-18T03:07:49Z</time>
      </trkpt>
      <trkpt lat="45.93305" lon="4.39964">
        <ele>728</ele>
        <time>2019-04-18T03:08:49Z</time>
      </trkpt>
      <trkpt lat="45.93326" lon="4.39917">
        <ele>734</ele>
        <time>2019-04-18T03:09:49Z</time>
      </trkpt>
      <trkpt lat="45.93336" lon="4.39871">
        <ele>741</ele>
        <time>2019-04-18T03:10:49Z</time>
      </trkpt>
      <trkpt lat="45.93343" lon="4.39851">
        <ele>742</ele>
        <time>2019-04-18T03:11:49Z</time>
      </trkpt>
      <trkpt lat="45.93355" lon="4.39837">
        <ele>741</ele>
        <time>2019-04-18T03:12:49Z</time>
      </trkpt>
      <trkpt lat="45.93373" lon="4.39825">
        <ele>738</ele>
        <time>2019-04-18T03:13:49Z</time>
      </trkpt>
      <trkpt lat="45.93425" lon="4.39811">
        <ele>724</ele>
        <time>2019-04-18T03:14:49Z</time>
      </trkpt>
      <trkpt lat="45.93469" lon="4.39782">
        <ele>715</ele>
        <time>2019-04-18T03:15:49Z</time>
      </trkpt>
      <trkpt lat="45.93506" lon="4.39744">
        <ele>709</ele>
        <time>2019-04-18T03:16:49Z</time>
      </trkpt>
      <trkpt lat="45.93521" lon="4.39715">
        <ele>709</ele>
        <time>2019-04-18T03:17:49Z</time>
      </trkpt>
      <trkpt lat="45.93546" lon="4.39632">
        <ele>716</ele>
        <time>2019-04-18T03:18:49Z</time>
      </trkpt>
      <trkpt lat="45.93597" lon="4.39489">
        <ele>720</ele>
        <time>2019-04-18T03:19:49Z</time>
      </trkpt>
      <trkpt lat="45.93612" lon="4.39437">
        <ele>720</ele>
        <time>2019-04-18T03:20:49Z</time>
      </trkpt>
      <trkpt lat="45.93627" lon="4.39393">
        <ele>718</ele>
        <time>2019-04-18T03:21:49Z</time>
      </trkpt>
      <trkpt lat="45.9365" lon="4.3936">
        <ele>714</ele>
        <time>2019-04-18T03:22:49Z</time>
      </trkpt>
      <trkpt lat="45.9368" lon="4.39337">
        <ele>713</ele>
        <time>2019-04-18T03:23:49Z</time>
      </trkpt>
      <trkpt lat="45.93711" lon="4.39324">
        <ele>717</ele>
        <time>2019-04-18T03:24:49Z</time>
      </trkpt>
      <trkpt lat="45.93732" lon="4.39333">
        <ele>715</ele>
        <time>2019-04-18T03:25:49Z</time>
      </trkpt>
      <trkpt lat="45.93751" lon="4.39356">
        <ele>713</ele>
        <time>2019-04-18T03:26:49Z</time>
      </trkpt>
      <trkpt lat="45.93766" lon="4.39383">
        <ele>713</ele>
        <time>2019-04-18T03:27:49Z</time>
      </trkpt>
      <trkpt lat="45.93773" lon="4.39408">
        <ele>711</ele>
        <time>2019-04-18T03:28:49Z</time>
      </trkpt>
      <trkpt lat="45.93785" lon="4.39493">
        <ele>706</ele>
        <time>2019-04-18T03:29:49Z</time>
      </trkpt>
      <trkpt lat="45.93794" lon="4.39535">
        <ele>704</ele>
        <time>2019-04-18T03:30:49Z</time>
      </trkpt>
      <trkpt lat="45.9381" lon="4.39569">
        <ele>703</ele>
        <time>2019-04-18T03:31:49Z</time>
      </trkpt>
      <trkpt lat="45.93826" lon="4.39591">
        <ele>703</ele>
        <time>2019-04-18T03:32:49Z</time>
      </trkpt>
      <trkpt lat="45.93836" lon="4.39596">
        <ele>704</ele>
        <time>2019-04-18T03:33:49Z</time>
      </trkpt>
      <trkpt lat="45.9385" lon="4.39595">
        <ele>707</ele>
        <time>2019-04-18T03:34:49Z</time>
      </trkpt>
      <trkpt lat="45.9387" lon="4.39587">
        <ele>711</ele>
        <time>2019-04-18T03:35:49Z</time>
      </trkpt>
      <trkpt lat="45.93884" lon="4.39588">
        <ele>713</ele>
        <time>2019-04-18T03:36:49Z</time>
      </trkpt>
      <trkpt lat="45.93903" lon="4.39597">
        <ele>714</ele>
        <time>2019-04-18T03:37:49Z</time>
      </trkpt>
      <trkpt lat="45.93918" lon="4.39619">
        <ele>712</ele>
        <time>2019-04-18T03:38:49Z</time>
      </trkpt>
      <trkpt lat="45.93948" lon="4.39701">
        <ele>710</ele>
        <time>2019-04-18T03:39:49Z</time>
      </trkpt>
      <trkpt lat="45.93959" lon="4.39728">
        <ele>710</ele>
        <time>2019-04-18T03:40:49Z</time>
      </trkpt>
      <trkpt lat="45.93991" lon="4.39782">
        <ele>712</ele>
        <time>2019-04-18T03:41:49Z</time>
      </trkpt>
      <trkpt lat="45.93998" lon="4.39807">
        <ele>710</ele>
        <time>2019-04-18T03:42:49Z</time>
      </trkpt>
      <trkpt lat="45.94013" lon="4.39889">
        <ele>711</ele>
        <time>2019-04-18T03:43:49Z</time>
      </trkpt>
      <trkpt lat="45.94011" lon="4.39906">
        <ele>710</ele>
        <time>2019-04-18T03:44:49Z</time>
      </trkpt>
      <trkpt lat="45.94005" lon="4.39923">
        <ele>708</ele>
        <time>2019-04-18T03:45:49Z</time>
      </trkpt>
      <trkpt lat="45.93955" lon="4.39988">
        <ele>705</ele>
        <time>2019-04-18T03:46:49Z</time>
      </trkpt>
      <trkpt lat="45.93941" lon="4.40014">
        <ele>702</ele>
        <time>2019-04-18T03:47:49Z</time>
      </trkpt>
      <trkpt lat="45.93937" lon="4.40038">
        <ele>700</ele>
        <time>2019-04-18T03:48:49Z</time>
      </trkpt>
      <trkpt lat="45.93941" lon="4.40059">
        <ele>701</ele>
        <time>2019-04-18T03:49:49Z</time>
      </trkpt>
      <trkpt lat="45.93948" lon="4.40077">
        <ele>703</ele>
        <time>2019-04-18T03:50:49Z</time>
      </trkpt>
      <trkpt lat="45.94024" lon="4.40176">
        <ele>712</ele>
        <time>2019-04-18T03:51:49Z</time>
      </trkpt>
      <trkpt lat="45.94041" lon="4.40201">
        <ele>716</ele>
        <time>2019-04-18T03:52:49Z</time>
      </trkpt>
      <trkpt lat="45.94051" lon="4.40229">
        <ele>716</ele>
        <time>2019-04-18T03:53:49Z</time>
      </trkpt>
      <trkpt lat="45.94055" lon="4.4025">
        <ele>714</ele>
        <time>2019-04-18T03:54:49Z</time>
      </trkpt>
      <trkpt lat="45.94052" lon="4.40268">
        <ele>716</ele>
        <time>2019-04-18T03:55:49Z</time>
      </trkpt>
      <trkpt lat="45.94045" lon="4.40282">
        <ele>716</ele>
        <time>2019-04-18T03:56:49Z</time>
      </trkpt>
      <trkpt lat="45.94033" lon="4.40295">
        <ele>716</ele>
        <time>2019-04-18T03:57:49Z</time>
      </trkpt>
      <trkpt lat="45.94009" lon="4.40309">
        <ele>714</ele>
        <time>2019-04-18T03:58:49Z</time>
      </trkpt>
      <trkpt lat="45.93926" lon="4.40318">
        <ele>704</ele>
        <time>2019-04-18T03:59:49Z</time>
      </trkpt>
      <trkpt lat="45.93865" lon="4.40314">
        <ele>696</ele>
        <time>2019-04-18T04:00:49Z</time>
      </trkpt>
      <trkpt lat="45.938" lon="4.40336">
        <ele>693</ele>
        <time>2019-04-18T04:01:49Z</time>
      </trkpt>
      <trkpt lat="45.93768" lon="4.40361">
        <ele>691</ele>
        <time>2019-04-18T04:02:49Z</time>
      </trkpt>
      <trkpt lat="45.93727" lon="4.40409">
        <ele>689</ele>
        <time>2019-04-18T04:03:49Z</time>
      </trkpt>
      <trkpt lat="45.93702" lon="4.4045">
        <ele>687</ele>
        <time>2019-04-18T04:04:49Z</time>
      </trkpt>
      <trkpt lat="45.93687" lon="4.40495">
        <ele>687</ele>
        <time>2019-04-18T04:05:49Z</time>
      </trkpt>
      <trkpt lat="45.93681" lon="4.40524">
        <ele>685</ele>
        <time>2019-04-18T04:06:49Z</time>
      </trkpt>
      <trkpt lat="45.9368" lon="4.40548">
        <ele>683</ele>
        <time>2019-04-18T04:07:49Z</time>
      </trkpt>
      <trkpt lat="45.93683" lon="4.40566">
        <ele>684</ele>
        <time>2019-04-18T04:08:49Z</time>
      </trkpt>
      <trkpt lat="45.9369" lon="4.40582">
        <ele>685</ele>
        <time>2019-04-18T04:09:49Z</time>
      </trkpt>
      <trkpt lat="45.9371" lon="4.40594">
        <ele>691</ele>
        <time>2019-04-18T04:10:49Z</time>
      </trkpt>
      <trkpt lat="45.93729" lon="4.40615">
        <ele>696</ele>
        <time>2019-04-18T04:11:49Z</time>
      </trkpt>
      <trkpt lat="45.93738" lon="4.40633">
        <ele>698</ele>
        <time>2019-04-18T04:12:49Z</time>
      </trkpt>
      <trkpt lat="45.93741" lon="4.40653">
        <ele>698</ele>
        <time>2019-04-18T04:13:49Z</time>
      </trkpt>
      <trkpt lat="45.93741" lon="4.40671">
        <ele>697</ele>
        <time>2019-04-18T04:14:49Z</time>
      </trkpt>
      <trkpt lat="45.93731" lon="4.40704">
        <ele>695</ele>
        <time>2019-04-18T04:15:49Z</time>
      </trkpt>
      <trkpt lat="45.93722" lon="4.40726">
        <ele>692</ele>
        <time>2019-04-18T04:16:49Z</time>
      </trkpt>
      <trkpt lat="45.93644" lon="4.40837">
        <ele>679</ele>
        <time>2019-04-18T04:17:49Z</time>
      </trkpt>
      <trkpt lat="45.93622" lon="4.40875">
        <ele>675</ele>
        <time>2019-04-18T04:18:49Z</time>
      </trkpt>
      <trkpt lat="45.93614" lon="4.40898">
        <ele>674</ele>
        <time>2019-04-18T04:19:49Z</time>
      </trkpt>
      <trkpt lat="45.93614" lon="4.40913">
        <ele>675</ele>
        <time>2019-04-18T04:20:49Z</time>
      </trkpt>
      <trkpt lat="45.9362" lon="4.40927">
        <ele>675</ele>
        <time>2019-04-18T04:21:49Z</time>
      </trkpt>
      <trkpt lat="45.93707" lon="4.4105">
        <ele>674</ele>
        <time>2019-04-18T04:22:49Z</time>
      </trkpt>
      <trkpt lat="45.93722" lon="4.4106">
        <ele>675</ele>
        <time>2019-04-18T04:23:49Z</time>
      </trkpt>
      <trkpt lat="45.93774" lon="4.4108">
        <ele>683</ele>
        <time>2019-04-18T04:24:49Z</time>
      </trkpt>
      <trkpt lat="45.93782" lon="4.41087">
        <ele>684</ele>
        <time>2019-04-18T04:25:49Z</time>
      </trkpt>
      <trkpt lat="45.93795" lon="4.4111">
        <ele>686</ele>
        <time>2019-04-18T04:26:49Z</time>
      </trkpt>
      <trkpt lat="45.93797" lon="4.41128">
        <ele>686</ele>
        <time>2019-04-18T04:27:49Z</time>
      </trkpt>
      <trkpt lat="45.93778" lon="4.41331">
        <ele>679</ele>
        <time>2019-04-18T04:28:49Z</time>
      </trkpt>
      <trkpt lat="45.93772" lon="4.41351">
        <ele>678</ele>
        <time>2019-04-18T04:29:49Z</time>
      </trkpt>
      <trkpt lat="45.9376" lon="4.4137">
        <ele>675</ele>
        <time>2019-04-18T04:30:49Z</time>
      </trkpt>
      <trkpt lat="45.93716" lon="4.41425">
        <ele>672</ele>
        <time>2019-04-18T04:31:49Z</time>
      </trkpt>
      <trkpt lat="45.937" lon="4.41438">
        <ele>672</ele>
        <time>2019-04-18T04:32:49Z</time>
      </trkpt>
      <trkpt lat="45.93688" lon="4.4144">
        <ele>671</ele>
        <time>2019-04-18T04:33:49Z</time>
      </trkpt>
      <trkpt lat="45.93675" lon="4.41436">
        <ele>668</ele>
        <time>2019-04-18T04:34:49Z</time>
      </trkpt>
      <trkpt lat="45.93641" lon="4.41412">
        <ele>663</ele>
        <time>2019-04-18T04:35:49Z</time>
      </trkpt>
      <trkpt lat="45.93627" lon="4.41409">
        <ele>663</ele>
        <time>2019-04-18T04:36:49Z</time>
      </trkpt>
      <trkpt lat="45.93598" lon="4.41409">
        <ele>663</ele>
        <time>2019-04-18T04:37:49Z</time>
      </trkpt>
      <trkpt lat="45.93547" lon="4.41404">
        <ele>659</ele>
        <time>2019-04-18T04:38:49Z</time>
      </trkpt>
      <trkpt lat="45.93532" lon="4.41408">
        <ele>658</ele>
        <time>2019-04-18T04:39:49Z</time>
      </trkpt>
      <trkpt lat="45.93521" lon="4.41418">
        <ele>659</ele>
        <time>2019-04-18T04:40:49Z</time>
      </trkpt>
      <trkpt lat="45.93517" lon="4.41434">
        <ele>658</ele>
        <time>2019-04-18T04:41:49Z</time>
      </trkpt>
      <trkpt lat="45.93516" lon="4.41456">
        <ele>657</ele>
        <time>2019-04-18T04:42:49Z</time>
      </trkpt>
      <trkpt lat="45.93527" lon="4.41535">
        <ele>658</ele>
        <time>2019-04-18T04:43:49Z</time>
      </trkpt>
      <trkpt lat="45.93528" lon="4.41559">
        <ele>659</ele>
        <time>2019-04-18T04:44:49Z</time>
      </trkpt>
      <trkpt lat="45.9352" lon="4.41707">
        <ele>657</ele>
        <time>2019-04-18T04:45:49Z</time>
      </trkpt>
      <trkpt lat="45.93518" lon="4.41796">
        <ele>659</ele>
        <time>2019-04-18T04:46:49Z</time>
      </trkpt>
      <trkpt lat="45.9351" lon="4.41839">
        <ele>659</ele>
        <time>2019-04-18T04:47:49Z</time>
      </trkpt>
      <trkpt lat="45.93475" lon="4.41999">
        <ele>653</ele>
        <time>2019-04-18T04:48:49Z</time>
      </trkpt>
      <trkpt lat="45.93469" lon="4.42017">
        <ele>652</ele>
        <time>2019-04-18T04:49:49Z</time>
      </trkpt>
      <trkpt lat="45.9343" lon="4.42007">
        <ele>648</ele>
        <time>2019-04-18T04:50:49Z</time>
      </trkpt>
      <trkpt lat="45.93418" lon="4.42009">
        <ele>646</ele>
        <time>2019-04-18T04:51:49Z</time>
      </trkpt>
      <trkpt lat="45.93368" lon="4.42056">
        <ele>647</ele>
        <time>2019-04-18T04:52:49Z</time>
      </trkpt>
      <trkpt lat="45.93344" lon="4.42076">
        <ele>648</ele>
        <time>2019-04-18T04:53:49Z</time>
      </trkpt>
      <trkpt lat="45.93322" lon="4.42085">
        <ele>648</ele>
        <time>2019-04-18T04:54:49Z</time>
      </trkpt>
      <trkpt lat="45.93276" lon="4.42094">
        <ele>649</ele>
        <time>2019-04-18T04:55:49Z</time>
      </trkpt>
      <trkpt lat="45.9327" lon="4.421">
        <ele>650</ele>
        <time>2019-04-18T04:56:49Z</time>
      </trkpt>
      <trkpt lat="45.93266" lon="4.42109">
        <ele>649</ele>
        <time>2019-04-18T04:57:49Z</time>
      </trkpt>
      <trkpt lat="45.93265" lon="4.42123">
        <ele>649</ele>
        <time>2019-04-18T04:58:49Z</time>
      </trkpt>
      <trkpt lat="45.93266" lon="4.42196">
        <ele>644</ele>
        <time>2019-04-18T04:59:49Z</time>
      </trkpt>
      <trkpt lat="45.93259" lon="4.42224">
        <ele>644</ele>
        <time>2019-04-18T05:00:49Z</time>
      </trkpt>
      <trkpt lat="45.93231" lon="4.42312">
        <ele>639</ele>
        <time>2019-04-18T05:01:49Z</time>
      </trkpt>
      <trkpt lat="45.93208" lon="4.42372">
        <ele>635</ele>
        <time>2019-04-18T05:02:49Z</time>
      </trkpt>
      <trkpt lat="45.93172" lon="4.42429">
        <ele>635</ele>
        <time>2019-04-18T05:03:49Z</time>
      </trkpt>
      <trkpt lat="45.93149" lon="4.42452">
        <ele>632</ele>
        <time>2019-04-18T05:04:49Z</time>
      </trkpt>
      <trkpt lat="45.93115" lon="4.42458">
        <ele>632</ele>
        <time>2019-04-18T05:05:49Z</time>
      </trkpt>
      <trkpt lat="45.93106" lon="4.42469">
        <ele>632</ele>
        <time>2019-04-18T05:06:49Z</time>
      </trkpt>
      <trkpt lat="45.93047" lon="4.42617">
        <ele>625</ele>
        <time>2019-04-18T05:07:49Z</time>
      </trkpt>
      <trkpt lat="45.93045" lon="4.42631">
        <ele>625</ele>
        <time>2019-04-18T05:08:49Z</time>
      </trkpt>
      <trkpt lat="45.93042" lon="4.42633">
        <ele>625</ele>
        <time>2019-04-18T05:09:49Z</time>
      </trkpt>
      <trkpt lat="45.93034" lon="4.42663">
        <ele>625</ele>
        <time>2019-04-18T05:10:49Z</time>
      </trkpt>
      <trkpt lat="45.93021" lon="4.42689">
        <ele>628</ele>
        <time>2019-04-18T05:11:49Z</time>
      </trkpt>
      <trkpt lat="45.92845" lon="4.42888">
        <ele>636</ele>
        <time>2019-04-18T05:12:49Z</time>
      </trkpt>
      <trkpt lat="45.92766" lon="4.42973">
        <ele>636</ele>
        <time>2019-04-18T05:13:49Z</time>
      </trkpt>
      <trkpt lat="45.92755" lon="4.42988">
        <ele>637</ele>
        <time>2019-04-18T05:14:49Z</time>
      </trkpt>
      <trkpt lat="45.92746" lon="4.43004">
        <ele>638</ele>
        <time>2019-04-18T05:15:49Z</time>
      </trkpt>
      <trkpt lat="45.92737" lon="4.43017">
        <ele>637</ele>
        <time>2019-04-18T05:16:49Z</time>
      </trkpt>
      <trkpt lat="45.92717" lon="4.43035">
        <ele>637</ele>
        <time>2019-04-18T05:17:49Z</time>
      </trkpt>
      <trkpt lat="45.9271" lon="4.43044">
        <ele>637</ele>
        <time>2019-04-18T05:18:49Z</time>
      </trkpt>
      <trkpt lat="45.92707" lon="4.43054">
        <ele>637</ele>
        <time>2019-04-18T05:19:49Z</time>
      </trkpt>
      <trkpt lat="45.92706" lon="4.43067">
        <ele>638</ele>
        <time>2019-04-18T05:20:49Z</time>
      </trkpt>
      <trkpt lat="45.92706" lon="4.43112">
        <ele>637</ele>
        <time>2019-04-18T05:21:49Z</time>
      </trkpt>
      <trkpt lat="45.92702" lon="4.4314">
        <ele>635</ele>
        <time>2019-04-18T05:22:49Z</time>
      </trkpt>
      <trkpt lat="45.92695" lon="4.43164">
        <ele>634</ele>
        <time>2019-04-18T05:23:49Z</time>
      </trkpt>
      <trkpt lat="45.92683" lon="4.43191">
        <ele>633</ele>
        <time>2019-04-18T05:24:49Z</time>
      </trkpt>
      <trkpt lat="45.92629" lon="4.4329">
        <ele>632</ele>
        <time>2019-04-18T05:25:49Z</time>
      </trkpt>
      <trkpt lat="45.92574" lon="4.43382">
        <ele>630</ele>
        <time>2019-04-18T05:26:49Z</time>
      </trkpt>
      <trkpt lat="45.92529" lon="4.43437">
        <ele>625</ele>
        <time>2019-04-18T05:27:49Z</time>
      </trkpt>
      <trkpt lat="45.92512" lon="4.43451">
        <ele>622</ele>
        <time>2019-04-18T05:28:49Z</time>
      </trkpt>
      <trkpt lat="45.92495" lon="4.43456">
        <ele>621</ele>
        <time>2019-04-18T05:29:49Z</time>
      </trkpt>
      <trkpt lat="45.92437" lon="4.43452">
        <ele>617</ele>
        <time>2019-04-18T05:30:49Z</time>
      </trkpt>
      <trkpt lat="45.92402" lon="4.43445">
        <ele>617</ele>
        <time>2019-04-18T05:31:49Z</time>
      </trkpt>
      <trkpt lat="45.92379" lon="4.43447">
        <ele>617</ele>
        <time>2019-04-18T05:32:49Z</time>
      </trkpt>
      <trkpt lat="45.92363" lon="4.43453">
        <ele>615</ele>
        <time>2019-04-18T05:33:49Z</time>
      </trkpt>
      <trkpt lat="45.92346" lon="4.43465">
        <ele>612</ele>
        <time>2019-04-18T05:34:49Z</time>
      </trkpt>
      <trkpt lat="45.92328" lon="4.43484">
        <ele>608</ele>
        <time>2019-04-18T05:35:49Z</time>
      </trkpt>
      <trkpt lat="45.92308" lon="4.43509">
        <ele>602</ele>
        <time>2019-04-18T05:36:49Z</time>
      </trkpt>
      <trkpt lat="45.92284" lon="4.43534">
        <ele>596</ele>
        <time>2019-04-18T05:37:49Z</time>
      </trkpt>
      <trkpt lat="45.92281" lon="4.43542">
        <ele>595</ele>
        <time>2019-04-18T05:38:49Z</time>
      </trkpt>
      <trkpt lat="45.92282" lon="4.43567">
        <ele>590</ele>
        <time>2019-04-18T05:39:49Z</time>
      </trkpt>
      <trkpt lat="45.92282" lon="4.43577">
        <ele>588</ele>
        <time>2019-04-18T05:40:49Z</time>
      </trkpt>
      <trkpt lat="45.92279" lon="4.43581">
        <ele>587</ele>
        <time>2019-04-18T05:41:49Z</time>
      </trkpt>
      <trkpt lat="45.92272" lon="4.43581">
        <ele>587</ele>
        <time>2019-04-18T05:42:49Z</time>
      </trkpt>
      <trkpt lat="45.92263" lon="4.43577">
        <ele>589</ele>
        <time>2019-04-18T05:43:49Z</time>
      </trkpt>
      <trkpt lat="45.92242" lon="4.43565">
        <ele>590</ele>
        <time>2019-04-18T05:44:49Z</time>
      </trkpt>
      <trkpt lat="45.92222" lon="4.43549">
        <ele>589</ele>
        <time>2019-04-18T05:45:49Z</time>
      </trkpt>
      <trkpt lat="45.92208" lon="4.43525">
        <ele>591</ele>
        <time>2019-04-18T05:46:49Z</time>
      </trkpt>
      <trkpt lat="45.92186" lon="4.43502">
        <ele>592</ele>
        <time>2019-04-18T05:47:49Z</time>
      </trkpt>
      <trkpt lat="45.92162" lon="4.43491">
        <ele>592</ele>
        <time>2019-04-18T05:48:49Z</time>
      </trkpt>
      <trkpt lat="45.92061" lon="4.43512">
        <ele>593</ele>
        <time>2019-04-18T05:49:49Z</time>
      </trkpt>
      <trkpt lat="45.92025" lon="4.43529">
        <ele>595</ele>
        <time>2019-04-18T05:50:49Z</time>
      </trkpt>
      <trkpt lat="45.91997" lon="4.43555">
        <ele>594</ele>
        <time>2019-04-18T05:51:49Z</time>
      </trkpt>
      <trkpt lat="45.91934" lon="4.43634">
        <ele>596</ele>
        <time>2019-04-18T05:52:49Z</time>
      </trkpt>
      <trkpt lat="45.91907" lon="4.43673">
        <ele>598</ele>
        <time>2019-04-18T05:53:49Z</time>
      </trkpt>
      <trkpt lat="45.91872" lon="4.43742">
        <ele>591</ele>
        <time>2019-04-18T05:54:49Z</time>
      </trkpt>
      <trkpt lat="45.91846" lon="4.43776">
        <ele>588</ele>
        <time>2019-04-18T05:55:49Z</time>
      </trkpt>
      <trkpt lat="45.91827" lon="4.43792">
        <ele>588</ele>
        <time>2019-04-18T05:56:49Z</time>
      </trkpt>
      <trkpt lat="45.91809" lon="4.43794">
        <ele>589</ele>
        <time>2019-04-18T05:57:49Z</time>
      </trkpt>
      <trkpt lat="45.91775" lon="4.43784">
        <ele>595</ele>
        <time>2019-04-18T05:58:49Z</time>
      </trkpt>
      <trkpt lat="45.91757" lon="4.43782">
        <ele>597</ele>
        <time>2019-04-18T05:59:49Z</time>
      </trkpt>
      <trkpt lat="45.91736" lon="4.43788">
        <ele>598</ele>
        <time>2019-04-18T06:00:49Z</time>
      </trkpt>
      <trkpt lat="45.91723" lon="4.43798">
        <ele>597</ele>
        <time>2019-04-18T06:01:49Z</time>
      </trkpt>
      <trkpt lat="45.91646" lon="4.43885">
        <ele>593</ele>
        <time>2019-04-18T06:02:49Z</time>
      </trkpt>
      <trkpt lat="45.91618" lon="4.43913">
        <ele>592</ele>
        <time>2019-04-18T06:03:49Z</time>
      </trkpt>
      <trkpt lat="45.91616" lon="4.43919">
        <ele>592</ele>
        <time>2019-04-18T06:04:49Z</time>
      </trkpt>
      <trkpt lat="45.91628" lon="4.43937">
        <ele>592</ele>
        <time>2019-04-18T06:05:49Z</time>
      </trkpt>
      <trkpt lat="45.91635" lon="4.43958">
        <ele>592</ele>
        <time>2019-04-18T06:06:49Z</time>
      </trkpt>
      <trkpt lat="45.91652" lon="4.44036">
        <ele>591</ele>
        <time>2019-04-18T06:07:49Z</time>
      </trkpt>
      <trkpt lat="45.91664" lon="4.44104">
        <ele>591</ele>
        <time>2019-04-18T06:08:49Z</time>
      </trkpt>
      <trkpt lat="45.91668" lon="4.44147">
        <ele>590</ele>
        <time>2019-04-18T06:09:49Z</time>
      </trkpt>
      <trkpt lat="45.91663" lon="4.44193">
        <ele>588</ele>
        <time>2019-04-18T06:10:49Z</time>
      </trkpt>
      <trkpt lat="45.91658" lon="4.44218">
        <ele>586</ele>
        <time>2019-04-18T06:11:49Z</time>
      </trkpt>
      <trkpt lat="45.91648" lon="4.44242">
        <ele>585</ele>
        <time>2019-04-18T06:12:49Z</time>
      </trkpt>
      <trkpt lat="45.91602" lon="4.44333">
        <ele>581</ele>
        <time>2019-04-18T06:13:49Z</time>
      </trkpt>
      <trkpt lat="45.91598" lon="4.44363">
        <ele>578</ele>
        <time>2019-04-18T06:14:49Z</time>
      </trkpt>
      <trkpt lat="45.916" lon="4.44379">
        <ele>576</ele>
        <time>2019-04-18T06:15:49Z</time>
      </trkpt>
      <trkpt lat="45.91601" lon="4.44461">
        <ele>566</ele>
        <time>2019-04-18T06:16:49Z</time>
      </trkpt>
      <trkpt lat="45.91594" lon="4.44482">
        <ele>566</ele>
        <time>2019-04-18T06:17:49Z</time>
      </trkpt>
      <trkpt lat="45.91588" lon="4.44497">
        <ele>566</ele>
        <time>2019-04-18T06:18:49Z</time>
      </trkpt>
      <trkpt lat="45.91567" lon="4.44513">
        <ele>569</ele>
        <time>2019-04-18T06:19:49Z</time>
      </trkpt>
      <trkpt lat="45.91544" lon="4.44525">
        <ele>574</ele>
        <time>2019-04-18T06:20:49Z</time>
      </trkpt>
      <trkpt lat="45.91536" lon="4.44533">
        <ele>575</ele>
        <time>2019-04-18T06:21:49Z</time>
      </trkpt>
      <trkpt lat="45.91531" lon="4.44563">
        <ele>573</ele>
        <time>2019-04-18T06:22:49Z</time>
      </trkpt>
      <trkpt lat="45.91539" lon="4.44607">
        <ele>564</ele>
        <time>2019-04-18T06:23:49Z</time>
      </trkpt>
      <trkpt lat="45.91541" lon="4.44627">
        <ele>560</ele>
        <time>2019-04-18T06:24:49Z</time>
      </trkpt>
      <trkpt lat="45.9154" lon="4.44671">
        <ele>555</ele>
        <time>2019-04-18T06:25:49Z</time>
      </trkpt>
      <trkpt lat="45.91544" lon="4.44687">
        <ele>552</ele>
        <time>2019-04-18T06:26:49Z</time>
      </trkpt>
      <trkpt lat="45.91553" lon="4.44703">
        <ele>548</ele>
        <time>2019-04-18T06:27:49Z</time>
      </trkpt>
      <trkpt lat="45.91572" lon="4.44715">
        <ele>541</ele>
        <time>2019-04-18T06:28:49Z</time>
      </trkpt>
      <trkpt lat="45.91598" lon="4.44725">
        <ele>533</ele>
        <time>2019-04-18T06:29:49Z</time>
      </trkpt>
      <trkpt lat="45.9162" lon="4.44744">
        <ele>528</ele>
        <time>2019-04-18T06:30:49Z</time>
      </trkpt>
      <trkpt lat="45.91702" lon="4.4483">
        <ele>518</ele>
        <time>2019-04-18T06:31:49Z</time>
      </trkpt>
      <trkpt lat="45.9173" lon="4.44846">
        <ele>514</ele>
        <time>2019-04-18T06:32:49Z</time>
      </trkpt>
      <trkpt lat="45.91744" lon="4.4485">
        <ele>512</ele>
        <time>2019-04-18T06:33:49Z</time>
      </trkpt>
      <trkpt lat="45.9176" lon="4.44846">
        <ele>510</ele>
        <time>2019-04-18T06:34:49Z</time>
      </trkpt>
      <trkpt lat="45.91808" lon="4.44818">
        <ele>504</ele>
        <time>2019-04-18T06:35:49Z</time>
      </trkpt>
      <trkpt lat="45.91845" lon="4.44791">
        <ele>499</ele>
        <time>2019-04-18T06:36:49Z</time>
      </trkpt>
      <trkpt lat="45.91875" lon="4.44762">
        <ele>496</ele>
        <time>2019-04-18T06:37:49Z</time>
      </trkpt>
      <trkpt lat="45.91934" lon="4.44691">
        <ele>486</ele>
        <time>2019-04-18T06:38:49Z</time>
      </trkpt>
      <trkpt lat="45.91976" lon="4.44654">
        <ele>480</ele>
        <time>2019-04-18T06:39:49Z</time>
      </trkpt>
      <trkpt lat="45.92011" lon="4.44629">
        <ele>474</ele>
        <time>2019-04-18T06:40:49Z</time>
      </trkpt>
      <trkpt lat="45.92046" lon="4.4462">
        <ele>469</ele>
        <time>2019-04-18T06:41:49Z</time>
      </trkpt>
      <trkpt lat="45.92071" lon="4.4461">
        <ele>464</ele>
        <time>2019-04-18T06:42:49Z</time>
      </trkpt>
      <trkpt lat="45.9209" lon="4.44619">
        <ele>464</ele>
        <time>2019-04-18T06:43:49Z</time>
      </trkpt>
      <trkpt lat="45.92111" lon="4.44632">
        <ele>462</ele>
        <time>2019-04-18T06:44:49Z</time>
      </trkpt>
      <trkpt lat="45.92128" lon="4.44646">
        <ele>461</ele>
        <time>2019-04-18T06:45:49Z</time>
      </trkpt>
      <trkpt lat="45.92166" lon="4.44657">
        <ele>453</ele>
        <time>2019-04-18T06:46:49Z</time>
      </trkpt>
      <trkpt lat="45.9219" lon="4.44667">
        <ele>448</ele>
        <time>2019-04-18T06:47:49Z</time>
      </trkpt>
      <trkpt lat="45.92217" lon="4.44687">
        <ele>445</ele>
        <time>2019-04-18T06:48:49Z</time>
      </trkpt>
      <trkpt lat="45.92254" lon="4.44726">
        <ele>438</ele>
        <time>2019-04-18T06:49:49Z</time>
      </trkpt>
      <trkpt lat="45.92298" lon="4.44748">
        <ele>427</ele>
        <time>2019-04-18T06:50:49Z</time>
      </trkpt>
      <trkpt lat="45.92315" lon="4.44761">
        <ele>423</ele>
        <time>2019-04-18T06:51:49Z</time>
      </trkpt>
      <trkpt lat="45.92363" lon="4.44858">
        <ele>415</ele>
        <time>2019-04-18T06:52:49Z</time>
      </trkpt>
      <trkpt lat="45.92385" lon="4.44891">
        <ele>408</ele>
        <time>2019-04-18T06:53:49Z</time>
      </trkpt>
      <trkpt lat="45.92385" lon="4.44912">
        <ele>408</ele>
        <time>2019-04-18T06:54:49Z</time>
      </trkpt>
      <trkpt lat="45.92363" lon="4.45001">
        <ele>409</ele>
        <time>2019-04-18T06:55:49Z</time>
      </trkpt>
      <trkpt lat="45.92347" lon="4.45093">
        <ele>404</ele>
        <time>2019-04-18T06:56:49Z</time>
      </trkpt>
      <trkpt lat="45.92345" lon="4.45117">
        <ele>402</ele>
        <time>2019-04-18T06:57:49Z</time>
      </trkpt>
      <trkpt lat="45.92347" lon="4.45124">
        <ele>401</ele>
        <time>2019-04-18T06:58:49Z</time>
      </trkpt>
      <trkpt lat="45.9235" lon="4.45128">
        <ele>400</ele>
        <time>2019-04-18T06:59:49Z</time>
      </trkpt>
      <trkpt lat="45.92356" lon="4.45098">
        <ele>401</ele>
        <time>2019-04-18T07:00:49Z</time>
      </trkpt>
      <trkpt lat="45.92372" lon="4.45042">
        <ele>401</ele>
        <time>2019-04-18T07:01:49Z</time>
      </trkpt>
      <trkpt lat="45.92381" lon="4.45027">
        <ele>398</ele>
        <time>2019-04-18T07:02:49Z</time>
      </trkpt>
      <trkpt lat="45.92414" lon="4.44979">
        <ele>389</ele>
        <time>2019-04-18T07:03:49Z</time>
      </trkpt>
      <trkpt lat="45.92429" lon="4.44965">
        <ele>389</ele>
        <time>2019-04-18T07:04:49Z</time>
      </trkpt>
      <trkpt lat="45.92436" lon="4.44968">
        <ele>388</ele>
        <time>2019-04-18T07:05:49Z</time>
      </trkpt>
      <trkpt lat="45.92446" lon="4.44976">
        <ele>387</ele>
        <time>2019-04-18T07:06:49Z</time>
      </trkpt>
      <trkpt lat="45.92418" lon="4.45028">
        <ele>384</ele>
        <time>2019-04-18T07:07:49Z</time>
      </trkpt>
      <trkpt lat="45.9239" lon="4.45091">
        <ele>390</ele>
        <time>2019-04-18T07:08:49Z</time>
      </trkpt>
      <trkpt lat="45.92367" lon="4.45159">
        <ele>392</ele>
        <time>2019-04-18T07:09:49Z</time>
      </trkpt>
      <trkpt lat="45.92343" lon="4.45262">
        <ele>389</ele>
        <time>2019-04-18T07:10:49Z</time>
      </trkpt>
      <trkpt lat="45.92315" lon="4.45424">
        <ele>388</ele>
        <time>2019-04-18T07:11:49Z</time>
      </trkpt>
      <trkpt lat="45.92303" lon="4.45993">
        <ele>370</ele>
        <time>2019-04-18T07:12:49Z</time>
      </trkpt>
      <trkpt lat="45.92305" lon="4.46146">
        <ele>367</ele>
        <time>2019-04-18T07:13:49Z</time>
      </trkpt>
      <trkpt lat="45.92321" lon="4.46294">
        <ele>367</ele>
        <time>2019-04-18T07:14:49Z</time>
      </trkpt>
      <trkpt lat="45.92322" lon="4.46325">
        <ele>368</ele>
        <time>2019-04-18T07:15:49Z</time>
      </trkpt>
      <trkpt lat="45.92319" lon="4.46362">
        <ele>368</ele>
        <time>2019-04-18T07:16:49Z</time>
      </trkpt>
      <trkpt lat="45.92314" lon="4.46408">
        <ele>369</ele>
        <time>2019-04-18T07:17:49Z</time>
      </trkpt>
      <trkpt lat="45.92306" lon="4.46445">
        <ele>370</ele>
        <time>2019-04-18T07:18:49Z</time>
      </trkpt>
      <trkpt lat="45.92297" lon="4.46478">
        <ele>371</ele>
        <time>2019-04-18T07:19:49Z</time>
      </trkpt>
      <trkpt lat="45.92264" lon="4.46551">
        <ele>365</ele>
        <time>2019-04-18T07:20:49Z</time>
      </trkpt>
      <trkpt lat="45.92255" lon="4.46581">
        <ele>363</ele>
        <time>2019-04-18T07:21:49Z</time>
      </trkpt>
      <trkpt lat="45.92248" lon="4.46616">
        <ele>362</ele>
        <time>2019-04-18T07:22:49Z</time>
      </trkpt>
      <trkpt lat="45.92236" lon="4.46746">
        <ele>367</ele>
        <time>2019-04-18T07:23:49Z</time>
      </trkpt>
      <trkpt lat="45.92177" lon="4.47137">
        <ele>357</ele>
        <time>2019-04-18T07:24:49Z</time>
      </trkpt>
      <trkpt lat="45.92168" lon="4.47203">
        <ele>354</ele>
        <time>2019-04-18T07:25:49Z</time>
      </trkpt>
      <trkpt lat="45.92166" lon="4.47241">
        <ele>353</ele>
        <time>2019-04-18T07:26:49Z</time>
      </trkpt>
      <trkpt lat="45.92167" lon="4.47312">
        <ele>351</ele>
        <time>2019-04-18T07:27:49Z</time>
      </trkpt>
      <trkpt lat="45.92173" lon="4.47364">
        <ele>351</ele>
        <time>2019-04-18T07:28:49Z</time>
      </trkpt>
      <trkpt lat="45.9218" lon="4.4741">
        <ele>352</ele>
        <time>2019-04-18T07:29:49Z</time>
      </trkpt>
      <trkpt lat="45.92192" lon="4.47453">
        <ele>354</ele>
        <time>2019-04-18T07:30:49Z</time>
      </trkpt>
      <trkpt lat="45.92206" lon="4.475">
        <ele>355</ele>
        <time>2019-04-18T07:31:49Z</time>
      </trkpt>
      <trkpt lat="45.92266" lon="4.47658">
        <ele>350</ele>
        <time>2019-04-18T07:32:49Z</time>
      </trkpt>
      <trkpt lat="45.92274" lon="4.47693">
        <ele>350</ele>
        <time>2019-04-18T07:33:49Z</time>
      </trkpt>
      <trkpt lat="45.9228" lon="4.47729">
        <ele>351</ele>
        <time>2019-04-18T07:34:49Z</time>
      </trkpt>
      <trkpt lat="45.92282" lon="4.47762">
        <ele>350</ele>
        <time>2019-04-18T07:35:49Z</time>
      </trkpt>
      <trkpt lat="45.92281" lon="4.47811">
        <ele>349</ele>
        <time>2019-04-18T07:36:49Z</time>
      </trkpt>
      <trkpt lat="45.92279" lon="4.47839">
        <ele>349</ele>
        <time>2019-04-18T07:37:49Z</time>
      </trkpt>
      <trkpt lat="45.92274" lon="4.47868">
        <ele>348</ele>
        <time>2019-04-18T07:38:49Z</time>
      </trkpt>
      <trkpt lat="45.92267" lon="4.47896">
        <ele>347</ele>
        <time>2019-04-18T07:39:49Z</time>
      </trkpt>
      <trkpt lat="45.92254" lon="4.47937">
        <ele>346</ele>
        <time>2019-04-18T07:40:49Z</time>
      </trkpt>
      <trkpt lat="45.92236" lon="4.47978">
        <ele>348</ele>
        <time>2019-04-18T07:41:49Z</time>
      </trkpt>
      <trkpt lat="45.91951" lon="4.48512">
        <ele>343</ele>
        <time>2019-04-18T07:42:49Z</time>
      </trkpt>
      <trkpt lat="45.9193" lon="4.48548">
        <ele>342</ele>
        <time>2019-04-18T07:43:49Z</time>
      </trkpt>
      <trkpt lat="45.91886" lon="4.48617">
        <ele>340</ele>
        <time>2019-04-18T07:44:49Z</time>
      </trkpt>
      <trkpt lat="45.91866" lon="4.48654">
        <ele>338</ele>
        <time>2019-04-18T07:45:49Z</time>
      </trkpt>
      <trkpt lat="45.91853" lon="4.48688">
        <ele>336</ele>
        <time>2019-04-18T07:46:49Z</time>
      </trkpt>
      <trkpt lat="45.91841" lon="4.48728">
        <ele>335</ele>
        <time>2019-04-18T07:47:49Z</time>
      </trkpt>
      <trkpt lat="45.91804" lon="4.48871">
        <ele>333</ele>
        <time>2019-04-18T07:48:49Z</time>
      </trkpt>
      <trkpt lat="45.91791" lon="4.48909">
        <ele>329</ele>
        <time>2019-04-18T07:49:49Z</time>
      </trkpt>
      <trkpt lat="45.91777" lon="4.48941">
        <ele>329</ele>
        <time>2019-04-18T07:50:49Z</time>
      </trkpt>
      <trkpt lat="45.91758" lon="4.48975">
        <ele>329</ele>
        <time>2019-04-18T07:51:49Z</time>
      </trkpt>
      <trkpt lat="45.91742" lon="4.48998">
        <ele>331</ele>
        <time>2019-04-18T07:52:49Z</time>
      </trkpt>
      <trkpt lat="45.91724" lon="4.49019">
        <ele>334</ele>
        <time>2019-04-18T07:53:49Z</time>
      </trkpt>
      <trkpt lat="45.91662" lon="4.49076">
        <ele>336</ele>
        <time>2019-04-18T07:54:49Z</time>
      </trkpt>
      <trkpt lat="45.91629" lon="4.49115">
        <ele>335</ele>
        <time>2019-04-18T07:55:49Z</time>
      </trkpt>
      <trkpt lat="45.91603" lon="4.49155">
        <ele>333</ele>
        <time>2019-04-18T07:56:49Z</time>
      </trkpt>
      <trkpt lat="45.91536" lon="4.49291">
        <ele>336</ele>
        <time>2019-04-18T07:57:49Z</time>
      </trkpt>
      <trkpt lat="45.91521" lon="4.49334">
        <ele>336</ele>
        <time>2019-04-18T07:58:49Z</time>
      </trkpt>
      <trkpt lat="45.91504" lon="4.49386">
        <ele>339</ele>
        <time>2019-04-18T07:59:49Z</time>
      </trkpt>
      <trkpt lat="45.91481" lon="4.49443">
        <ele>343</ele>
        <time>2019-04-18T08:00:49Z</time>
      </trkpt>
      <trkpt lat="45.91453" lon="4.49492">
        <ele>341</ele>
        <time>2019-04-18T08:01:49Z</time>
      </trkpt>
      <trkpt lat="45.9136" lon="4.4959">
        <ele>331</ele>
        <time>2019-04-18T08:02:49Z</time>
      </trkpt>
      <trkpt lat="45.91322" lon="4.49644">
        <ele>329</ele>
        <time>2019-04-18T08:03:49Z</time>
      </trkpt>
      <trkpt lat="45.91296" lon="4.49705">
        <ele>330</ele>
        <time>2019-04-18T08:04:49Z</time>
      </trkpt>
      <trkpt lat="45.9127" lon="4.49816">
        <ele>329</ele>
        <time>2019-04-18T08:05:49Z</time>
      </trkpt>
      <trkpt lat="45.91252" lon="4.49863">
        <ele>327</ele>
        <time>2019-04-18T08:06:49Z</time>
      </trkpt>
      <trkpt lat="45.91227" lon="4.49911">
        <ele>326</ele>
        <time>2019-04-18T08:07:49Z</time>
      </trkpt>
      <trkpt lat="45.91189" lon="4.49957">
        <ele>324</ele>
        <time>2019-04-18T08:08:49Z</time>
      </trkpt>
      <trkpt lat="45.91161" lon="4.49998">
        <ele>325</ele>
        <time>2019-04-18T08:09:49Z</time>
      </trkpt>
      <trkpt lat="45.91134" lon="4.50057">
        <ele>326</ele>
        <time>2019-04-18T08:10:49Z</time>
      </trkpt>
      <trkpt lat="45.91105" lon="4.50184">
        <ele>325</ele>
        <time>2019-04-18T08:11:49Z</time>
      </trkpt>
      <trkpt lat="45.91074" lon="4.50304">
        <ele>325</ele>
        <time>2019-04-18T08:12:49Z</time>
      </trkpt>
      <trkpt lat="45.91052" lon="4.50348">
        <ele>323</ele>
        <time>2019-04-18T08:13:49Z</time>
      </trkpt>
      <trkpt lat="45.9103" lon="4.50385">
        <ele>320</ele>
        <time>2019-04-18T08:14:49Z</time>
      </trkpt>
      <trkpt lat="45.91013" lon="4.50422">
        <ele>317</ele>
        <time>2019-04-18T08:15:49Z</time>
      </trkpt>
      <trkpt lat="45.91002" lon="4.50455">
        <ele>315</ele>
        <time>2019-04-18T08:16:49Z</time>
      </trkpt>
      <trkpt lat="45.90995" lon="4.5049">
        <ele>315</ele>
        <time>2019-04-18T08:17:49Z</time>
      </trkpt>
      <trkpt lat="45.90992" lon="4.50526">
        <ele>315</ele>
        <time>2019-04-18T08:18:49Z</time>
      </trkpt>
      <trkpt lat="45.9099" lon="4.50574">
        <ele>316</ele>
        <time>2019-04-18T08:19:49Z</time>
      </trkpt>
      <trkpt lat="45.90991" lon="4.50609">
        <ele>315</ele>
        <time>2019-04-18T08:20:49Z</time>
      </trkpt>
      <trkpt lat="45.91012" lon="4.50715">
        <ele>314</ele>
        <time>2019-04-18T08:21:49Z</time>
      </trkpt>
      <trkpt lat="45.91015" lon="4.5074">
        <ele>314</ele>
        <time>2019-04-18T08:22:49Z</time>
      </trkpt>
      <trkpt lat="45.91016" lon="4.50763">
        <ele>314</ele>
        <time>2019-04-18T08:23:49Z</time>
      </trkpt>
      <trkpt lat="45.91014" lon="4.50785">
        <ele>314</ele>
        <time>2019-04-18T08:24:49Z</time>
      </trkpt>
      <trkpt lat="45.9101" lon="4.50806">
        <ele>313</ele>
        <time>2019-04-18T08:25:49Z</time>
      </trkpt>
      <trkpt lat="45.91002" lon="4.50834">
        <ele>312</ele>
        <time>2019-04-18T08:26:49Z</time>
      </trkpt>
      <trkpt lat="45.90989" lon="4.5087">
        <ele>312</ele>
        <time>2019-04-18T08:27:49Z</time>
      </trkpt>
      <trkpt lat="45.90981" lon="4.50902">
        <ele>313</ele>
        <time>2019-04-18T08:28:49Z</time>
      </trkpt>
      <trkpt lat="45.90976" lon="4.50935">
        <ele>312</ele>
        <time>2019-04-18T08:29:49Z</time>
      </trkpt>
      <trkpt lat="45.9097" lon="4.51018">
        <ele>309</ele>
        <time>2019-04-18T08:30:49Z</time>
      </trkpt>
      <trkpt lat="45.90969" lon="4.51115">
        <ele>308</ele>
        <time>2019-04-18T08:31:49Z</time>
      </trkpt>
      <trkpt lat="45.9097" lon="4.51204">
        <ele>310</ele>
        <time>2019-04-18T08:32:49Z</time>
      </trkpt>
      <trkpt lat="45.90951" lon="4.5135">
        <ele>311</ele>
        <time>2019-04-18T08:33:49Z</time>
      </trkpt>
      <trkpt lat="45.90932" lon="4.51441">
        <ele>308</ele>
        <time>2019-04-18T08:34:49Z</time>
      </trkpt>
      <trkpt lat="45.9085" lon="4.51675">
        <ele>305</ele>
        <time>2019-04-18T08:35:49Z</time>
      </trkpt>
      <trkpt lat="45.90783" lon="4.51919">
        <ele>308</ele>
        <time>2019-04-18T08:36:49Z</time>
      </trkpt>
      <trkpt lat="45.90772" lon="4.52019">
        <ele>311</ele>
        <time>2019-04-18T08:37:49Z</time>
      </trkpt>
      <trkpt lat="45.90753" lon="4.52061">
        <ele>309</ele>
        <time>2019-04-18T08:38:49Z</time>
      </trkpt>
      <trkpt lat="45.90698" lon="4.52163">
        <ele>311</ele>
        <time>2019-04-18T08:39:49Z</time>
      </trkpt>
      <trkpt lat="45.90606" lon="4.52318">
        <ele>306</ele>
        <time>2019-04-18T08:40:49Z</time>
      </trkpt>
      <trkpt lat="45.90545" lon="4.52496">
        <ele>308</ele>
        <time>2019-04-18T08:41:49Z</time>
      </trkpt>
      <trkpt lat="45.90535" lon="4.52571">
        <ele>307</ele>
        <time>2019-04-18T08:42:49Z</time>
      </trkpt>
      <trkpt lat="45.90521" lon="4.52615">
        <ele>304</ele>
        <time>2019-04-18T08:43:49Z</time>
      </trkpt>
      <trkpt lat="45.90479" lon="4.52713">
        <ele>303</ele>
        <time>2019-04-18T08:44:49Z</time>
      </trkpt>
      <trkpt lat="45.90452" lon="4.52806">
        <ele>300</ele>
        <time>2019-04-18T08:45:49Z</time>
      </trkpt>
      <trkpt lat="45.90403" lon="4.53103">
        <ele>295</ele>
        <time>2019-04-18T08:46:49Z</time>
      </trkpt>
      <trkpt lat="45.90379" lon="4.53212">
        <ele>293</ele>
        <time>2019-04-18T08:47:49Z</time>
      </trkpt>
      <trkpt lat="45.90305" lon="4.53489">
        <ele>286</ele>
        <time>2019-04-18T08:48:49Z</time>
      </trkpt>
      <trkpt lat="45.90288" lon="4.53597">
        <ele>286</ele>
        <time>2019-04-18T08:49:49Z</time>
      </trkpt>
      <trkpt lat="45.90285" lon="4.53676">
        <ele>286</ele>
        <time>2019-04-18T08:50:49Z</time>
      </trkpt>
      <trkpt lat="45.9031" lon="4.54297">
        <ele>282</ele>
        <time>2019-04-18T08:51:49Z</time>
      </trkpt>
      <trkpt lat="45.90343" lon="4.54475">
        <ele>277</ele>
        <time>2019-04-18T08:52:49Z</time>
      </trkpt>
      <trkpt lat="45.90349" lon="4.54541">
        <ele>276</ele>
        <time>2019-04-18T08:53:49Z</time>
      </trkpt>
      <trkpt lat="45.9034" lon="4.54606">
        <ele>277</ele>
        <time>2019-04-18T08:54:49Z</time>
      </trkpt>
      <trkpt lat="45.90323" lon="4.54658">
        <ele>277</ele>
        <time>2019-04-18T08:55:49Z</time>
      </trkpt>
      <trkpt lat="45.90263" lon="4.54768">
        <ele>275</ele>
        <time>2019-04-18T08:56:49Z</time>
      </trkpt>
      <trkpt lat="45.90243" lon="4.54814">
        <ele>275</ele>
        <time>2019-04-18T08:57:49Z</time>
      </trkpt>
      <trkpt lat="45.90184" lon="4.55096">
        <ele>279</ele>
        <time>2019-04-18T08:58:49Z</time>
      </trkpt>
      <trkpt lat="45.90176" lon="4.55177">
        <ele>276</ele>
        <time>2019-04-18T08:59:49Z</time>
      </trkpt>
      <trkpt lat="45.90177" lon="4.55221">
        <ele>273</ele>
        <time>2019-04-18T09:00:49Z</time>
      </trkpt>
      <trkpt lat="45.90182" lon="4.55268">
        <ele>272</ele>
        <time>2019-04-18T09:01:49Z</time>
      </trkpt>
      <trkpt lat="45.90201" lon="4.55378">
        <ele>276</ele>
        <time>2019-04-18T09:02:49Z</time>
      </trkpt>
      <trkpt lat="45.90205" lon="4.55436">
        <ele>279</ele>
        <time>2019-04-18T09:03:49Z</time>
      </trkpt>
      <trkpt lat="45.90196" lon="4.55574">
        <ele>282</ele>
        <time>2019-04-18T09:04:49Z</time>
      </trkpt>
      <trkpt lat="45.90171" lon="4.55669">
        <ele>280</ele>
        <time>2019-04-18T09:05:49Z</time>
      </trkpt>
      <trkpt lat="45.90146" lon="4.55744">
        <ele>281</ele>
        <time>2019-04-18T09:06:49Z</time>
      </trkpt>
      <trkpt lat="45.90113" lon="4.55837">
        <ele>280</ele>
        <time>2019-04-18T09:07:49Z</time>
      </trkpt>
      <trkpt lat="45.90107" lon="4.55862">
        <ele>280</ele>
        <time>2019-04-18T09:08:49Z</time>
      </trkpt>
      <trkpt lat="45.90105" lon="4.55888">
        <ele>280</ele>
        <time>2019-04-18T09:09:49Z</time>
      </trkpt>
      <trkpt lat="45.90122" lon="4.56108">
        <ele>279</ele>
        <time>2019-04-18T09:10:49Z</time>
      </trkpt>
      <trkpt lat="45.9014" lon="4.5621">
        <ele>280</ele>
        <time>2019-04-18T09:11:49Z</time>
      </trkpt>
      <trkpt lat="45.90157" lon="4.56278">
        <ele>279</ele>
        <time>2019-04-18T09:12:49Z</time>
      </trkpt>
      <trkpt lat="45.90289" lon="4.56607">
        <ele>275</ele>
        <time>2019-04-18T09:13:49Z</time>
      </trkpt>
      <trkpt lat="45.90326" lon="4.5667">
        <ele>272</ele>
        <time>2019-04-18T09:14:49Z</time>
      </trkpt>
      <trkpt lat="45.90428" lon="4.5681">
        <ele>267</ele>
        <time>2019-04-18T09:15:49Z</time>
      </trkpt>
      <trkpt lat="45.90444" lon="4.56845">
        <ele>266</ele>
        <time>2019-04-18T09:16:49Z</time>
      </trkpt>
      <trkpt lat="45.90472" lon="4.56945">
        <ele>266</ele>
        <time>2019-04-18T09:17:49Z</time>
      </trkpt>
      <trkpt lat="45.90508" lon="4.57103">
        <ele>257</ele>
        <time>2019-04-18T09:18:49Z</time>
      </trkpt>
      <trkpt lat="45.90525" lon="4.57149">
        <ele>256</ele>
        <time>2019-04-18T09:19:49Z</time>
      </trkpt>
      <trkpt lat="45.90551" lon="4.57196">
        <ele>256</ele>
        <time>2019-04-18T09:20:49Z</time>
      </trkpt>
      <trkpt lat="45.90564" lon="4.57236">
        <ele>252</ele>
        <time>2019-04-18T09:21:49Z</time>
      </trkpt>
      <trkpt lat="45.90566" lon="4.57245">
        <ele>251</ele>
        <time>2019-04-18T09:22:49Z</time>
      </trkpt>
      <trkpt lat="45.90558" lon="4.57295">
        <ele>249</ele>
        <time>2019-04-18T09:23:49Z</time>
      </trkpt>
      <trkpt lat="45.90551" lon="4.57297">
        <ele>249</ele>
        <time>2019-04-18T09:24:49Z</time>
      </trkpt>
      <trkpt lat="45.90545" lon="4.57304">
        <ele>249</ele>
        <time>2019-04-18T09:25:49Z</time>
      </trkpt>
      <trkpt lat="45.90544" lon="4.57316">
        <ele>249</ele>
        <time>2019-04-18T09:26:49Z</time>
      </trkpt>
      <trkpt lat="45.90545" lon="4.57322">
        <ele>249</ele>
        <time>2019-04-18T09:27:49Z</time>
      </trkpt>
      <trkpt lat="45.90552" lon="4.5733">
        <ele>248</ele>
        <time>2019-04-18T09:28:49Z</time>
      </trkpt>
      <trkpt lat="45.90556" lon="4.57332">
        <ele>248</ele>
        <time>2019-04-18T09:29:49Z</time>
      </trkpt>
      <trkpt lat="45.90564" lon="4.57328">
        <ele>247</ele>
        <time>2019-04-18T09:30:49Z</time>
      </trkpt>
      <trkpt lat="45.90567" lon="4.57323">
        <ele>247</ele>
        <time>2019-04-18T09:31:49Z</time>
      </trkpt>
      <trkpt lat="45.9058" lon="4.57335">
        <ele>245</ele>
        <time>2019-04-18T09:32:49Z</time>
      </trkpt>
      <trkpt lat="45.90595" lon="4.57338">
        <ele>245</ele>
        <time>2019-04-18T09:33:49Z</time>
      </trkpt>
      <trkpt lat="45.90623" lon="4.5734">
        <ele>245</ele>
        <time>2019-04-18T09:34:49Z</time>
      </trkpt>
      <trkpt lat="45.90696" lon="4.57395">
        <ele>247</ele>
        <time>2019-04-18T09:35:49Z</time>
      </trkpt>
      <trkpt lat="45.907" lon="4.57406">
        <ele>247</ele>
        <time>2019-04-18T09:36:49Z</time>
      </trkpt>
      <trkpt lat="45.90702" lon="4.57428">
        <ele>248</ele>
        <time>2019-04-18T09:37:49Z</time>
      </trkpt>
      <trkpt lat="45.90698" lon="4.57452">
        <ele>248</ele>
        <time>2019-04-18T09:38:49Z</time>
      </trkpt>
      <trkpt lat="45.90692" lon="4.57472">
        <ele>248</ele>
        <time>2019-04-18T09:39:49Z</time>
      </trkpt>
      <trkpt lat="45.90681" lon="4.57524">
        <ele>247</ele>
        <time>2019-04-18T09:40:49Z</time>
      </trkpt>
      <trkpt lat="45.90658" lon="4.57689">
        <ele>243</ele>
        <time>2019-04-18T09:41:49Z</time>
      </trkpt>
      <trkpt lat="45.90643" lon="4.57747">
        <ele>243</ele>
        <time>2019-04-18T09:42:49Z</time>
      </trkpt>
      <trkpt lat="45.9064" lon="4.57747">
        <ele>243</ele>
        <time>2019-04-18T09:43:49Z</time>
      </trkpt>
      <trkpt lat="45.90634" lon="4.57753">
        <ele>244</ele>
        <time>2019-04-18T09:44:49Z</time>
      </trkpt>
      <trkpt lat="45.90632" lon="4.57758">
        <ele>244</ele>
        <time>2019-04-18T09:45:49Z</time>
      </trkpt>
      <trkpt lat="45.90631" lon="4.57763">
        <ele>244</ele>
        <time>2019-04-18T09:46:49Z</time>
      </trkpt>
      <trkpt lat="45.90633" lon="4.57774">
        <ele>245</ele>
        <time>2019-04-18T09:47:49Z</time>
      </trkpt>
      <trkpt lat="45.90629" lon="4.57797">
        <ele>247</ele>
        <time>2019-04-18T09:48:49Z</time>
      </trkpt>
      <trkpt lat="45.90608" lon="4.57838">
        <ele>248</ele>
        <time>2019-04-18T09:49:49Z</time>
      </trkpt>
      <trkpt lat="45.90575" lon="4.57886">
        <ele>249</ele>
        <time>2019-04-18T09:50:49Z</time>
      </trkpt>
      <trkpt lat="45.90357" lon="4.58131">
        <ele>250</ele>
        <time>2019-04-18T09:51:49Z</time>
      </trkpt>
      <trkpt lat="45.90295" lon="4.58228">
        <ele>247</ele>
        <time>2019-04-18T09:52:49Z</time>
      </trkpt>
      <trkpt lat="45.90192" lon="4.58403">
        <ele>241</ele>
        <time>2019-04-18T09:53:49Z</time>
      </trkpt>
      <trkpt lat="45.90199" lon="4.58431">
        <ele>242</ele>
        <time>2019-04-18T09:54:49Z</time>
      </trkpt>
      <trkpt lat="45.90211" lon="4.58453">
        <ele>244</ele>
        <time>2019-04-18T09:55:49Z</time>
      </trkpt>
      <trkpt lat="45.90249" lon="4.58511">
        <ele>252</ele>
        <time>2019-04-18T09:56:49Z</time>
      </trkpt>
      <trkpt lat="45.90319" lon="4.58553">
        <ele>253</ele>
        <time>2019-04-18T09:57:49Z</time>
      </trkpt>
      <trkpt lat="45.90361" lon="4.58597">
        <ele>255</ele>
        <time>2019-04-18T09:58:49Z</time>
      </trkpt>
      <trkpt lat="45.90398" lon="4.58648">
        <ele>259</ele>
        <time>2019-04-18T09:59:49Z</time>
      </trkpt>
      <trkpt lat="45.90484" lon="4.58724">
        <ele>261</ele>
        <time>2019-04-18T10:00:49Z</time>
      </trkpt>
      <trkpt lat="45.90609" lon="4.58822">
        <ele>267</ele>
        <time>2019-04-18T10:01:49Z</time>
      </trkpt>
      <trkpt lat="45.90878" lon="4.59064">
        <ele>286</ele>
        <time>2019-04-18T10:02:49Z</time>
      </trkpt>
      <trkpt lat="45.91057" lon="4.59198">
        <ele>300</ele>
        <time>2019-04-18T10:03:49Z</time>
      </trkpt>
      <trkpt lat="45.91131" lon="4.59245">
        <ele>305</ele>
        <time>2019-04-18T10:04:49Z</time>
      </trkpt>
      <trkpt lat="45.91165" lon="4.59237">
        <ele>300</ele>
        <time>2019-04-18T10:05:49Z</time>
      </trkpt>
      <trkpt lat="45.91189" lon="4.59237">
        <ele>298</ele>
        <time>2019-04-18T10:06:49Z</time>
      </trkpt>
      <trkpt lat="45.91225" lon="4.59252">
        <ele>297</ele>
        <time>2019-04-18T10:07:49Z</time>
      </trkpt>
      <trkpt lat="45.91303" lon="4.59324">
        <ele>301</ele>
        <time>2019-04-18T10:08:49Z</time>
      </trkpt>
      <trkpt lat="45.9137" lon="4.59373">
        <ele>300</ele>
        <time>2019-04-18T10:09:49Z</time>
      </trkpt>
      <trkpt lat="45.91381" lon="4.59391">
        <ele>301</ele>
        <time>2019-04-18T10:10:49Z</time>
      </trkpt>
      <trkpt lat="45.91389" lon="4.59414">
        <ele>302</ele>
        <time>2019-04-18T10:11:49Z</time>
      </trkpt>
      <trkpt lat="45.9139" lon="4.59442">
        <ele>303</ele>
        <time>2019-04-18T10:12:49Z</time>
      </trkpt>
      <trkpt lat="45.91383" lon="4.59472">
        <ele>304</ele>
        <time>2019-04-18T10:13:49Z</time>
      </trkpt>
      <trkpt lat="45.91367" lon="4.59501">
        <ele>306</ele>
        <time>2019-04-18T10:14:49Z</time>
      </trkpt>
      <trkpt lat="45.91309" lon="4.59569">
        <ele>311</ele>
        <time>2019-04-18T10:15:49Z</time>
      </trkpt>
      <trkpt lat="45.91292" lon="4.59602">
        <ele>313</ele>
        <time>2019-04-18T10:16:49Z</time>
      </trkpt>
      <trkpt lat="45.91285" lon="4.59617">
        <ele>313</ele>
        <time>2019-04-18T10:17:49Z</time>
      </trkpt>
      <trkpt lat="45.91285" lon="4.59662">
        <ele>315</ele>
        <time>2019-04-18T10:18:49Z</time>
      </trkpt>
      <trkpt lat="45.91291" lon="4.597">
        <ele>316</ele>
        <time>2019-04-18T10:19:49Z</time>
      </trkpt>
      <trkpt lat="45.91333" lon="4.59853">
        <ele>324</ele>
        <time>2019-04-18T10:20:49Z</time>
      </trkpt>
      <trkpt lat="45.91336" lon="4.59886">
        <ele>325</ele>
        <time>2019-04-18T10:21:49Z</time>
      </trkpt>
      <trkpt lat="45.91332" lon="4.59925">
        <ele>326</ele>
        <time>2019-04-18T10:22:49Z</time>
      </trkpt>
      <trkpt lat="45.91322" lon="4.59953">
        <ele>328</ele>
        <time>2019-04-18T10:23:49Z</time>
      </trkpt>
      <trkpt lat="45.91193" lon="4.60151">
        <ele>340</ele>
        <time>2019-04-18T10:24:49Z</time>
      </trkpt>
      <trkpt lat="45.91166" lon="4.60202">
        <ele>342</ele>
        <time>2019-04-18T10:25:49Z</time>
      </trkpt>
      <trkpt lat="45.91159" lon="4.60254">
        <ele>344</ele>
        <time>2019-04-18T10:26:49Z</time>
      </trkpt>
      <trkpt lat="45.91157" lon="4.60458">
        <ele>349</ele>
        <time>2019-04-18T10:27:49Z</time>
      </trkpt>
      <trkpt lat="45.91173" lon="4.60537">
        <ele>353</ele>
        <time>2019-04-18T10:28:49Z</time>
      </trkpt>
      <trkpt lat="45.91206" lon="4.60617">
        <ele>357</ele>
        <time>2019-04-18T10:29:49Z</time>
      </trkpt>
      <trkpt lat="45.91233" lon="4.60661">
        <ele>359</ele>
        <time>2019-04-18T10:30:49Z</time>
      </trkpt>
      <trkpt lat="45.91274" lon="4.60731">
        <ele>361</ele>
        <time>2019-04-18T10:31:49Z</time>
      </trkpt>
      <trkpt lat="45.91299" lon="4.60778">
        <ele>363</ele>
        <time>2019-04-18T10:32:49Z</time>
      </trkpt>
      <trkpt lat="45.91337" lon="4.60838">
        <ele>365</ele>
        <time>2019-04-18T10:33:49Z</time>
      </trkpt>
      <trkpt lat="45.91447" lon="4.61028">
        <ele>370</ele>
        <time>2019-04-18T10:34:49Z</time>
      </trkpt>
      <trkpt lat="45.91527" lon="4.61173">
        <ele>369</ele>
        <time>2019-04-18T10:35:49Z</time>
      </trkpt>
      <trkpt lat="45.91637" lon="4.61318">
        <ele>370</ele>
        <time>2019-04-18T10:36:49Z</time>
      </trkpt>
      <trkpt lat="45.91655" lon="4.61346">
        <ele>370</ele>
        <time>2019-04-18T10:37:49Z</time>
      </trkpt>
      <trkpt lat="45.91667" lon="4.61369">
        <ele>370</ele>
        <time>2019-04-18T10:38:49Z</time>
      </trkpt>
      <trkpt lat="45.91679" lon="4.61417">
        <ele>367</ele>
        <time>2019-04-18T10:39:49Z</time>
      </trkpt>
      <trkpt lat="45.91679" lon="4.61451">
        <ele>367</ele>
        <time>2019-04-18T10:40:49Z</time>
      </trkpt>
      <trkpt lat="45.91669" lon="4.61492">
        <ele>365</ele>
        <time>2019-04-18T10:41:49Z</time>
      </trkpt>
      <trkpt lat="45.91652" lon="4.61533">
        <ele>365</ele>
        <time>2019-04-18T10:42:49Z</time>
      </trkpt>
      <trkpt lat="45.91591" lon="4.61651">
        <ele>365</ele>
        <time>2019-04-18T10:43:49Z</time>
      </trkpt>
      <trkpt lat="45.91583" lon="4.61685">
        <ele>365</ele>
        <time>2019-04-18T10:44:49Z</time>
      </trkpt>
      <trkpt lat="45.91582" lon="4.61707">
        <ele>365</ele>
        <time>2019-04-18T10:45:49Z</time>
      </trkpt>
      <trkpt lat="45.91585" lon="4.61731">
        <ele>365</ele>
        <time>2019-04-18T10:46:49Z</time>
      </trkpt>
      <trkpt lat="45.91601" lon="4.61765">
        <ele>365</ele>
        <time>2019-04-18T10:47:49Z</time>
      </trkpt>
      <trkpt lat="45.91665" lon="4.61873">
        <ele>360</ele>
        <time>2019-04-18T10:48:49Z</time>
      </trkpt>
      <trkpt lat="45.91726" lon="4.61932">
        <ele>355</ele>
        <time>2019-04-18T10:49:49Z</time>
      </trkpt>
      <trkpt lat="45.91777" lon="4.61986">
        <ele>351</ele>
        <time>2019-04-18T10:50:49Z</time>
      </trkpt>
      <trkpt lat="45.91826" lon="4.62028">
        <ele>350</ele>
        <time>2019-04-18T10:51:49Z</time>
      </trkpt>
      <trkpt lat="45.91867" lon="4.62075">
        <ele>348</ele>
        <time>2019-04-18T10:52:49Z</time>
      </trkpt>
      <trkpt lat="45.92108" lon="4.62415">
        <ele>341</ele>
        <time>2019-04-18T10:53:49Z</time>
      </trkpt>
      <trkpt lat="45.92148" lon="4.62481">
        <ele>337</ele>
        <time>2019-04-18T10:54:49Z</time>
      </trkpt>
      <trkpt lat="45.92396" lon="4.62952">
        <ele>340</ele>
        <time>2019-04-18T10:55:49Z</time>
      </trkpt>
      <trkpt lat="45.9242" lon="4.62995">
        <ele>337</ele>
        <time>2019-04-18T10:56:49Z</time>
      </trkpt>
      <trkpt lat="45.9245" lon="4.63071">
        <ele>336</ele>
        <time>2019-04-18T10:57:49Z</time>
      </trkpt>
      <trkpt lat="45.92467" lon="4.63138">
        <ele>335</ele>
        <time>2019-04-18T10:58:49Z</time>
      </trkpt>
      <trkpt lat="45.92483" lon="4.63184">
        <ele>334</ele>
        <time>2019-04-18T10:59:49Z</time>
      </trkpt>
      <trkpt lat="45.92704" lon="4.64066">
        <ele>330</ele>
        <time>2019-04-18T11:00:49Z</time>
      </trkpt>
      <trkpt lat="45.92747" lon="4.64249">
        <ele>328</ele>
        <time>2019-04-18T11:01:49Z</time>
      </trkpt>
      <trkpt lat="45.92793" lon="4.64421">
        <ele>325</ele>
        <time>2019-04-18T11:02:49Z</time>
      </trkpt>
      <trkpt lat="45.9282" lon="4.64495">
        <ele>322</ele>
        <time>2019-04-18T11:03:49Z</time>
      </trkpt>
      <trkpt lat="45.92808" lon="4.64522">
        <ele>322</ele>
        <time>2019-04-18T11:04:49Z</time>
      </trkpt>
      <trkpt lat="45.92813" lon="4.64805">
        <ele>318</ele>
        <time>2019-04-18T11:05:49Z</time>
      </trkpt>
      <trkpt lat="45.92817" lon="4.64857">
        <ele>317</ele>
        <time>2019-04-18T11:06:49Z</time>
      </trkpt>
      <trkpt lat="45.92812" lon="4.65036">
        <ele>315</ele>
        <time>2019-04-18T11:07:49Z</time>
      </trkpt>
      <trkpt lat="45.92792" lon="4.65116">
        <ele>311</ele>
        <time>2019-04-18T11:08:49Z</time>
      </trkpt>
      <trkpt lat="45.92745" lon="4.65251">
        <ele>307</ele>
        <time>2019-04-18T11:09:49Z</time>
      </trkpt>
      <trkpt lat="45.92685" lon="4.65511">
        <ele>302</ele>
        <time>2019-04-18T11:10:49Z</time>
      </trkpt>
      <trkpt lat="45.92683" lon="4.65529">
        <ele>302</ele>
        <time>2019-04-18T11:11:49Z</time>
      </trkpt>
      <trkpt lat="45.92683" lon="4.65566">
        <ele>301</ele>
        <time>2019-04-18T11:12:49Z</time>
      </trkpt>
      <trkpt lat="45.92697" lon="4.65648">
        <ele>305</ele>
        <time>2019-04-18T11:13:49Z</time>
      </trkpt>
      <trkpt lat="45.9272" lon="4.65802">
        <ele>315</ele>
        <time>2019-04-18T11:14:49Z</time>
      </trkpt>
      <trkpt lat="45.92732" lon="4.66018">
        <ele>323</ele>
        <time>2019-04-18T11:15:49Z</time>
      </trkpt>
      <trkpt lat="45.92726" lon="4.66081">
        <ele>322</ele>
        <time>2019-04-18T11:16:49Z</time>
      </trkpt>
      <trkpt lat="45.92719" lon="4.66106">
        <ele>322</ele>
        <time>2019-04-18T11:17:49Z</time>
      </trkpt>
      <trkpt lat="45.92698" lon="4.66156">
        <ele>320</ele>
        <time>2019-04-18T11:18:49Z</time>
      </trkpt>
      <trkpt lat="45.92677" lon="4.66241">
        <ele>324</ele>
        <time>2019-04-18T11:19:49Z</time>
      </trkpt>
      <trkpt lat="45.92668" lon="4.66292">
        <ele>328</ele>
        <time>2019-04-18T11:20:49Z</time>
      </trkpt>
      <trkpt lat="45.92654" lon="4.66405">
        <ele>332</ele>
        <time>2019-04-18T11:21:49Z</time>
      </trkpt>
      <trkpt lat="45.92641" lon="4.66558">
        <ele>343</ele>
        <time>2019-04-18T11:22:49Z</time>
      </trkpt>
      <trkpt lat="45.9264" lon="4.66632">
        <ele>344</ele>
        <time>2019-04-18T11:23:49Z</time>
      </trkpt>
      <trkpt lat="45.92643" lon="4.66737">
        <ele>339</ele>
        <time>2019-04-18T11:24:49Z</time>
      </trkpt>
      <trkpt lat="45.92639" lon="4.66778">
        <ele>338</ele>
        <time>2019-04-18T11:25:49Z</time>
      </trkpt>
      <trkpt lat="45.92628" lon="4.66864">
        <ele>339</ele>
        <time>2019-04-18T11:26:49Z</time>
      </trkpt>
      <trkpt lat="45.92604" lon="4.66986">
        <ele>337</ele>
        <time>2019-04-18T11:27:49Z</time>
      </trkpt>
      <trkpt lat="45.92589" lon="4.67095">
        <ele>328</ele>
        <time>2019-04-18T11:28:49Z</time>
      </trkpt>
      <trkpt lat="45.92554" lon="4.67191">
        <ele>315</ele>
        <time>2019-04-18T11:29:49Z</time>
      </trkpt>
      <trkpt lat="45.92538" lon="4.6728">
        <ele>308</ele>
        <time>2019-04-18T11:30:49Z</time>
      </trkpt>
      <trkpt lat="45.92541" lon="4.67315">
        <ele>306</ele>
        <time>2019-04-18T11:31:49Z</time>
      </trkpt>
      <trkpt lat="45.92584" lon="4.67448">
        <ele>299</ele>
        <time>2019-04-18T11:32:49Z</time>
      </trkpt>
      <trkpt lat="45.92593" lon="4.67493">
        <ele>297</ele>
        <time>2019-04-18T11:33:49Z</time>
      </trkpt>
      <trkpt lat="45.92612" lon="4.67601">
        <ele>297</ele>
        <time>2019-04-18T11:34:49Z</time>
      </trkpt>
      <trkpt lat="45.92617" lon="4.67664">
        <ele>301</ele>
        <time>2019-04-18T11:35:49Z</time>
      </trkpt>
      <trkpt lat="45.92615" lon="4.67685">
        <ele>303</ele>
        <time>2019-04-18T11:36:49Z</time>
      </trkpt>
      <trkpt lat="45.92612" lon="4.67701">
        <ele>305</ele>
        <time>2019-04-18T11:37:49Z</time>
      </trkpt>
      <trkpt lat="45.92606" lon="4.6772">
        <ele>307</ele>
        <time>2019-04-18T11:38:49Z</time>
      </trkpt>
      <trkpt lat="45.92582" lon="4.67765">
        <ele>313</ele>
        <time>2019-04-18T11:39:49Z</time>
      </trkpt>
      <trkpt lat="45.92571" lon="4.678">
        <ele>317</ele>
        <time>2019-04-18T11:40:49Z</time>
      </trkpt>
      <trkpt lat="45.92568" lon="4.6783">
        <ele>320</ele>
        <time>2019-04-18T11:41:49Z</time>
      </trkpt>
      <trkpt lat="45.92565" lon="4.67915">
        <ele>327</ele>
        <time>2019-04-18T11:42:49Z</time>
      </trkpt>
      <trkpt lat="45.92571" lon="4.67966">
        <ele>330</ele>
        <time>2019-04-18T11:43:49Z</time>
      </trkpt>
      <trkpt lat="45.92582" lon="4.68046">
        <ele>333</ele>
        <time>2019-04-18T11:44:49Z</time>
      </trkpt>
      <trkpt lat="45.92585" lon="4.68087">
        <ele>334</ele>
        <time>2019-04-18T11:45:49Z</time>
      </trkpt>
      <trkpt lat="45.92587" lon="4.68295">
        <ele>350</ele>
        <time>2019-04-18T11:46:49Z</time>
      </trkpt>
      <trkpt lat="45.92586" lon="4.68477">
        <ele>363</ele>
        <time>2019-04-18T11:47:49Z</time>
      </trkpt>
      <trkpt lat="45.92594" lon="4.68549">
        <ele>368</ele>
        <time>2019-04-18T11:48:49Z</time>
      </trkpt>
      <trkpt lat="45.92606" lon="4.68623">
        <ele>370</ele>
        <time>2019-04-18T11:49:49Z</time>
      </trkpt>
      <trkpt lat="45.92568" lon="4.68816">
        <ele>359</ele>
        <time>2019-04-18T11:50:49Z</time>
      </trkpt>
      <trkpt lat="45.92531" lon="4.68967">
        <ele>351</ele>
        <time>2019-04-18T11:51:49Z</time>
      </trkpt>
      <trkpt lat="45.92534" lon="4.68983">
        <ele>350</ele>
        <time>2019-04-18T11:52:49Z</time>
      </trkpt>
      <trkpt lat="45.92602" lon="4.69109">
        <ele>340</ele>
        <time>2019-04-18T11:53:49Z</time>
      </trkpt>
      <trkpt lat="45.92651" lon="4.69193">
        <ele>335</ele>
        <time>2019-04-18T11:54:49Z</time>
      </trkpt>
      <trkpt lat="45.92665" lon="4.69195">
        <ele>334</ele>
        <time>2019-04-18T11:55:49Z</time>
      </trkpt>
      <trkpt lat="45.92671" lon="4.69186">
        <ele>333</ele>
        <time>2019-04-18T11:56:49Z</time>
      </trkpt>
      <trkpt lat="45.92674" lon="4.69054">
        <ele>332</ele>
        <time>2019-04-18T11:57:49Z</time>
      </trkpt>
      <trkpt lat="45.92683" lon="4.69024">
        <ele>332</ele>
        <time>2019-04-18T11:58:49Z</time>
      </trkpt>
      <trkpt lat="45.92702" lon="4.69009">
        <ele>331</ele>
        <time>2019-04-18T11:59:49Z</time>
      </trkpt>
      <trkpt lat="45.92757" lon="4.69026">
        <ele>327</ele>
        <time>2019-04-18T12:00:49Z</time>
      </trkpt>
      <trkpt lat="45.92795" lon="4.69041">
        <ele>325</ele>
        <time>2019-04-18T12:01:49Z</time>
      </trkpt>
      <trkpt lat="45.92809" lon="4.69065">
        <ele>324</ele>
        <time>2019-04-18T12:02:49Z</time>
      </trkpt>
      <trkpt lat="45.92815" lon="4.69091">
        <ele>323</ele>
        <time>2019-04-18T12:03:49Z</time>
      </trkpt>
      <trkpt lat="45.9281" lon="4.6915">
        <ele>321</ele>
        <time>2019-04-18T12:04:49Z</time>
      </trkpt>
      <trkpt lat="45.92804" lon="4.69186">
        <ele>320</ele>
        <time>2019-04-18T12:05:49Z</time>
      </trkpt>
      <trkpt lat="45.92804" lon="4.69252">
        <ele>317</ele>
        <time>2019-04-18T12:06:49Z</time>
      </trkpt>
      <trkpt lat="45.92817" lon="4.69286">
        <ele>312</ele>
        <time>2019-04-18T12:07:49Z</time>
      </trkpt>
      <trkpt lat="45.92854" lon="4.69332">
        <ele>308</ele>
        <time>2019-04-18T12:08:49Z</time>
      </trkpt>
      <trkpt lat="45.92875" lon="4.69382">
        <ele>306</ele>
        <time>2019-04-18T12:09:49Z</time>
      </trkpt>
      <trkpt lat="45.929" lon="4.69463">
        <ele>299</ele>
        <time>2019-04-18T12:10:49Z</time>
      </trkpt>
      <trkpt lat="45.92926" lon="4.69514">
        <ele>296</ele>
        <time>2019-04-18T12:11:49Z</time>
      </trkpt>
      <trkpt lat="45.92979" lon="4.69599">
        <ele>294</ele>
        <time>2019-04-18T12:12:49Z</time>
      </trkpt>
      <trkpt lat="45.93016" lon="4.69639">
        <ele>290</ele>
        <time>2019-04-18T12:13:49Z</time>
      </trkpt>
      <trkpt lat="45.93074" lon="4.6967">
        <ele>289</ele>
        <time>2019-04-18T12:14:49Z</time>
      </trkpt>
      <trkpt lat="45.93132" lon="4.69692">
        <ele>286</ele>
        <time>2019-04-18T12:15:49Z</time>
      </trkpt>
      <trkpt lat="45.9323" lon="4.69699">
        <ele>281</ele>
        <time>2019-04-18T12:16:49Z</time>
      </trkpt>
      <trkpt lat="45.9327" lon="4.69694">
        <ele>279</ele>
        <time>2019-04-18T12:17:49Z</time>
      </trkpt>
      <trkpt lat="45.93281" lon="4.69698">
        <ele>278</ele>
        <time>2019-04-18T12:18:49Z</time>
      </trkpt>
      <trkpt lat="45.93288" lon="4.69709">
        <ele>275</ele>
        <time>2019-04-18T12:19:49Z</time>
      </trkpt>
      <trkpt lat="45.9329" lon="4.69723">
        <ele>273</ele>
        <time>2019-04-18T12:20:49Z</time>
      </trkpt>
      <trkpt lat="45.93286" lon="4.69737">
        <ele>271</ele>
        <time>2019-04-18T12:21:49Z</time>
      </trkpt>
      <trkpt lat="45.93277" lon="4.69747">
        <ele>270</ele>
        <time>2019-04-18T12:22:49Z</time>
      </trkpt>
      <trkpt lat="45.93243" lon="4.69754">
        <ele>270</ele>
        <time>2019-04-18T12:23:49Z</time>
      </trkpt>
      <trkpt lat="45.93212" lon="4.69763">
        <ele>270</ele>
        <time>2019-04-18T12:24:49Z</time>
      </trkpt>
      <trkpt lat="45.93153" lon="4.69791">
        <ele>265</ele>
        <time>2019-04-18T12:25:49Z</time>
      </trkpt>
      <trkpt lat="45.93119" lon="4.69818">
        <ele>261</ele>
        <time>2019-04-18T12:26:49Z</time>
      </trkpt>
      <trkpt lat="45.93016" lon="4.69937">
        <ele>254</ele>
        <time>2019-04-18T12:27:49Z</time>
      </trkpt>
      <trkpt lat="45.92996" lon="4.69967">
        <ele>251</ele>
        <time>2019-04-18T12:28:49Z</time>
      </trkpt>
      <trkpt lat="45.92985" lon="4.69999">
        <ele>246</ele>
        <time>2019-04-18T12:29:49Z</time>
      </trkpt>
      <trkpt lat="45.92971" lon="4.70048">
        <ele>243</ele>
        <time>2019-04-18T12:30:49Z</time>
      </trkpt>
      <trkpt lat="45.92962" lon="4.7006">
        <ele>242</ele>
        <time>2019-04-18T12:31:49Z</time>
      </trkpt>
      <trkpt lat="45.92944" lon="4.70059">
        <ele>242</ele>
        <time>2019-04-18T12:32:49Z</time>
      </trkpt>
      <trkpt lat="45.92937" lon="4.70051">
        <ele>242</ele>
        <time>2019-04-18T12:33:49Z</time>
      </trkpt>
      <trkpt lat="45.92924" lon="4.7001">
        <ele>245</ele>
        <time>2019-04-18T12:34:49Z</time>
      </trkpt>
      <trkpt lat="45.92911" lon="4.7">
        <ele>246</ele>
        <time>2019-04-18T12:35:49Z</time>
      </trkpt>
      <trkpt lat="45.92899" lon="4.70004">
        <ele>247</ele>
        <time>2019-04-18T12:36:49Z</time>
      </trkpt>
      <trkpt lat="45.92891" lon="4.70014">
        <ele>247</ele>
        <time>2019-04-18T12:37:49Z</time>
      </trkpt>
      <trkpt lat="45.92886" lon="4.70034">
        <ele>246</ele>
        <time>2019-04-18T12:38:49Z</time>
      </trkpt>
      <trkpt lat="45.92879" lon="4.70221">
        <ele>235</ele>
        <time>2019-04-18T12:39:49Z</time>
      </trkpt>
      <trkpt lat="45.92876" lon="4.70255">
        <ele>234</ele>
        <time>2019-04-18T12:40:49Z</time>
      </trkpt>
      <trkpt lat="45.92844" lon="4.7042">
        <ele>226</ele>
        <time>2019-04-18T12:41:49Z</time>
      </trkpt>
      <trkpt lat="45.9284" lon="4.70452">
        <ele>223</ele>
        <time>2019-04-18T12:42:49Z</time>
      </trkpt>
      <trkpt lat="45.92842" lon="4.70471">
        <ele>222</ele>
        <time>2019-04-18T12:43:49Z</time>
      </trkpt>
      <trkpt lat="45.93055" lon="4.70953">
        <ele>199</ele>
        <time>2019-04-18T12:44:49Z</time>
      </trkpt>
      <trkpt lat="45.93058" lon="4.70973">
        <ele>198</ele>
        <time>2019-04-18T12:45:49Z</time>
      </trkpt>
      <trkpt lat="45.93054" lon="4.70991">
        <ele>198</ele>
        <time>2019-04-18T12:46:49Z</time>
      </trkpt>
      <trkpt lat="45.93048" lon="4.71002">
        <ele>198</ele>
        <time>2019-04-18T12:47:49Z</time>
      </trkpt>
      <trkpt lat="45.93051" lon="4.7101">
        <ele>197</ele>
        <time>2019-04-18T12:48:49Z</time>
      </trkpt>
      <trkpt lat="45.93076" lon="4.71038">
        <ele>197</ele>
        <time>2019-04-18T12:49:49Z</time>
      </trkpt>
      <trkpt lat="45.93095" lon="4.71063">
        <ele>195</ele>
        <time>2019-04-18T12:50:49Z</time>
      </trkpt>
      <trkpt lat="45.93121" lon="4.71108">
        <ele>193</ele>
        <time>2019-04-18T12:51:49Z</time>
      </trkpt>
      <trkpt lat="45.93229" lon="4.71344">
        <ele>186</ele>
        <time>2019-04-18T12:52:49Z</time>
      </trkpt>
      <trkpt lat="45.93277" lon="4.71455">
        <ele>185</ele>
        <time>2019-04-18T12:53:49Z</time>
      </trkpt>
      <trkpt lat="45.93306" lon="4.71511">
        <ele>184</ele>
        <time>2019-04-18T12:54:49Z</time>
      </trkpt>
      <trkpt lat="45.93347" lon="4.71602">
        <ele>185</ele>
        <time>2019-04-18T12:55:49Z</time>
      </trkpt>
      <trkpt lat="45.93363" lon="4.71635">
        <ele>185</ele>
        <time>2019-04-18T12:56:49Z</time>
      </trkpt>
      <trkpt lat="45.93441" lon="4.71817">
        <ele>182</ele>
        <time>2019-04-18T12:57:49Z</time>
      </trkpt>
      <trkpt lat="45.93458" lon="4.71849">
        <ele>181</ele>
        <time>2019-04-18T12:58:49Z</time>
      </trkpt>
      <trkpt lat="45.93467" lon="4.71852">
        <ele>180</ele>
        <time>2019-04-18T12:59:49Z</time>
      </trkpt>
      <trkpt lat="45.93508" lon="4.71845">
        <ele>179</ele>
        <time>2019-04-18T13:00:49Z</time>
      </trkpt>
      <trkpt lat="45.93582" lon="4.7183">
        <ele>180</ele>
        <time>2019-04-18T13:01:49Z</time>
      </trkpt>
      <trkpt lat="45.93587" lon="4.71828">
        <ele>180</ele>
        <time>2019-04-18T13:02:49Z</time>
      </trkpt>
      <trkpt lat="45.93608" lon="4.71814">
        <ele>179</ele>
        <time>2019-04-18T13:03:49Z</time>
      </trkpt>
      <trkpt lat="45.93616" lon="4.71801">
        <ele>179</ele>
        <time>2019-04-18T13:04:49Z</time>
      </trkpt>
      <trkpt lat="45.9362" lon="4.71798">
        <ele>179</ele>
        <time>2019-04-18T13:05:49Z</time>
      </trkpt>
      <trkpt lat="45.93674" lon="4.71781">
        <ele>178</ele>
        <time>2019-04-18T13:06:49Z</time>
      </trkpt>
      <trkpt lat="45.93716" lon="4.71777">
        <ele>176</ele>
        <time>2019-04-18T13:07:49Z</time>
      </trkpt>
      <trkpt lat="45.93745" lon="4.71756">
        <ele>175</ele>
        <time>2019-04-18T13:08:49Z</time>
      </trkpt>
      <trkpt lat="45.93899" lon="4.717">
        <ele>174</ele>
        <time>2019-04-18T13:09:49Z</time>
      </trkpt>
      <trkpt lat="45.93908" lon="4.71699">
        <ele>174</ele>
        <time>2019-04-18T13:10:49Z</time>
      </trkpt>
      <trkpt lat="45.93984" lon="4.71668">
        <ele>177</ele>
        <time>2019-04-18T13:11:49Z</time>
      </trkpt>
      <trkpt lat="45.93989" lon="4.71669">
        <ele>177</ele>
        <time>2019-04-18T13:12:49Z</time>
      </trkpt>
      <trkpt lat="45.93995" lon="4.71674">
        <ele>177</ele>
        <time>2019-04-18T13:13:49Z</time>
      </trkpt>
      <trkpt lat="45.93997" lon="4.71682">
        <ele>176</ele>
        <time>2019-04-18T13:14:49Z</time>
      </trkpt>
      <trkpt lat="45.94002" lon="4.71687">
        <ele>176</ele>
        <time>2019-04-18T13:15:49Z</time>
      </trkpt>
      <trkpt lat="45.94007" lon="4.71687">
        <ele>176</ele>
        <time>2019-04-18T13:16:49Z</time>
      </trkpt>
      <trkpt lat="45.94013" lon="4.71712">
        <ele>175</ele>
        <time>2019-04-18T13:17:49Z</time>
      </trkpt>
      <trkpt lat="45.94024" lon="4.71712">
        <ele>175</ele>
        <time>2019-04-18T13:18:49Z</time>
      </trkpt>
      <trkpt lat="45.94032" lon="4.71718">
        <ele>174</ele>
        <time>2019-04-18T13:19:49Z</time>
      </trkpt>
      <trkpt lat="45.94073" lon="4.71819">
        <ele>173</ele>
        <time>2019-04-18T13:20:49Z</time>
      </trkpt>
      <trkpt lat="45.94122" lon="4.71924">
        <ele>174</ele>
        <time>2019-04-18T13:21:49Z</time>
      </trkpt>
      <trkpt lat="45.94116" lon="4.71934">
        <ele>174</ele>
        <time>2019-04-18T13:22:49Z</time>
      </trkpt>
      <trkpt lat="45.94116" lon="4.71947">
        <ele>174</ele>
        <time>2019-04-18T13:23:49Z</time>
      </trkpt>
      <trkpt lat="45.94118" lon="4.71952">
        <ele>174</ele>
        <time>2019-04-18T13:24:49Z</time>
      </trkpt>
      <trkpt lat="45.94125" lon="4.71959">
        <ele>174</ele>
        <time>2019-04-18T13:25:49Z</time>
      </trkpt>
      <trkpt lat="45.94132" lon="4.71959">
        <ele>174</ele>
        <time>2019-04-18T13:26:49Z</time>
      </trkpt>
      <trkpt lat="45.94136" lon="4.71957">
        <ele>173</ele>
        <time>2019-04-18T13:27:49Z</time>
      </trkpt>
      <trkpt lat="45.94211" lon="4.72132">
        <ele>172</ele>
        <time>2019-04-18T13:28:49Z</time>
      </trkpt>
      <trkpt lat="45.94247" lon="4.72209">
        <ele>172</ele>
        <time>2019-04-18T13:29:49Z</time>
      </trkpt>
      <trkpt lat="45.94271" lon="4.72266">
        <ele>171</ele>
        <time>2019-04-18T13:30:49Z</time>
      </trkpt>
      <trkpt lat="45.94283" lon="4.72288">
        <ele>171</ele>
        <time>2019-04-18T13:31:49Z</time>
      </trkpt>
      <trkpt lat="45.94332" lon="4.72397">
        <ele>173</ele>
        <time>2019-04-18T13:32:49Z</time>
      </trkpt>
      <trkpt lat="45.94372" lon="4.72493">
        <ele>173</ele>
        <time>2019-04-18T13:33:49Z</time>
      </trkpt>
      <trkpt lat="45.94386" lon="4.72544">
        <ele>173</ele>
        <time>2019-04-18T13:34:49Z</time>
      </trkpt>
      <trkpt lat="45.94397" lon="4.72611">
        <ele>173</ele>
        <time>2019-04-18T13:35:49Z</time>
      </trkpt>
      <trkpt lat="45.9449" lon="4.73314">
        <ele>177</ele>
        <time>2019-04-18T13:36:49Z</time>
      </trkpt>
      <trkpt lat="45.94497" lon="4.7338">
        <ele>179</ele>
        <time>2019-04-18T13:37:49Z</time>
      </trkpt>
      <trkpt lat="45.94499" lon="4.73435">
        <ele>181</ele>
        <time>2019-04-18T13:38:49Z</time>
      </trkpt>
      <trkpt lat="45.94501" lon="4.73496">
        <ele>183</ele>
        <time>2019-04-18T13:39:49Z</time>
      </trkpt>
      <trkpt lat="45.94499" lon="4.73583">
        <ele>185</ele>
        <time>2019-04-18T13:40:49Z</time>
      </trkpt>
      <trkpt lat="45.9448" lon="4.73753">
        <ele>186</ele>
        <time>2019-04-18T13:41:49Z</time>
      </trkpt>
      <trkpt lat="45.94477" lon="4.73753">
        <ele>186</ele>
        <time>2019-04-18T13:42:49Z</time>
      </trkpt>
      <trkpt lat="45.94473" lon="4.73758">
        <ele>186</ele>
        <time>2019-04-18T13:43:49Z</time>
      </trkpt>
      <trkpt lat="45.94472" lon="4.73767">
        <ele>186</ele>
        <time>2019-04-18T13:44:49Z</time>
      </trkpt>
      <trkpt lat="45.94477" lon="4.7378">
        <ele>186</ele>
        <time>2019-04-18T13:45:49Z</time>
      </trkpt>
      <trkpt lat="45.94418" lon="4.74077">
        <ele>177</ele>
        <time>2019-04-18T13:46:49Z</time>
      </trkpt>
      <trkpt lat="45.9441" lon="4.74126">
        <ele>175</ele>
        <time>2019-04-18T13:47:49Z</time>
      </trkpt>
      <trkpt lat="45.94402" lon="4.74203">
        <ele>172</ele>
        <time>2019-04-18T13:48:49Z</time>
      </trkpt>
      <trkpt lat="45.94397" lon="4.74231">
        <ele>171</ele>
        <time>2019-04-18T13:49:49Z</time>
      </trkpt>
      <trkpt lat="45.94389" lon="4.74261">
        <ele>170</ele>
        <time>2019-04-18T13:50:49Z</time>
      </trkpt>
      <trkpt lat="45.9438" lon="4.74284">
        <ele>170</ele>
        <time>2019-04-18T13:51:49Z</time>
      </trkpt>
      <trkpt lat="45.94368" lon="4.7437">
        <ele>170</ele>
        <time>2019-04-18T13:52:49Z</time>
      </trkpt>
      <trkpt lat="45.94358" lon="4.74469">
        <ele>170</ele>
        <time>2019-04-18T13:53:49Z</time>
      </trkpt>
      <trkpt lat="45.94347" lon="4.7462">
        <ele>171</ele>
        <time>2019-04-18T13:54:49Z</time>
      </trkpt>
      <trkpt lat="45.94358" lon="4.74622">
        <ele>171</ele>
        <time>2019-04-18T13:55:49Z</time>
      </trkpt>
      <trkpt lat="45.94387" lon="4.74619">
        <ele>171</ele>
        <time>2019-04-18T13:56:49Z</time>
      </trkpt>
      <trkpt lat="45.94408" lon="4.74614">
        <ele>171</ele>
        <time>2019-04-18T13:57:49Z</time>
      </trkpt>
      <trkpt lat="45.94387" lon="4.74619">
        <ele>171</ele>
        <time>2019-04-18T13:58:49Z</time>
      </trkpt>
      <trkpt lat="45.94358" lon="4.74622">
        <ele>171</ele>
        <time>2019-04-18T13:59:49Z</time>
      </trkpt>
      <trkpt lat="45.94347" lon="4.7462">
        <ele>171</ele>
        <time>2019-04-18T14:00:49Z</time>
      </trkpt>
      <trkpt lat="45.94338" lon="4.74701">
        <ele>172</ele>
        <time>2019-04-18T14:01:49Z</time>
      </trkpt>
      <trkpt lat="45.94332" lon="4.74745">
        <ele>171</ele>
        <time>2019-04-18T14:02:49Z</time>
      </trkpt>
      <trkpt lat="45.943" lon="4.74875">
        <ele>174</ele>
        <time>2019-04-18T14:03:49Z</time>
      </trkpt>
      <trkpt lat="45.9425" lon="4.75059">
        <ele>173</ele>
        <time>2019-04-18T14:04:49Z</time>
      </trkpt>
      <trkpt lat="45.94203" lon="4.75252">
        <ele>171</ele>
        <time>2019-04-18T14:05:49Z</time>
      </trkpt>
      <trkpt lat="45.94179" lon="4.75425">
        <ele>170</ele>
        <time>2019-04-18T14:06:49Z</time>
      </trkpt>
      <trkpt lat="45.94172" lon="4.75426">
        <ele>170</ele>
        <time>2019-04-18T14:07:49Z</time>
      </trkpt>
      <trkpt lat="45.94168" lon="4.75433">
        <ele>171</ele>
        <time>2019-04-18T14:08:49Z</time>
      </trkpt>
      <trkpt lat="45.94168" lon="4.75443">
        <ele>171</ele>
        <time>2019-04-18T14:09:49Z</time>
      </trkpt>
      <trkpt lat="45.94169" lon="4.75447">
        <ele>171</ele>
        <time>2019-04-18T14:10:49Z</time>
      </trkpt>
      <trkpt lat="45.94175" lon="4.75452">
        <ele>171</ele>
        <time>2019-04-18T14:11:49Z</time>
      </trkpt>
      <trkpt lat="45.94162" lon="4.75633">
        <ele>173</ele>
        <time>2019-04-18T14:12:49Z</time>
      </trkpt>
      <trkpt lat="45.94163" lon="4.75796">
        <ele>174</ele>
        <time>2019-04-18T14:13:49Z</time>
      </trkpt>
      <trkpt lat="45.94166" lon="4.75895">
        <ele>175</ele>
        <time>2019-04-18T14:14:49Z</time>
      </trkpt>
      <trkpt lat="45.94172" lon="4.75966">
        <ele>177</ele>
        <time>2019-04-18T14:15:49Z</time>
      </trkpt>
      <trkpt lat="45.9418" lon="4.76139">
        <ele>180</ele>
        <time>2019-04-18T14:16:49Z</time>
      </trkpt>
      <trkpt lat="45.94173" lon="4.76199">
        <ele>181</ele>
        <time>2019-04-18T14:17:49Z</time>
      </trkpt>
      <trkpt lat="45.94157" lon="4.76301">
        <ele>180</ele>
        <time>2019-04-18T14:18:49Z</time>
      </trkpt>
      <trkpt lat="45.94157" lon="4.76441">
        <ele>183</ele>
        <time>2019-04-18T14:19:49Z</time>
      </trkpt>
      <trkpt lat="45.94159" lon="4.76442">
        <ele>183</ele>
        <time>2019-04-18T14:20:49Z</time>
      </trkpt>
      <trkpt lat="45.94158" lon="4.76481">
        <ele>184</ele>
        <time>2019-04-18T14:21:49Z</time>
      </trkpt>
      <trkpt lat="45.94169" lon="4.76652">
        <ele>185</ele>
        <time>2019-04-18T14:22:49Z</time>
      </trkpt>
      <trkpt lat="45.9417" lon="4.76687">
        <ele>185</ele>
        <time>2019-04-18T14:23:49Z</time>
      </trkpt>
      <trkpt lat="45.94169" lon="4.76718">
        <ele>183</ele>
        <time>2019-04-18T14:24:49Z</time>
      </trkpt>
      <trkpt lat="45.94167" lon="4.76737">
        <ele>182</ele>
        <time>2019-04-18T14:25:49Z</time>
      </trkpt>
      <trkpt lat="45.94165" lon="4.76745">
        <ele>182</ele>
        <time>2019-04-18T14:26:49Z</time>
      </trkpt>
      <trkpt lat="45.94101" lon="4.76879">
        <ele>176</ele>
        <time>2019-04-18T14:27:49Z</time>
      </trkpt>
      <trkpt lat="45.94067" lon="4.76946">
        <ele>175</ele>
        <time>2019-04-18T14:28:49Z</time>
      </trkpt>
      <trkpt lat="45.94059" lon="4.76958">
        <ele>175</ele>
        <time>2019-04-18T14:29:49Z</time>
      </trkpt>
      <trkpt lat="45.94056" lon="4.76955">
        <ele>174</ele>
        <time>2019-04-18T14:30:49Z</time>
      </trkpt>
      <trkpt lat="45.94048" lon="4.76955">
        <ele>174</ele>
        <time>2019-04-18T14:31:49Z</time>
      </trkpt>
      <trkpt lat="45.94043" lon="4.7696">
        <ele>174</ele>
        <time>2019-04-18T14:32:49Z</time>
      </trkpt>
      <trkpt lat="45.94041" lon="4.76971">
        <ele>174</ele>
        <time>2019-04-18T14:33:49Z</time>
      </trkpt>
      <trkpt lat="45.94042" lon="4.76976">
        <ele>174</ele>
        <time>2019-04-18T14:34:49Z</time>
      </trkpt>
      <trkpt lat="45.94045" lon="4.76981">
        <ele>174</ele>
        <time>2019-04-18T14:35:49Z</time>
      </trkpt>
      <trkpt lat="45.94051" lon="4.76985">
        <ele>175</ele>
        <time>2019-04-18T14:36:49Z</time>
      </trkpt>
      <trkpt lat="45.94015" lon="4.77279">
        <ele>172</ele>
        <time>2019-04-18T14:37:49Z</time>
      </trkpt>
      <trkpt lat="45.9401" lon="4.77369">
        <ele>173</ele>
        <time>2019-04-18T14:38:49Z</time>
      </trkpt>
      <trkpt lat="45.93999" lon="4.77462">
        <ele>175</ele>
        <time>2019-04-18T14:39:49Z</time>
      </trkpt>
      <trkpt lat="45.93989" lon="4.77532">
        <ele>177</ele>
        <time>2019-04-18T14:40:49Z</time>
      </trkpt>
      <trkpt lat="45.93976" lon="4.77604">
        <ele>178</ele>
        <time>2019-04-18T14:41:49Z</time>
      </trkpt>
      <trkpt lat="45.93967" lon="4.77644">
        <ele>178</ele>
        <time>2019-04-18T14:42:49Z</time>
      </trkpt>
      <trkpt lat="45.93958" lon="4.77678">
        <ele>177</ele>
        <time>2019-04-18T14:43:49Z</time>
      </trkpt>
      <trkpt lat="45.93944" lon="4.77717">
        <ele>174</ele>
        <time>2019-04-18T14:44:49Z</time>
      </trkpt>
      <trkpt lat="45.93902" lon="4.77818">
        <ele>172</ele>
        <time>2019-04-18T14:45:49Z</time>
      </trkpt>
      <trkpt lat="45.9389" lon="4.77859">
        <ele>174</ele>
        <time>2019-04-18T14:46:49Z</time>
      </trkpt>
      <trkpt lat="45.93859" lon="4.77984">
        <ele>179</ele>
        <time>2019-04-18T14:47:49Z</time>
      </trkpt>
      <trkpt lat="45.93855" lon="4.77993">
        <ele>180</ele>
        <time>2019-04-18T14:48:49Z</time>
      </trkpt>
      <trkpt lat="45.93846" lon="4.77994">
        <ele>179</ele>
        <time>2019-04-18T14:49:49Z</time>
      </trkpt>
      <trkpt lat="45.93839" lon="4.78003">
        <ele>180</ele>
        <time>2019-04-18T14:50:49Z</time>
      </trkpt>
      <trkpt lat="45.93836" lon="4.78017">
        <ele>179</ele>
        <time>2019-04-18T14:51:49Z</time>
      </trkpt>
      <trkpt lat="45.93838" lon="4.78024">
        <ele>180</ele>
        <time>2019-04-18T14:52:49Z</time>
      </trkpt>
      <trkpt lat="45.93842" lon="4.78033">
        <ele>180</ele>
        <time>2019-04-18T14:53:49Z</time>
      </trkpt>
      <trkpt lat="45.93845" lon="4.78036">
        <ele>181</ele>
        <time>2019-04-18T14:54:49Z</time>
      </trkpt>
      <trkpt lat="45.93847" lon="4.78046">
        <ele>181</ele>
        <time>2019-04-18T14:55:49Z</time>
      </trkpt>
      <trkpt lat="45.9384" lon="4.7809">
        <ele>181</ele>
        <time>2019-04-18T14:56:49Z</time>
      </trkpt>
      <trkpt lat="45.93806" lon="4.78224">
        <ele>183</ele>
        <time>2019-04-18T14:57:49Z</time>
      </trkpt>
      <trkpt lat="45.93793" lon="4.78246">
        <ele>183</ele>
        <time>2019-04-18T14:58:49Z</time>
      </trkpt>
      <trkpt lat="45.93791" lon="4.78257">
        <ele>183</ele>
        <time>2019-04-18T14:59:49Z</time>
      </trkpt>
      <trkpt lat="45.93793" lon="4.78265">
        <ele>183</ele>
        <time>2019-04-18T15:00:49Z</time>
      </trkpt>
      <trkpt lat="45.93797" lon="4.78267">
        <ele>183</ele>
        <time>2019-04-18T15:01:49Z</time>
      </trkpt>
      <trkpt lat="45.93786" lon="4.7829">
        <ele>183</ele>
        <time>2019-04-18T15:02:49Z</time>
      </trkpt>
      <trkpt lat="45.93755" lon="4.78405">
        <ele>182</ele>
        <time>2019-04-18T15:03:49Z</time>
      </trkpt>
      <trkpt lat="45.93705" lon="4.78609">
        <ele>176</ele>
        <time>2019-04-18T15:04:49Z</time>
      </trkpt>
      <trkpt lat="45.93699" lon="4.78614">
        <ele>176</ele>
        <time>2019-04-18T15:05:49Z</time>
      </trkpt>
      <trkpt lat="45.93698" lon="4.7862">
        <ele>176</ele>
        <time>2019-04-18T15:06:49Z</time>
      </trkpt>
      <trkpt lat="45.93699" lon="4.78626">
        <ele>176</ele>
        <time>2019-04-18T15:07:49Z</time>
      </trkpt>
      <trkpt lat="45.93704" lon="4.7863">
        <ele>176</ele>
        <time>2019-04-18T15:08:49Z</time>
      </trkpt>
      <trkpt lat="45.9371" lon="4.78626">
        <ele>176</ele>
        <time>2019-04-18T15:09:49Z</time>
      </trkpt>
      <trkpt lat="45.93712" lon="4.78623">
        <ele>176</ele>
        <time>2019-04-18T15:10:49Z</time>
      </trkpt>
      <trkpt lat="45.93724" lon="4.78625">
        <ele>177</ele>
        <time>2019-04-18T15:11:49Z</time>
      </trkpt>
      <trkpt lat="45.93748" lon="4.78621">
        <ele>178</ele>
        <time>2019-04-18T15:12:49Z</time>
      </trkpt>
      <trkpt lat="45.93896" lon="4.78579">
        <ele>192</ele>
        <time>2019-04-18T15:13:49Z</time>
      </trkpt>
      <trkpt lat="45.93915" lon="4.7857">
        <ele>193</ele>
        <time>2019-04-18T15:14:49Z</time>
      </trkpt>
      <trkpt lat="45.93927" lon="4.78556">
        <ele>195</ele>
        <time>2019-04-18T15:15:49Z</time>
      </trkpt>
      <trkpt lat="45.93931" lon="4.7857">
        <ele>195</ele>
        <time>2019-04-18T15:16:49Z</time>
      </trkpt>
      <trkpt lat="45.93935" lon="4.78661">
        <ele>193</ele>
        <time>2019-04-18T15:17:49Z</time>
      </trkpt>
      <trkpt lat="45.93934" lon="4.78756">
        <ele>192</ele>
        <time>2019-04-18T15:18:49Z</time>
      </trkpt>
      <trkpt lat="45.93937" lon="4.78845">
        <ele>193</ele>
        <time>2019-04-18T15:19:49Z</time>
      </trkpt>
      <trkpt lat="45.93949" lon="4.79218">
        <ele>196</ele>
        <time>2019-04-18T15:20:49Z</time>
      </trkpt>
      <trkpt lat="45.9395" lon="4.79513">
        <ele>203</ele>
        <time>2019-04-18T15:21:49Z</time>
      </trkpt>
      <trkpt lat="45.9397" lon="4.79777">
        <ele>207</ele>
        <time>2019-04-18T15:22:49Z</time>
      </trkpt>
      <trkpt lat="45.93937" lon="4.80027">
        <ele>205</ele>
        <time>2019-04-18T15:23:49Z</time>
      </trkpt>
      <trkpt lat="45.93934" lon="4.8009">
        <ele>207</ele>
        <time>2019-04-18T15:24:49Z</time>
      </trkpt>
      <trkpt lat="45.93937" lon="4.80121">
        <ele>207</ele>
        <time>2019-04-18T15:25:49Z</time>
      </trkpt>
      <trkpt lat="45.93949" lon="4.80193">
        <ele>206</ele>
        <time>2019-04-18T15:26:49Z</time>
      </trkpt>
      <trkpt lat="45.94012" lon="4.8042">
        <ele>218</ele>
        <time>2019-04-18T15:27:49Z</time>
      </trkpt>
      <trkpt lat="45.94016" lon="4.80477">
        <ele>221</ele>
        <time>2019-04-18T15:28:49Z</time>
      </trkpt>
      <trkpt lat="45.94014" lon="4.80508">
        <ele>221</ele>
        <time>2019-04-18T15:29:49Z</time>
      </trkpt>
      <trkpt lat="45.94018" lon="4.80574">
        <ele>222</ele>
        <time>2019-04-18T15:30:49Z</time>
      </trkpt>
      <trkpt lat="45.94035" lon="4.80722">
        <ele>225</ele>
        <time>2019-04-18T15:31:49Z</time>
      </trkpt>
      <trkpt lat="45.94071" lon="4.81007">
        <ele>237</ele>
        <time>2019-04-18T15:32:49Z</time>
      </trkpt>
      <trkpt lat="45.94084" lon="4.8105">
        <ele>238</ele>
        <time>2019-04-18T15:33:49Z</time>
      </trkpt>
      <trkpt lat="45.941" lon="4.81085">
        <ele>240</ele>
        <time>2019-04-18T15:34:49Z</time>
      </trkpt>
      <trkpt lat="45.94139" lon="4.8116">
        <ele>244</ele>
        <time>2019-04-18T15:35:49Z</time>
      </trkpt>
      <trkpt lat="45.9415" lon="4.8119">
        <ele>246</ele>
        <time>2019-04-18T15:36:49Z</time>
      </trkpt>
      <trkpt lat="45.9416" lon="4.81238">
        <ele>249</ele>
        <time>2019-04-18T15:37:49Z</time>
      </trkpt>
      <trkpt lat="45.94167" lon="4.81301">
        <ele>251</ele>
        <time>2019-04-18T15:38:49Z</time>
      </trkpt>
      <trkpt lat="45.94165" lon="4.81376">
        <ele>254</ele>
        <time>2019-04-18T15:39:49Z</time>
      </trkpt>
      <trkpt lat="45.94153" lon="4.8146">
        <ele>259</ele>
        <time>2019-04-18T15:40:49Z</time>
      </trkpt>
      <trkpt lat="45.9415" lon="4.81529">
        <ele>264</ele>
        <time>2019-04-18T15:41:49Z</time>
      </trkpt>
      <trkpt lat="45.94152" lon="4.81553">
        <ele>265</ele>
        <time>2019-04-18T15:42:49Z</time>
      </trkpt>
      <trkpt lat="45.94173" lon="4.81661">
        <ele>269</ele>
        <time>2019-04-18T15:43:49Z</time>
      </trkpt>
      <trkpt lat="45.94176" lon="4.81683">
        <ele>268</ele>
        <time>2019-04-18T15:44:49Z</time>
      </trkpt>
      <trkpt lat="45.94184" lon="4.81709">
        <ele>268</ele>
        <time>2019-04-18T15:45:49Z</time>
      </trkpt>
      <trkpt lat="45.94186" lon="4.81718">
        <ele>267</ele>
        <time>2019-04-18T15:46:49Z</time>
      </trkpt>
      <trkpt lat="45.94184" lon="4.81725">
        <ele>267</ele>
        <time>2019-04-18T15:47:49Z</time>
      </trkpt>
      <trkpt lat="45.94185" lon="4.81742">
        <ele>267</ele>
        <time>2019-04-18T15:48:49Z</time>
      </trkpt>
      <trkpt lat="45.94193" lon="4.81754">
        <ele>266</ele>
        <time>2019-04-18T15:49:49Z</time>
      </trkpt>
      <trkpt lat="45.94198" lon="4.81772">
        <ele>266</ele>
        <time>2019-04-18T15:50:49Z</time>
      </trkpt>
      <trkpt lat="45.942" lon="4.81796">
        <ele>266</ele>
        <time>2019-04-18T15:51:49Z</time>
      </trkpt>
      <trkpt lat="45.94201" lon="4.81827">
        <ele>266</ele>
        <time>2019-04-18T15:52:49Z</time>
      </trkpt>
      <trkpt lat="45.9426" lon="4.82106">
        <ele>262</ele>
        <time>2019-04-18T15:53:49Z</time>
      </trkpt>
      <trkpt lat="45.94276" lon="4.82199">
        <ele>264</ele>
        <time>2019-04-18T15:54:49Z</time>
      </trkpt>
      <trkpt lat="45.94284" lon="4.82291">
        <ele>265</ele>
        <time>2019-04-18T15:55:49Z</time>
      </trkpt>
      <trkpt lat="45.9429" lon="4.8242">
        <ele>264</ele>
        <time>2019-04-18T15:56:49Z</time>
      </trkpt>
      <trkpt lat="45.94292" lon="4.82545">
        <ele>264</ele>
        <time>2019-04-18T15:57:49Z</time>
      </trkpt>
      <trkpt lat="45.94289" lon="4.82813">
        <ele>265</ele>
        <time>2019-04-18T15:58:49Z</time>
      </trkpt>
      <trkpt lat="45.94287" lon="4.82889">
        <ele>265</ele>
        <time>2019-04-18T15:59:49Z</time>
      </trkpt>
      <trkpt lat="45.94281" lon="4.8293">
        <ele>265</ele>
        <time>2019-04-18T16:00:49Z</time>
      </trkpt>
      <trkpt lat="45.94273" lon="4.82954">
        <ele>265</ele>
        <time>2019-04-18T16:01:49Z</time>
      </trkpt>
      <trkpt lat="45.94283" lon="4.82974">
        <ele>265</ele>
        <time>2019-04-18T16:02:49Z</time>
      </trkpt>
      <trkpt lat="45.94289" lon="4.82991">
        <ele>265</ele>
        <time>2019-04-18T16:03:49Z</time>
      </trkpt>
      <trkpt lat="45.94304" lon="4.83069">
        <ele>266</ele>
        <time>2019-04-18T16:04:49Z</time>
      </trkpt>
      <trkpt lat="45.94317" lon="4.8311">
        <ele>266</ele>
        <time>2019-04-18T16:05:49Z</time>
      </trkpt>
      <trkpt lat="45.94402" lon="4.83352">
        <ele>263</ele>
        <time>2019-04-18T16:06:49Z</time>
      </trkpt>
      <trkpt lat="45.94456" lon="4.83462">
        <ele>263</ele>
        <time>2019-04-18T16:07:49Z</time>
      </trkpt>
      <trkpt lat="45.94515" lon="4.83561">
        <ele>261</ele>
        <time>2019-04-18T16:08:49Z</time>
      </trkpt>
      <trkpt lat="45.94531" lon="4.83621">
        <ele>261</ele>
        <time>2019-04-18T16:09:49Z</time>
      </trkpt>
      <trkpt lat="45.94622" lon="4.84212">
        <ele>269</ele>
        <time>2019-04-18T16:10:49Z</time>
      </trkpt>
      <trkpt lat="45.94639" lon="4.84337">
        <ele>268</ele>
        <time>2019-04-18T16:11:49Z</time>
      </trkpt>
      <trkpt lat="45.94656" lon="4.84504">
        <ele>268</ele>
        <time>2019-04-18T16:12:49Z</time>
      </trkpt>
      <trkpt lat="45.94675" lon="4.84811">
        <ele>268</ele>
        <time>2019-04-18T16:13:49Z</time>
      </trkpt>
      <trkpt lat="45.94712" lon="4.8518">
        <ele>269</ele>
        <time>2019-04-18T16:14:49Z</time>
      </trkpt>
      <trkpt lat="45.94747" lon="4.85488">
        <ele>276</ele>
        <time>2019-04-18T16:15:49Z</time>
      </trkpt>
      <trkpt lat="45.94766" lon="4.85605">
        <ele>280</ele>
        <time>2019-04-18T16:16:49Z</time>
      </trkpt>
      <trkpt lat="45.94835" lon="4.85874">
        <ele>276</ele>
        <time>2019-04-18T16:17:49Z</time>
      </trkpt>
      <trkpt lat="45.9489" lon="4.86078">
        <ele>274</ele>
        <time>2019-04-18T16:18:49Z</time>
      </trkpt>
      <trkpt lat="45.94901" lon="4.86107">
        <ele>273</ele>
        <time>2019-04-18T16:19:49Z</time>
      </trkpt>
      <trkpt lat="45.94913" lon="4.86133">
        <ele>273</ele>
        <time>2019-04-18T16:20:49Z</time>
      </trkpt>
      <trkpt lat="45.94935" lon="4.86162">
        <ele>273</ele>
        <time>2019-04-18T16:21:49Z</time>
      </trkpt>
      <trkpt lat="45.95082" lon="4.86343">
        <ele>269</ele>
        <time>2019-04-18T16:22:49Z</time>
      </trkpt>
      <trkpt lat="45.9523" lon="4.86521">
        <ele>268</ele>
        <time>2019-04-18T16:23:49Z</time>
      </trkpt>
      <trkpt lat="45.95266" lon="4.86571">
        <ele>267</ele>
        <time>2019-04-18T16:24:49Z</time>
      </trkpt>
      <trkpt lat="45.95291" lon="4.86613">
        <ele>268</ele>
        <time>2019-04-18T16:25:49Z</time>
      </trkpt>
      <trkpt lat="45.95796" lon="4.87647">
        <ele>283</ele>
        <time>2019-04-18T16:26:49Z</time>
      </trkpt>
      <trkpt lat="45.9581" lon="4.87691">
        <ele>284</ele>
        <time>2019-04-18T16:27:49Z</time>
      </trkpt>
      <trkpt lat="45.9582" lon="4.87749">
        <ele>284</ele>
        <time>2019-04-18T16:28:49Z</time>
      </trkpt>
      <trkpt lat="45.95833" lon="4.87846">
        <ele>288</ele>
        <time>2019-04-18T16:29:49Z</time>
      </trkpt>
      <trkpt lat="45.95841" lon="4.87964">
        <ele>289</ele>
        <time>2019-04-18T16:30:49Z</time>
      </trkpt>
      <trkpt lat="45.95872" lon="4.88703">
        <ele>288</ele>
        <time>2019-04-18T16:31:49Z</time>
      </trkpt>
      <trkpt lat="45.95876" lon="4.88857">
        <ele>289</ele>
        <time>2019-04-18T16:32:49Z</time>
      </trkpt>
      <trkpt lat="45.95878" lon="4.88949">
        <ele>289</ele>
        <time>2019-04-18T16:33:49Z</time>
      </trkpt>
      <trkpt lat="45.9588" lon="4.88985">
        <ele>289</ele>
        <time>2019-04-18T16:34:49Z</time>
      </trkpt>
      <trkpt lat="45.95891" lon="4.89022">
        <ele>289</ele>
        <time>2019-04-18T16:35:49Z</time>
      </trkpt>
      <trkpt lat="45.95896" lon="4.89057">
        <ele>289</ele>
        <time>2019-04-18T16:36:49Z</time>
      </trkpt>
      <trkpt lat="45.95889" lon="4.89079">
        <ele>289</ele>
        <time>2019-04-18T16:37:49Z</time>
      </trkpt>
      <trkpt lat="45.95878" lon="4.89091">
        <ele>288</ele>
        <time>2019-04-18T16:38:49Z</time>
      </trkpt>
      <trkpt lat="45.95869" lon="4.89114">
        <ele>288</ele>
        <time>2019-04-18T16:39:49Z</time>
      </trkpt>
      <trkpt lat="45.95868" lon="4.89137">
        <ele>288</ele>
        <time>2019-04-18T16:40:49Z</time>
      </trkpt>
      <trkpt lat="45.95876" lon="4.89176">
        <ele>288</ele>
        <time>2019-04-18T16:41:49Z</time>
      </trkpt>
      <trkpt lat="45.95878" lon="4.89201">
        <ele>288</ele>
        <time>2019-04-18T16:42:49Z</time>
      </trkpt>
      <trkpt lat="45.95885" lon="4.89563">
        <ele>289</ele>
        <time>2019-04-18T16:43:49Z</time>
      </trkpt>
      <trkpt lat="45.95886" lon="4.8977">
        <ele>289</ele>
        <time>2019-04-18T16:44:49Z</time>
      </trkpt>
      <trkpt lat="45.95893" lon="4.90093">
        <ele>290</ele>
        <time>2019-04-18T16:45:49Z</time>
      </trkpt>
      <trkpt lat="45.95883" lon="4.90389">
        <ele>292</ele>
        <time>2019-04-18T16:46:49Z</time>
      </trkpt>
      <trkpt lat="45.95852" lon="4.91182">
        <ele>296</ele>
        <time>2019-04-18T16:47:49Z</time>
      </trkpt>
      <trkpt lat="45.95835" lon="4.91696">
        <ele>302</ele>
        <time>2019-04-18T16:48:49Z</time>
      </trkpt>
      <trkpt lat="45.95838" lon="4.91734">
        <ele>303</ele>
        <time>2019-04-18T16:49:49Z</time>
      </trkpt>
      <trkpt lat="45.95847" lon="4.91789">
        <ele>303</ele>
        <time>2019-04-18T16:50:49Z</time>
      </trkpt>
      <trkpt lat="45.95952" lon="4.92392">
        <ele>294</ele>
        <time>2019-04-18T16:51:49Z</time>
      </trkpt>
      <trkpt lat="45.95973" lon="4.92495">
        <ele>293</ele>
        <time>2019-04-18T16:52:49Z</time>
      </trkpt>
      <trkpt lat="45.96003" lon="4.92623">
        <ele>291</ele>
        <time>2019-04-18T16:53:49Z</time>
      </trkpt>
      <trkpt lat="45.96166" lon="4.93173">
        <ele>294</ele>
        <time>2019-04-18T16:54:49Z</time>
      </trkpt>
      <trkpt lat="45.96193" lon="4.93262">
        <ele>296</ele>
        <time>2019-04-18T16:55:49Z</time>
      </trkpt>
      <trkpt lat="45.96208" lon="4.93298">
        <ele>296</ele>
        <time>2019-04-18T16:56:49Z</time>
      </trkpt>
      <trkpt lat="45.96229" lon="4.93329">
        <ele>296</ele>
        <time>2019-04-18T16:57:49Z</time>
      </trkpt>
      <trkpt lat="45.96266" lon="4.9336">
        <ele>295</ele>
        <time>2019-04-18T16:58:49Z</time>
      </trkpt>
      <trkpt lat="45.96392" lon="4.93438">
        <ele>296</ele>
        <time>2019-04-18T16:59:49Z</time>
      </trkpt>
      <trkpt lat="45.96425" lon="4.93468">
        <ele>297</ele>
        <time>2019-04-18T17:00:49Z</time>
      </trkpt>
      <trkpt lat="45.96535" lon="4.93628">
        <ele>296</ele>
        <time>2019-04-18T17:01:49Z</time>
      </trkpt>
      <trkpt lat="45.9659" lon="4.93702">
        <ele>296</ele>
        <time>2019-04-18T17:02:49Z</time>
      </trkpt>
      <trkpt lat="45.96627" lon="4.9374">
        <ele>297</ele>
        <time>2019-04-18T17:03:49Z</time>
      </trkpt>
      <trkpt lat="45.96649" lon="4.93765">
        <ele>298</ele>
        <time>2019-04-18T17:04:49Z</time>
      </trkpt>
      <trkpt lat="45.9666" lon="4.93812">
        <ele>298</ele>
        <time>2019-04-18T17:05:49Z</time>
      </trkpt>
      <trkpt lat="45.96669" lon="4.93821">
        <ele>298</ele>
        <time>2019-04-18T17:06:49Z</time>
      </trkpt>
      <trkpt lat="45.96677" lon="4.93838">
        <ele>298</ele>
        <time>2019-04-18T17:07:49Z</time>
      </trkpt>
      <trkpt lat="45.96711" lon="4.93876">
        <ele>296</ele>
        <time>2019-04-18T17:08:49Z</time>
      </trkpt>
      <trkpt lat="45.96759" lon="4.93936">
        <ele>296</ele>
        <time>2019-04-18T17:09:49Z</time>
      </trkpt>
      <trkpt lat="45.96809" lon="4.94008">
        <ele>296</ele>
        <time>2019-04-18T17:10:49Z</time>
      </trkpt>
      <trkpt lat="45.96819" lon="4.94029">
        <ele>296</ele>
        <time>2019-04-18T17:11:49Z</time>
      </trkpt>
      <trkpt lat="45.96917" lon="4.94295">
        <ele>297</ele>
        <time>2019-04-18T17:12:49Z</time>
      </trkpt>
      <trkpt lat="45.97051" lon="4.94654">
        <ele>295</ele>
        <time>2019-04-18T17:13:49Z</time>
      </trkpt>
      <trkpt lat="45.97243" lon="4.95174">
        <ele>299</ele>
        <time>2019-04-18T17:14:49Z</time>
      </trkpt>
      <trkpt lat="45.97419" lon="4.95542">
        <ele>294</ele>
        <time>2019-04-18T17:15:49Z</time>
      </trkpt>
      <trkpt lat="45.97955" lon="4.96653">
        <ele>288</ele>
        <time>2019-04-18T17:16:49Z</time>
      </trkpt>
      <trkpt lat="45.98014" lon="4.9678">
        <ele>290</ele>
        <time>2019-04-18T17:17:49Z</time>
      </trkpt>
      <trkpt lat="45.98028" lon="4.96818">
        <ele>290</ele>
        <time>2019-04-18T17:18:49Z</time>
      </trkpt>
      <trkpt lat="45.98133" lon="4.97169">
        <ele>289</ele>
        <time>2019-04-18T17:19:49Z</time>
      </trkpt>
      <trkpt lat="45.98199" lon="4.97418">
        <ele>292</ele>
        <time>2019-04-18T17:20:49Z</time>
      </trkpt>
      <trkpt lat="45.98208" lon="4.97442">
        <ele>292</ele>
        <time>2019-04-18T17:21:49Z</time>
      </trkpt>
      <trkpt lat="45.98218" lon="4.97465">
        <ele>292</ele>
        <time>2019-04-18T17:22:49Z</time>
      </trkpt>
      <trkpt lat="45.9824" lon="4.97498">
        <ele>293</ele>
        <time>2019-04-18T17:23:49Z</time>
      </trkpt>
      <trkpt lat="45.98262" lon="4.9754">
        <ele>294</ele>
        <time>2019-04-18T17:24:49Z</time>
      </trkpt>
      <trkpt lat="45.98274" lon="4.97601">
        <ele>293</ele>
        <time>2019-04-18T17:25:49Z</time>
      </trkpt>
      <trkpt lat="45.98288" lon="4.9764">
        <ele>292</ele>
        <time>2019-04-18T17:26:49Z</time>
      </trkpt>
      <trkpt lat="45.98279" lon="4.9765">
        <ele>292</ele>
        <time>2019-04-18T17:27:49Z</time>
      </trkpt>
      <trkpt lat="45.98263" lon="4.97754">
        <ele>289</ele>
        <time>2019-04-18T17:28:49Z</time>
      </trkpt>
      <trkpt lat="45.98253" lon="4.97799">
        <ele>288</ele>
        <time>2019-04-18T17:29:49Z</time>
      </trkpt>
      <trkpt lat="45.98236" lon="4.97855">
        <ele>286</ele>
        <time>2019-04-18T17:30:49Z</time>
      </trkpt>
      <trkpt lat="45.98224" lon="4.97879">
        <ele>285</ele>
        <time>2019-04-18T17:31:49Z</time>
      </trkpt>
      <trkpt lat="45.98091" lon="4.98121">
        <ele>284</ele>
        <time>2019-04-18T17:32:49Z</time>
      </trkpt>
      <trkpt lat="45.97962" lon="4.98328">
        <ele>284</ele>
        <time>2019-04-18T17:33:49Z</time>
      </trkpt>
      <trkpt lat="45.97935" lon="4.98356">
        <ele>285</ele>
        <time>2019-04-18T17:34:49Z</time>
      </trkpt>
      <trkpt lat="45.9776" lon="4.98465">
        <ele>283</ele>
        <time>2019-04-18T17:35:49Z</time>
      </trkpt>
      <trkpt lat="45.97543" lon="4.98616">
        <ele>282</ele>
        <time>2019-04-18T17:36:49Z</time>
      </trkpt>
      <trkpt lat="45.97388" lon="4.98716">
        <ele>280</ele>
        <time>2019-04-18T17:37:49Z</time>
      </trkpt>
      <trkpt lat="45.97372" lon="4.98742">
        <ele>280</ele>
        <time>2019-04-18T17:38:49Z</time>
      </trkpt>
      <trkpt lat="45.97326" lon="4.98825">
        <ele>282</ele>
        <time>2019-04-18T17:39:49Z</time>
      </trkpt>
      <trkpt lat="45.97304" lon="4.98885">
        <ele>282</ele>
        <time>2019-04-18T17:40:49Z</time>
      </trkpt>
      <trkpt lat="45.97187" lon="4.99406">
        <ele>283</ele>
        <time>2019-04-18T17:41:49Z</time>
      </trkpt>
      <trkpt lat="45.97096" lon="4.99798">
        <ele>283</ele>
        <time>2019-04-18T17:42:49Z</time>
      </trkpt>
      <trkpt lat="45.97089" lon="4.99819">
        <ele>283</ele>
        <time>2019-04-18T17:43:49Z</time>
      </trkpt>
      <trkpt lat="45.9708" lon="4.99834">
        <ele>283</ele>
        <time>2019-04-18T17:44:49Z</time>
      </trkpt>
      <trkpt lat="45.97064" lon="4.99849">
        <ele>283</ele>
        <time>2019-04-18T17:45:49Z</time>
      </trkpt>
      <trkpt lat="45.96986" lon="4.99902">
        <ele>283</ele>
        <time>2019-04-18T17:46:49Z</time>
      </trkpt>
      <trkpt lat="45.96975" lon="4.99909">
        <ele>283</ele>
        <time>2019-04-18T17:47:49Z</time>
      </trkpt>
      <trkpt lat="45.96961" lon="4.99915">
        <ele>283</ele>
        <time>2019-04-18T17:48:49Z</time>
      </trkpt>
      <trkpt lat="45.96948" lon="4.99917">
        <ele>282</ele>
        <time>2019-04-18T17:49:49Z</time>
      </trkpt>
      <trkpt lat="45.96632" lon="4.99907">
        <ele>283</ele>
        <time>2019-04-18T17:50:49Z</time>
      </trkpt>
      <trkpt lat="45.96611" lon="4.99911">
        <ele>284</ele>
        <time>2019-04-18T17:51:49Z</time>
      </trkpt>
      <trkpt lat="45.96564" lon="4.99931">
        <ele>284</ele>
        <time>2019-04-18T17:52:49Z</time>
      </trkpt>
      <trkpt lat="45.96243" lon="5.00101">
        <ele>284</ele>
        <time>2019-04-18T17:53:49Z</time>
      </trkpt>
      <trkpt lat="45.96227" lon="5.00112">
        <ele>284</ele>
        <time>2019-04-18T17:54:49Z</time>
      </trkpt>
      <trkpt lat="45.96214" lon="5.00127">
        <ele>284</ele>
        <time>2019-04-18T17:55:49Z</time>
      </trkpt>
      <trkpt lat="45.96207" lon="5.00144">
        <ele>284</ele>
        <time>2019-04-18T17:56:49Z</time>
      </trkpt>
      <trkpt lat="45.96205" lon="5.00161">
        <ele>284</ele>
        <time>2019-04-18T17:57:49Z</time>
      </trkpt>
      <trkpt lat="45.96204" lon="5.00308">
        <ele>282</ele>
        <time>2019-04-18T17:58:49Z</time>
      </trkpt>
      <trkpt lat="45.96201" lon="5.00331">
        <ele>282</ele>
        <time>2019-04-18T17:59:49Z</time>
      </trkpt>
      <trkpt lat="45.9649" lon="5.00536">
        <ele>285</ele>
        <time>2019-04-18T18:00:49Z</time>
      </trkpt>
      <trkpt lat="45.96561" lon="5.00579">
        <ele>284</ele>
        <time>2019-04-18T18:01:49Z</time>
      </trkpt>
      <trkpt lat="45.96718" lon="5.00662">
        <ele>280</ele>
        <time>2019-04-18T18:02:49Z</time>
      </trkpt>
      <trkpt lat="45.96702" lon="5.00702">
        <ele>280</ele>
        <time>2019-04-18T18:03:49Z</time>
      </trkpt>
      <trkpt lat="45.96654" lon="5.00747">
        <ele>281</ele>
        <time>2019-04-18T18:04:49Z</time>
      </trkpt>
      <trkpt lat="45.9663" lon="5.00789">
        <ele>283</ele>
        <time>2019-04-18T18:05:49Z</time>
      </trkpt>
      <trkpt lat="45.96617" lon="5.00828">
        <ele>285</ele>
        <time>2019-04-18T18:06:49Z</time>
      </trkpt>
      <trkpt lat="45.96608" lon="5.00867">
        <ele>287</ele>
        <time>2019-04-18T18:07:49Z</time>
      </trkpt>
      <trkpt lat="45.96558" lon="5.01429">
        <ele>283</ele>
        <time>2019-04-18T18:08:49Z</time>
      </trkpt>
      <trkpt lat="45.96439" lon="5.02728">
        <ele>280</ele>
        <time>2019-04-18T18:09:49Z</time>
      </trkpt>
      <trkpt lat="45.96336" lon="5.03968">
        <ele>278</ele>
        <time>2019-04-18T18:10:49Z</time>
      </trkpt>
      <trkpt lat="45.96275" lon="5.04735">
        <ele>279</ele>
        <time>2019-04-18T18:11:49Z</time>
      </trkpt>
      <trkpt lat="45.96276" lon="5.0478">
        <ele>279</ele>
        <time>2019-04-18T18:12:49Z</time>
      </trkpt>
      <trkpt lat="45.9628" lon="5.04839">
        <ele>279</ele>
        <time>2019-04-18T18:13:49Z</time>
      </trkpt>
      <trkpt lat="45.96424" lon="5.05643">
        <ele>283</ele>
        <time>2019-04-18T18:14:49Z</time>
      </trkpt>
      <trkpt lat="45.96506" lon="5.06083">
        <ele>281</ele>
        <time>2019-04-18T18:15:49Z</time>
      </trkpt>
      <trkpt lat="45.96719" lon="5.07271">
        <ele>279</ele>
        <time>2019-04-18T18:16:49Z</time>
      </trkpt>
      <trkpt lat="45.96886" lon="5.08188">
        <ele>284</ele>
        <time>2019-04-18T18:17:49Z</time>
      </trkpt>
      <trkpt lat="45.96923" lon="5.08378">
        <ele>282</ele>
        <time>2019-04-18T18:18:49Z</time>
      </trkpt>
      <trkpt lat="45.96941" lon="5.08433">
        <ele>280</ele>
        <time>2019-04-18T18:19:49Z</time>
      </trkpt>
      <trkpt lat="45.96956" lon="5.08467">
        <ele>279</ele>
        <time>2019-04-18T18:20:49Z</time>
      </trkpt>
      <trkpt lat="45.96976" lon="5.08498">
        <ele>278</ele>
        <time>2019-04-18T18:21:49Z</time>
      </trkpt>
      <trkpt lat="45.97609" lon="5.09121">
        <ele>281</ele>
        <time>2019-04-18T18:22:49Z</time>
      </trkpt>
      <trkpt lat="45.97645" lon="5.0916">
        <ele>282</ele>
        <time>2019-04-18T18:23:49Z</time>
      </trkpt>
      <trkpt lat="45.97654" lon="5.09165">
        <ele>282</ele>
        <time>2019-04-18T18:24:49Z</time>
      </trkpt>
      <trkpt lat="45.97663" lon="5.09167">
        <ele>282</ele>
        <time>2019-04-18T18:25:49Z</time>
      </trkpt>
      <trkpt lat="45.97666" lon="5.0919">
        <ele>281</ele>
        <time>2019-04-18T18:26:49Z</time>
      </trkpt>
      <trkpt lat="45.97672" lon="5.09213">
        <ele>281</ele>
        <time>2019-04-18T18:27:49Z</time>
      </trkpt>
      <trkpt lat="45.97793" lon="5.09566">
        <ele>282</ele>
        <time>2019-04-18T18:28:49Z</time>
      </trkpt>
      <trkpt lat="45.97885" lon="5.09829">
        <ele>280</ele>
        <time>2019-04-18T18:29:49Z</time>
      </trkpt>
      <trkpt lat="45.98016" lon="5.10189">
        <ele>283</ele>
        <time>2019-04-18T18:30:49Z</time>
      </trkpt>
      <trkpt lat="45.98033" lon="5.10247">
        <ele>285</ele>
        <time>2019-04-18T18:31:49Z</time>
      </trkpt>
      <trkpt lat="45.98035" lon="5.10277">
        <ele>285</ele>
        <time>2019-04-18T18:32:49Z</time>
      </trkpt>
      <trkpt lat="45.98026" lon="5.10337">
        <ele>286</ele>
        <time>2019-04-18T18:33:49Z</time>
      </trkpt>
      <trkpt lat="45.98019" lon="5.10411">
        <ele>288</ele>
        <time>2019-04-18T18:34:49Z</time>
      </trkpt>
      <trkpt lat="45.98019" lon="5.10444">
        <ele>288</ele>
        <time>2019-04-18T18:35:49Z</time>
      </trkpt>
      <trkpt lat="45.98022" lon="5.10484">
        <ele>288</ele>
        <time>2019-04-18T18:36:49Z</time>
      </trkpt>
      <trkpt lat="45.98029" lon="5.10512">
        <ele>288</ele>
        <time>2019-04-18T18:37:49Z</time>
      </trkpt>
      <trkpt lat="45.98036" lon="5.10525">
        <ele>289</ele>
        <time>2019-04-18T18:38:49Z</time>
      </trkpt>
      <trkpt lat="45.98064" lon="5.10558">
        <ele>292</ele>
        <time>2019-04-18T18:39:49Z</time>
      </trkpt>
      <trkpt lat="45.98096" lon="5.10585">
        <ele>295</ele>
        <time>2019-04-18T18:40:49Z</time>
      </trkpt>
      <trkpt lat="45.98172" lon="5.10638">
        <ele>296</ele>
        <time>2019-04-18T18:41:49Z</time>
      </trkpt>
      <trkpt lat="45.9847" lon="5.10873">
        <ele>282</ele>
        <time>2019-04-18T18:42:49Z</time>
      </trkpt>
      <trkpt lat="45.98493" lon="5.10897">
        <ele>282</ele>
        <time>2019-04-18T18:43:49Z</time>
      </trkpt>
      <trkpt lat="45.98513" lon="5.1093">
        <ele>282</ele>
        <time>2019-04-18T18:44:49Z</time>
      </trkpt>
      <trkpt lat="45.98556" lon="5.11033">
        <ele>283</ele>
        <time>2019-04-18T18:45:49Z</time>
      </trkpt>
      <trkpt lat="45.98578" lon="5.111">
        <ele>284</ele>
        <time>2019-04-18T18:46:49Z</time>
      </trkpt>
      <trkpt lat="45.98583" lon="5.11144">
        <ele>283</ele>
        <time>2019-04-18T18:47:49Z</time>
      </trkpt>
      <trkpt lat="45.98586" lon="5.11292">
        <ele>283</ele>
        <time>2019-04-18T18:48:49Z</time>
      </trkpt>
      <trkpt lat="45.9859" lon="5.11333">
        <ele>283</ele>
        <time>2019-04-18T18:49:49Z</time>
      </trkpt>
      <trkpt lat="45.98599" lon="5.11372">
        <ele>284</ele>
        <time>2019-04-18T18:50:49Z</time>
      </trkpt>
      <trkpt lat="45.98632" lon="5.11485">
        <ele>285</ele>
        <time>2019-04-18T18:51:49Z</time>
      </trkpt>
      <trkpt lat="45.98878" lon="5.12272">
        <ele>289</ele>
        <time>2019-04-18T18:52:49Z</time>
      </trkpt>
      <trkpt lat="45.98907" lon="5.12348">
        <ele>290</ele>
        <time>2019-04-18T18:53:49Z</time>
      </trkpt>
      <trkpt lat="45.9894" lon="5.12411">
        <ele>289</ele>
        <time>2019-04-18T18:54:49Z</time>
      </trkpt>
      <trkpt lat="45.98987" lon="5.12481">
        <ele>288</ele>
        <time>2019-04-18T18:55:49Z</time>
      </trkpt>
      <trkpt lat="45.9922" lon="5.12807">
        <ele>286</ele>
        <time>2019-04-18T18:56:49Z</time>
      </trkpt>
      <trkpt lat="45.99471" lon="5.13164">
        <ele>284</ele>
        <time>2019-04-18T18:57:49Z</time>
      </trkpt>
      <trkpt lat="45.99487" lon="5.13196">
        <ele>284</ele>
        <time>2019-04-18T18:58:49Z</time>
      </trkpt>
      <trkpt lat="45.995" lon="5.1323">
        <ele>284</ele>
        <time>2019-04-18T18:59:49Z</time>
      </trkpt>
      <trkpt lat="45.99527" lon="5.133">
        <ele>283</ele>
        <time>2019-04-18T19:00:49Z</time>
      </trkpt>
      <trkpt lat="45.9956" lon="5.13389">
        <ele>282</ele>
        <time>2019-04-18T19:01:49Z</time>
      </trkpt>
      <trkpt lat="45.99608" lon="5.13513">
        <ele>284</ele>
        <time>2019-04-18T19:02:49Z</time>
      </trkpt>
      <trkpt lat="45.9963" lon="5.13587">
        <ele>285</ele>
        <time>2019-04-18T19:03:49Z</time>
      </trkpt>
      <trkpt lat="45.99661" lon="5.13704">
        <ele>286</ele>
        <time>2019-04-18T19:04:49Z</time>
      </trkpt>
      <trkpt lat="45.99669" lon="5.13756">
        <ele>286</ele>
        <time>2019-04-18T19:05:49Z</time>
      </trkpt>
      <trkpt lat="45.99752" lon="5.14444">
        <ele>289</ele>
        <time>2019-04-18T19:06:49Z</time>
      </trkpt>
      <trkpt lat="45.99761" lon="5.14554">
        <ele>289</ele>
        <time>2019-04-18T19:07:49Z</time>
      </trkpt>
      <trkpt lat="45.99762" lon="5.1465">
        <ele>288</ele>
        <time>2019-04-18T19:08:49Z</time>
      </trkpt>
      <trkpt lat="45.99776" lon="5.15044">
        <ele>288</ele>
        <time>2019-04-18T19:09:49Z</time>
      </trkpt>
      <trkpt lat="45.99781" lon="5.15085">
        <ele>289</ele>
        <time>2019-04-18T19:10:49Z</time>
      </trkpt>
      <trkpt lat="45.99862" lon="5.15321">
        <ele>289</ele>
        <time>2019-04-18T19:11:49Z</time>
      </trkpt>
      <trkpt lat="45.99874" lon="5.1537">
        <ele>289</ele>
        <time>2019-04-18T19:12:49Z</time>
      </trkpt>
      <trkpt lat="45.99905" lon="5.156">
        <ele>289</ele>
        <time>2019-04-18T19:13:49Z</time>
      </trkpt>
      <trkpt lat="45.99906" lon="5.15636">
        <ele>289</ele>
        <time>2019-04-18T19:14:49Z</time>
      </trkpt>
      <trkpt lat="45.99902" lon="5.15665">
        <ele>289</ele>
        <time>2019-04-18T19:15:49Z</time>
      </trkpt>
      <trkpt lat="45.99832" lon="5.16123">
        <ele>294</ele>
        <time>2019-04-18T19:16:49Z</time>
      </trkpt>
      <trkpt lat="45.99827" lon="5.16174">
        <ele>295</ele>
        <time>2019-04-18T19:17:49Z</time>
      </trkpt>
      <trkpt lat="45.99826" lon="5.16216">
        <ele>297</ele>
        <time>2019-04-18T19:18:49Z</time>
      </trkpt>
      <trkpt lat="45.9983" lon="5.16252">
        <ele>298</ele>
        <time>2019-04-18T19:19:49Z</time>
      </trkpt>
      <trkpt lat="45.99866" lon="5.16405">
        <ele>300</ele>
        <time>2019-04-18T19:20:49Z</time>
      </trkpt>
      <trkpt lat="45.99872" lon="5.16437">
        <ele>300</ele>
        <time>2019-04-18T19:21:49Z</time>
      </trkpt>
      <trkpt lat="45.99872" lon="5.16463">
        <ele>301</ele>
        <time>2019-04-18T19:22:49Z</time>
      </trkpt>
      <trkpt lat="45.9987" lon="5.16476">
        <ele>301</ele>
        <time>2019-04-18T19:23:49Z</time>
      </trkpt>
      <trkpt lat="45.99864" lon="5.16495">
        <ele>302</ele>
        <time>2019-04-18T19:24:49Z</time>
      </trkpt>
      <trkpt lat="45.9983" lon="5.1656">
        <ele>305</ele>
        <time>2019-04-18T19:25:49Z</time>
      </trkpt>
      <trkpt lat="45.99817" lon="5.16588">
        <ele>306</ele>
        <time>2019-04-18T19:26:49Z</time>
      </trkpt>
      <trkpt lat="45.99798" lon="5.16642">
        <ele>305</ele>
        <time>2019-04-18T19:27:49Z</time>
      </trkpt>
      <trkpt lat="45.99785" lon="5.16693">
        <ele>302</ele>
        <time>2019-04-18T19:28:49Z</time>
      </trkpt>
      <trkpt lat="45.99742" lon="5.16901">
        <ele>296</ele>
        <time>2019-04-18T19:29:49Z</time>
      </trkpt>
      <trkpt lat="45.99702" lon="5.17068">
        <ele>296</ele>
        <time>2019-04-18T19:30:49Z</time>
      </trkpt>
      <trkpt lat="45.99689" lon="5.17109">
        <ele>296</ele>
        <time>2019-04-18T19:31:49Z</time>
      </trkpt>
      <trkpt lat="45.99675" lon="5.17145">
        <ele>295</ele>
        <time>2019-04-18T19:32:49Z</time>
      </trkpt>
      <trkpt lat="45.99689" lon="5.17168">
        <ele>295</ele>
        <time>2019-04-18T19:33:49Z</time>
      </trkpt>
      <trkpt lat="45.99706" lon="5.17215">
        <ele>295</ele>
        <time>2019-04-18T19:34:49Z</time>
      </trkpt>
      <trkpt lat="45.99731" lon="5.17267">
        <ele>296</ele>
        <time>2019-04-18T19:35:49Z</time>
      </trkpt>
      <trkpt lat="45.99823" lon="5.17356">
        <ele>297</ele>
        <time>2019-04-18T19:36:49Z</time>
      </trkpt>
      <trkpt lat="45.99842" lon="5.17378">
        <ele>295</ele>
        <time>2019-04-18T19:37:49Z</time>
      </trkpt>
      <trkpt lat="45.99857" lon="5.174">
        <ele>293</ele>
        <time>2019-04-18T19:38:49Z</time>
      </trkpt>
      <trkpt lat="45.9987" lon="5.17431">
        <ele>291</ele>
        <time>2019-04-18T19:39:49Z</time>
      </trkpt>
      <trkpt lat="45.99875" lon="5.17438">
        <ele>291</ele>
        <time>2019-04-18T19:40:49Z</time>
      </trkpt>
      <trkpt lat="45.99882" lon="5.17459">
        <ele>290</ele>
        <time>2019-04-18T19:41:49Z</time>
      </trkpt>
      <trkpt lat="45.99883" lon="5.17468">
        <ele>289</ele>
        <time>2019-04-18T19:42:49Z</time>
      </trkpt>
      <trkpt lat="45.9988" lon="5.17473">
        <ele>289</ele>
        <time>2019-04-18T19:43:49Z</time>
      </trkpt>
      <trkpt lat="45.99879" lon="5.1748">
        <ele>289</ele>
        <time>2019-04-18T19:44:49Z</time>
      </trkpt>
      <trkpt lat="45.99881" lon="5.17487">
        <ele>288</ele>
        <time>2019-04-18T19:45:49Z</time>
      </trkpt>
      <trkpt lat="45.99885" lon="5.17491">
        <ele>288</ele>
        <time>2019-04-18T19:46:49Z</time>
      </trkpt>
      <trkpt lat="45.99892" lon="5.1749">
        <ele>288</ele>
        <time>2019-04-18T19:47:49Z</time>
      </trkpt>
      <trkpt lat="45.99897" lon="5.17495">
        <ele>288</ele>
        <time>2019-04-18T19:48:49Z</time>
      </trkpt>
      <trkpt lat="45.99921" lon="5.17563">
        <ele>287</ele>
        <time>2019-04-18T19:49:49Z</time>
      </trkpt>
      <trkpt lat="45.99962" lon="5.17667">
        <ele>290</ele>
        <time>2019-04-18T19:50:49Z</time>
      </trkpt>
      <trkpt lat="46.00014" lon="5.17817">
        <ele>288</ele>
        <time>2019-04-18T19:51:49Z</time>
      </trkpt>
      <trkpt lat="46.00153" lon="5.18199">
        <ele>288</ele>
        <time>2019-04-18T19:52:49Z</time>
      </trkpt>
      <trkpt lat="46.00272" lon="5.18492">
        <ele>289</ele>
        <time>2019-04-18T19:53:49Z</time>
      </trkpt>
      <trkpt lat="46.00288" lon="5.18539">
        <ele>290</ele>
        <time>2019-04-18T19:54:49Z</time>
      </trkpt>
      <trkpt lat="46.00334" lon="5.18655">
        <ele>291</ele>
        <time>2019-04-18T19:55:49Z</time>
      </trkpt>
      <trkpt lat="46.00365" lon="5.18715">
        <ele>293</ele>
        <time>2019-04-18T19:56:49Z</time>
      </trkpt>
      <trkpt lat="46.00572" lon="5.19067">
        <ele>300</ele>
        <time>2019-04-18T19:57:49Z</time>
      </trkpt>
      <trkpt lat="46.00832" lon="5.19505">
        <ele>308</ele>
        <time>2019-04-18T19:58:49Z</time>
      </trkpt>
      <trkpt lat="46.00958" lon="5.19723">
        <ele>305</ele>
        <time>2019-04-18T19:59:49Z</time>
      </trkpt>
      <trkpt lat="46.01261" lon="5.20232">
        <ele>305</ele>
        <time>2019-04-18T20:00:49Z</time>
      </trkpt>
      <trkpt lat="46.01346" lon="5.20381">
        <ele>304</ele>
        <time>2019-04-18T20:01:49Z</time>
      </trkpt>
      <trkpt lat="46.0137" lon="5.2041">
        <ele>303</ele>
        <time>2019-04-18T20:02:49Z</time>
      </trkpt>
      <trkpt lat="46.01395" lon="5.20433">
        <ele>301</ele>
        <time>2019-04-18T20:03:49Z</time>
      </trkpt>
      <trkpt lat="46.01413" lon="5.20441">
        <ele>300</ele>
        <time>2019-04-18T20:04:49Z</time>
      </trkpt>
      <trkpt lat="46.01434" lon="5.20448">
        <ele>298</ele>
        <time>2019-04-18T20:05:49Z</time>
      </trkpt>
      <trkpt lat="46.01457" lon="5.20448">
        <ele>297</ele>
        <time>2019-04-18T20:06:49Z</time>
      </trkpt>
      <trkpt lat="46.01487" lon="5.20446">
        <ele>296</ele>
        <time>2019-04-18T20:07:49Z</time>
      </trkpt>
      <trkpt lat="46.0154" lon="5.20454">
        <ele>293</ele>
        <time>2019-04-18T20:08:49Z</time>
      </trkpt>
      <trkpt lat="46.01558" lon="5.20461">
        <ele>291</ele>
        <time>2019-04-18T20:09:49Z</time>
      </trkpt>
      <trkpt lat="46.0158" lon="5.20474">
        <ele>289</ele>
        <time>2019-04-18T20:10:49Z</time>
      </trkpt>
      <trkpt lat="46.01601" lon="5.20496">
        <ele>288</ele>
        <time>2019-04-18T20:11:49Z</time>
      </trkpt>
      <trkpt lat="46.01619" lon="5.20521">
        <ele>287</ele>
        <time>2019-04-18T20:12:49Z</time>
      </trkpt>
      <trkpt lat="46.01629" lon="5.2054">
        <ele>286</ele>
        <time>2019-04-18T20:13:49Z</time>
      </trkpt>
      <trkpt lat="46.01643" lon="5.20577">
        <ele>284</ele>
        <time>2019-04-18T20:14:49Z</time>
      </trkpt>
      <trkpt lat="46.0168" lon="5.20698">
        <ele>283</ele>
        <time>2019-04-18T20:15:49Z</time>
      </trkpt>
      <trkpt lat="46.01722" lon="5.20829">
        <ele>282</ele>
        <time>2019-04-18T20:16:49Z</time>
      </trkpt>
      <trkpt lat="46.01747" lon="5.20901">
        <ele>282</ele>
        <time>2019-04-18T20:17:49Z</time>
      </trkpt>
      <trkpt lat="46.0181" lon="5.211">
        <ele>289</ele>
        <time>2019-04-18T20:18:49Z</time>
      </trkpt>
      <trkpt lat="46.01864" lon="5.21356">
        <ele>293</ele>
        <time>2019-04-18T20:19:49Z</time>
      </trkpt>
      <trkpt lat="46.01908" lon="5.21581">
        <ele>295</ele>
        <time>2019-04-18T20:20:49Z</time>
      </trkpt>
      <trkpt lat="46.01942" lon="5.2172">
        <ele>293</ele>
        <time>2019-04-18T20:21:49Z</time>
      </trkpt>
      <trkpt lat="46.02042" lon="5.22076">
        <ele>297</ele>
        <time>2019-04-18T20:22:49Z</time>
      </trkpt>
      <trkpt lat="46.02426" lon="5.23119">
        <ele>296</ele>
        <time>2019-04-18T20:23:49Z</time>
      </trkpt>
      <trkpt lat="46.02447" lon="5.23195">
        <ele>297</ele>
        <time>2019-04-18T20:24:49Z</time>
      </trkpt>
      <trkpt lat="46.0246" lon="5.23256">
        <ele>297</ele>
        <time>2019-04-18T20:25:49Z</time>
      </trkpt>
      <trkpt lat="46.02572" lon="5.24198">
        <ele>294</ele>
        <time>2019-04-18T20:26:49Z</time>
      </trkpt>
      <trkpt lat="46.0271" lon="5.25333">
        <ele>321</ele>
        <time>2019-04-18T20:27:49Z</time>
      </trkpt>
      <trkpt lat="46.02767" lon="5.25834">
        <ele>322</ele>
        <time>2019-04-18T20:28:49Z</time>
      </trkpt>
      <trkpt lat="46.02766" lon="5.2587">
        <ele>323</ele>
        <time>2019-04-18T20:29:49Z</time>
      </trkpt>
      <trkpt lat="46.0276" lon="5.25911">
        <ele>324</ele>
        <time>2019-04-18T20:30:49Z</time>
      </trkpt>
      <trkpt lat="46.02748" lon="5.25964">
        <ele>325</ele>
        <time>2019-04-18T20:31:49Z</time>
      </trkpt>
      <trkpt lat="46.02614" lon="5.26469">
        <ele>322</ele>
        <time>2019-04-18T20:32:49Z</time>
      </trkpt>
      <trkpt lat="46.02601" lon="5.26525">
        <ele>322</ele>
        <time>2019-04-18T20:33:49Z</time>
      </trkpt>
      <trkpt lat="46.02594" lon="5.26574">
        <ele>321</ele>
        <time>2019-04-18T20:34:49Z</time>
      </trkpt>
      <trkpt lat="46.02592" lon="5.26663">
        <ele>323</ele>
        <time>2019-04-18T20:35:49Z</time>
      </trkpt>
      <trkpt lat="46.02585" lon="5.26862">
        <ele>335</ele>
        <time>2019-04-18T20:36:49Z</time>
      </trkpt>
      <trkpt lat="46.02453" lon="5.2774">
        <ele>341</ele>
        <time>2019-04-18T20:37:49Z</time>
      </trkpt>
      <trkpt lat="46.02409" lon="5.28">
        <ele>340</ele>
        <time>2019-04-18T20:38:49Z</time>
      </trkpt>
      <trkpt lat="46.02401" lon="5.28073">
        <ele>338</ele>
        <time>2019-04-18T20:39:49Z</time>
      </trkpt>
      <trkpt lat="46.02401" lon="5.28263">
        <ele>335</ele>
        <time>2019-04-18T20:40:49Z</time>
      </trkpt>
      <trkpt lat="46.02404" lon="5.28512">
        <ele>327</ele>
        <time>2019-04-18T20:41:49Z</time>
      </trkpt>
      <trkpt lat="46.02415" lon="5.28723">
        <ele>315</ele>
        <time>2019-04-18T20:42:49Z</time>
      </trkpt>
      <trkpt lat="46.02432" lon="5.28774">
        <ele>311</ele>
        <time>2019-04-18T20:43:49Z</time>
      </trkpt>
      <trkpt lat="46.02449" lon="5.28807">
        <ele>308</ele>
        <time>2019-04-18T20:44:49Z</time>
      </trkpt>
      <trkpt lat="46.02498" lon="5.2885">
        <ele>301</ele>
        <time>2019-04-18T20:45:49Z</time>
      </trkpt>
      <trkpt lat="46.02545" lon="5.28883">
        <ele>296</ele>
        <time>2019-04-18T20:46:49Z</time>
      </trkpt>
      <trkpt lat="46.02601" lon="5.2894">
        <ele>292</ele>
        <time>2019-04-18T20:47:49Z</time>
      </trkpt>
      <trkpt lat="46.0283" lon="5.29202">
        <ele>294</ele>
        <time>2019-04-18T20:48:49Z</time>
      </trkpt>
      <trkpt lat="46.02953" lon="5.29365">
        <ele>298</ele>
        <time>2019-04-18T20:49:49Z</time>
      </trkpt>
      <trkpt lat="46.02962" lon="5.29387">
        <ele>298</ele>
        <time>2019-04-18T20:50:49Z</time>
      </trkpt>
      <trkpt lat="46.02967" lon="5.29406">
        <ele>299</ele>
        <time>2019-04-18T20:51:49Z</time>
      </trkpt>
      <trkpt lat="46.02972" lon="5.29588">
        <ele>296</ele>
        <time>2019-04-18T20:52:49Z</time>
      </trkpt>
      <trkpt lat="46.02974" lon="5.29844">
        <ele>294</ele>
        <time>2019-04-18T20:53:49Z</time>
      </trkpt>
      <trkpt lat="46.02971" lon="5.29905">
        <ele>293</ele>
        <time>2019-04-18T20:54:49Z</time>
      </trkpt>
      <trkpt lat="46.0297" lon="5.29982">
        <ele>293</ele>
        <time>2019-04-18T20:55:49Z</time>
      </trkpt>
      <trkpt lat="46.02965" lon="5.30204">
        <ele>289</ele>
        <time>2019-04-18T20:56:49Z</time>
      </trkpt>
      <trkpt lat="46.0296" lon="5.30219">
        <ele>288</ele>
        <time>2019-04-18T20:57:49Z</time>
      </trkpt>
      <trkpt lat="46.02954" lon="5.3023">
        <ele>286</ele>
        <time>2019-04-18T20:58:49Z</time>
      </trkpt>
      <trkpt lat="46.02922" lon="5.30262">
        <ele>280</ele>
        <time>2019-04-18T20:59:49Z</time>
      </trkpt>
      <trkpt lat="46.0291" lon="5.30279">
        <ele>278</ele>
        <time>2019-04-18T21:00:49Z</time>
      </trkpt>
      <trkpt lat="46.02901" lon="5.30295">
        <ele>277</ele>
        <time>2019-04-18T21:01:49Z</time>
      </trkpt>
      <trkpt lat="46.02898" lon="5.30315">
        <ele>275</ele>
        <time>2019-04-18T21:02:49Z</time>
      </trkpt>
      <trkpt lat="46.02899" lon="5.3034">
        <ele>274</ele>
        <time>2019-04-18T21:03:49Z</time>
      </trkpt>
      <trkpt lat="46.02957" lon="5.30642">
        <ele>260</ele>
        <time>2019-04-18T21:04:49Z</time>
      </trkpt>
      <trkpt lat="46.02961" lon="5.30654">
        <ele>259</ele>
        <time>2019-04-18T21:05:49Z</time>
      </trkpt>
      <trkpt lat="46.02968" lon="5.30667">
        <ele>259</ele>
        <time>2019-04-18T21:06:49Z</time>
      </trkpt>
      <trkpt lat="46.02979" lon="5.30684">
        <ele>259</ele>
        <time>2019-04-18T21:07:49Z</time>
      </trkpt>
      <trkpt lat="46.03028" lon="5.30757">
        <ele>260</ele>
        <time>2019-04-18T21:08:49Z</time>
      </trkpt>
      <trkpt lat="46.03061" lon="5.30791">
        <ele>258</ele>
        <time>2019-04-18T21:09:49Z</time>
      </trkpt>
      <trkpt lat="46.03077" lon="5.30805">
        <ele>257</ele>
        <time>2019-04-18T21:10:49Z</time>
      </trkpt>
      <trkpt lat="46.031" lon="5.30819">
        <ele>257</ele>
        <time>2019-04-18T21:11:49Z</time>
      </trkpt>
      <trkpt lat="46.03146" lon="5.30842">
        <ele>259</ele>
        <time>2019-04-18T21:12:49Z</time>
      </trkpt>
      <trkpt lat="46.03208" lon="5.30895">
        <ele>256</ele>
        <time>2019-04-18T21:13:49Z</time>
      </trkpt>
      <trkpt lat="46.03265" lon="5.30932">
        <ele>255</ele>
        <time>2019-04-18T21:14:49Z</time>
      </trkpt>
      <trkpt lat="46.03281" lon="5.30939">
        <ele>255</ele>
        <time>2019-04-18T21:15:49Z</time>
      </trkpt>
      <trkpt lat="46.03333" lon="5.30953">
        <ele>256</ele>
        <time>2019-04-18T21:16:49Z</time>
      </trkpt>
      <trkpt lat="46.03346" lon="5.3096">
        <ele>256</ele>
        <time>2019-04-18T21:17:49Z</time>
      </trkpt>
      <trkpt lat="46.03357" lon="5.30967">
        <ele>255</ele>
        <time>2019-04-18T21:18:49Z</time>
      </trkpt>
      <trkpt lat="46.03387" lon="5.30996">
        <ele>252</ele>
        <time>2019-04-18T21:19:49Z</time>
      </trkpt>
      <trkpt lat="46.0344" lon="5.31032">
        <ele>250</ele>
        <time>2019-04-18T21:20:49Z</time>
      </trkpt>
      <trkpt lat="46.03453" lon="5.31046">
        <ele>249</ele>
        <time>2019-04-18T21:21:49Z</time>
      </trkpt>
      <trkpt lat="46.03457" lon="5.31055">
        <ele>248</ele>
        <time>2019-04-18T21:22:49Z</time>
      </trkpt>
      <trkpt lat="46.03456" lon="5.3106">
        <ele>248</ele>
        <time>2019-04-18T21:23:49Z</time>
      </trkpt>
      <trkpt lat="46.03467" lon="5.3107">
        <ele>247</ele>
        <time>2019-04-18T21:24:49Z</time>
      </trkpt>
      <trkpt lat="46.03512" lon="5.3112">
        <ele>247</ele>
        <time>2019-04-18T21:25:49Z</time>
      </trkpt>
      <trkpt lat="46.03736" lon="5.3139">
        <ele>245</ele>
        <time>2019-04-18T21:26:49Z</time>
      </trkpt>
      <trkpt lat="46.03973" lon="5.31679">
        <ele>241</ele>
        <time>2019-04-18T21:27:49Z</time>
      </trkpt>
      <trkpt lat="46.03983" lon="5.31685">
        <ele>241</ele>
        <time>2019-04-18T21:28:49Z</time>
      </trkpt>
      <trkpt lat="46.04037" lon="5.31701">
        <ele>242</ele>
        <time>2019-04-18T21:29:49Z</time>
      </trkpt>
      <trkpt lat="46.04377" lon="5.31813">
        <ele>245</ele>
        <time>2019-04-18T21:30:49Z</time>
      </trkpt>
      <trkpt lat="46.04556" lon="5.31869">
        <ele>248</ele>
        <time>2019-04-18T21:31:49Z</time>
      </trkpt>
      <trkpt lat="46.04602" lon="5.31885">
        <ele>249</ele>
        <time>2019-04-18T21:32:49Z</time>
      </trkpt>
      <trkpt lat="46.04619" lon="5.31899">
        <ele>249</ele>
        <time>2019-04-18T21:33:49Z</time>
      </trkpt>
      <trkpt lat="46.04632" lon="5.31917">
        <ele>249</ele>
        <time>2019-04-18T21:34:49Z</time>
      </trkpt>
      <trkpt lat="46.04705" lon="5.32061">
        <ele>249</ele>
        <time>2019-04-18T21:35:49Z</time>
      </trkpt>
      <trkpt lat="46.04728" lon="5.32091">
        <ele>248</ele>
        <time>2019-04-18T21:36:49Z</time>
      </trkpt>
      <trkpt lat="46.04754" lon="5.32113">
        <ele>248</ele>
        <time>2019-04-18T21:37:49Z</time>
      </trkpt>
      <trkpt lat="46.04777" lon="5.32119">
        <ele>247</ele>
        <time>2019-04-18T21:38:49Z</time>
      </trkpt>
      <trkpt lat="46.04797" lon="5.3212">
        <ele>247</ele>
        <time>2019-04-18T21:39:49Z</time>
      </trkpt>
      <trkpt lat="46.0481" lon="5.32123">
        <ele>247</ele>
        <time>2019-04-18T21:40:49Z</time>
      </trkpt>
      <trkpt lat="46.04849" lon="5.32148">
        <ele>246</ele>
        <time>2019-04-18T21:41:49Z</time>
      </trkpt>
      <trkpt lat="46.04864" lon="5.3216">
        <ele>246</ele>
        <time>2019-04-18T21:42:49Z</time>
      </trkpt>
      <trkpt lat="46.04877" lon="5.32173">
        <ele>245</ele>
        <time>2019-04-18T21:43:49Z</time>
      </trkpt>
      <trkpt lat="46.04887" lon="5.32185">
        <ele>245</ele>
        <time>2019-04-18T21:44:49Z</time>
      </trkpt>
      <trkpt lat="46.04901" lon="5.32217">
        <ele>243</ele>
        <time>2019-04-18T21:45:49Z</time>
      </trkpt>
      <trkpt lat="46.04907" lon="5.32241">
        <ele>242</ele>
        <time>2019-04-18T21:46:49Z</time>
      </trkpt>
      <trkpt lat="46.04911" lon="5.3228">
        <ele>239</ele>
        <time>2019-04-18T21:47:49Z</time>
      </trkpt>
      <trkpt lat="46.04918" lon="5.32641">
        <ele>239</ele>
        <time>2019-04-18T21:48:49Z</time>
      </trkpt>
      <trkpt lat="46.04921" lon="5.32704">
        <ele>239</ele>
        <time>2019-04-18T21:49:49Z</time>
      </trkpt>
      <trkpt lat="46.04926" lon="5.32734">
        <ele>239</ele>
        <time>2019-04-18T21:50:49Z</time>
      </trkpt>
      <trkpt lat="46.04932" lon="5.3276">
        <ele>239</ele>
        <time>2019-04-18T21:51:49Z</time>
      </trkpt>
      <trkpt lat="46.04948" lon="5.32808">
        <ele>239</ele>
        <time>2019-04-18T21:52:49Z</time>
      </trkpt>
      <trkpt lat="46.04953" lon="5.32831">
        <ele>238</ele>
        <time>2019-04-18T21:53:49Z</time>
      </trkpt>
      <trkpt lat="46.04953" lon="5.32851">
        <ele>238</ele>
        <time>2019-04-18T21:54:49Z</time>
      </trkpt>
      <trkpt lat="46.04948" lon="5.32855">
        <ele>238</ele>
        <time>2019-04-18T21:55:49Z</time>
      </trkpt>
      <trkpt lat="46.04945" lon="5.32861">
        <ele>238</ele>
        <time>2019-04-18T21:56:49Z</time>
      </trkpt>
      <trkpt lat="46.04943" lon="5.32868">
        <ele>238</ele>
        <time>2019-04-18T21:57:49Z</time>
      </trkpt>
      <trkpt lat="46.04943" lon="5.32876">
        <ele>238</ele>
        <time>2019-04-18T21:58:49Z</time>
      </trkpt>
      <trkpt lat="46.04948" lon="5.3289">
        <ele>238</ele>
        <time>2019-04-18T21:59:49Z</time>
      </trkpt>
      <trkpt lat="46.04952" lon="5.32895">
        <ele>238</ele>
        <time>2019-04-18T22:00:49Z</time>
      </trkpt>
      <trkpt lat="46.04958" lon="5.32897">
        <ele>238</ele>
        <time>2019-04-18T22:01:49Z</time>
      </trkpt>
      <trkpt lat="46.04964" lon="5.32905">
        <ele>238</ele>
        <time>2019-04-18T22:02:49Z</time>
      </trkpt>
      <trkpt lat="46.04976" lon="5.32939">
        <ele>238</ele>
        <time>2019-04-18T22:03:49Z</time>
      </trkpt>
      <trkpt lat="46.04979" lon="5.32967">
        <ele>238</ele>
        <time>2019-04-18T22:04:49Z</time>
      </trkpt>
      <trkpt lat="46.04977" lon="5.32995">
        <ele>239</ele>
        <time>2019-04-18T22:05:49Z</time>
      </trkpt>
      <trkpt lat="46.04935" lon="5.33364">
        <ele>240</ele>
        <time>2019-04-18T22:06:49Z</time>
      </trkpt>
      <trkpt lat="46.04908" lon="5.33579">
        <ele>244</ele>
        <time>2019-04-18T22:07:49Z</time>
      </trkpt>
      <trkpt lat="46.04903" lon="5.33664">
        <ele>248</ele>
        <time>2019-04-18T22:08:49Z</time>
      </trkpt>
      <trkpt lat="46.04904" lon="5.33688">
        <ele>249</ele>
        <time>2019-04-18T22:09:49Z</time>
      </trkpt>
      <trkpt lat="46.04912" lon="5.33745">
        <ele>250</ele>
        <time>2019-04-18T22:10:49Z</time>
      </trkpt>
      <trkpt lat="46.04927" lon="5.33815">
        <ele>250</ele>
        <time>2019-04-18T22:11:49Z</time>
      </trkpt>
      <trkpt lat="46.04936" lon="5.33881">
        <ele>252</ele>
        <time>2019-04-18T22:12:49Z</time>
      </trkpt>
      <trkpt lat="46.0494" lon="5.33989">
        <ele>250</ele>
        <time>2019-04-18T22:13:49Z</time>
      </trkpt>
      <trkpt lat="46.04958" lon="5.34089">
        <ele>247</ele>
        <time>2019-04-18T22:14:49Z</time>
      </trkpt>
      <trkpt lat="46.0497" lon="5.34142">
        <ele>248</ele>
        <time>2019-04-18T22:15:49Z</time>
      </trkpt>
      <trkpt lat="46.04995" lon="5.34217">
        <ele>249</ele>
        <time>2019-04-18T22:16:49Z</time>
      </trkpt>
      <trkpt lat="46.05071" lon="5.34376">
        <ele>250</ele>
        <time>2019-04-18T22:17:49Z</time>
      </trkpt>
      <trkpt lat="46.05083" lon="5.34396">
        <ele>250</ele>
        <time>2019-04-18T22:18:49Z</time>
      </trkpt>
      <trkpt lat="46.05099" lon="5.34458">
        <ele>248</ele>
        <time>2019-04-18T22:19:49Z</time>
      </trkpt>
      <trkpt lat="46.05109" lon="5.34482">
        <ele>248</ele>
        <time>2019-04-18T22:20:49Z</time>
      </trkpt>
      <trkpt lat="46.05127" lon="5.34513">
        <ele>249</ele>
        <time>2019-04-18T22:21:49Z</time>
      </trkpt>
      <trkpt lat="46.05141" lon="5.34532">
        <ele>249</ele>
        <time>2019-04-18T22:22:49Z</time>
      </trkpt>
      <trkpt lat="46.05236" lon="5.34624">
        <ele>248</ele>
        <time>2019-04-18T22:23:49Z</time>
      </trkpt>
      <trkpt lat="46.05292" lon="5.34686">
        <ele>247</ele>
        <time>2019-04-18T22:24:49Z</time>
      </trkpt>
      <trkpt lat="46.05297" lon="5.3469">
        <ele>247</ele>
        <time>2019-04-18T22:25:49Z</time>
      </trkpt>
      <trkpt lat="46.0531" lon="5.34695">
        <ele>248</ele>
        <time>2019-04-18T22:26:49Z</time>
      </trkpt>
      <trkpt lat="46.0534" lon="5.34705">
        <ele>251</ele>
        <time>2019-04-18T22:27:49Z</time>
      </trkpt>
      <trkpt lat="46.05349" lon="5.34717">
        <ele>252</ele>
        <time>2019-04-18T22:28:49Z</time>
      </trkpt>
      <trkpt lat="46.05362" lon="5.3474">
        <ele>255</ele>
        <time>2019-04-18T22:29:49Z</time>
      </trkpt>
      <trkpt lat="46.05408" lon="5.34882">
        <ele>255</ele>
        <time>2019-04-18T22:30:49Z</time>
      </trkpt>
      <trkpt lat="46.05462" lon="5.35021">
        <ele>259</ele>
        <time>2019-04-18T22:31:49Z</time>
      </trkpt>
      <trkpt lat="46.0548" lon="5.35092">
        <ele>257</ele>
        <time>2019-04-18T22:32:49Z</time>
      </trkpt>
      <trkpt lat="46.05492" lon="5.35152">
        <ele>256</ele>
        <time>2019-04-18T22:33:49Z</time>
      </trkpt>
      <trkpt lat="46.0551" lon="5.35268">
        <ele>252</ele>
        <time>2019-04-18T22:34:49Z</time>
      </trkpt>
      <trkpt lat="46.05512" lon="5.35308">
        <ele>252</ele>
        <time>2019-04-18T22:35:49Z</time>
      </trkpt>
      <trkpt lat="46.05533" lon="5.36109">
        <ele>254</ele>
        <time>2019-04-18T22:36:49Z</time>
      </trkpt>
      <trkpt lat="46.05535" lon="5.36153">
        <ele>253</ele>
        <time>2019-04-18T22:37:49Z</time>
      </trkpt>
      <trkpt lat="46.05544" lon="5.36203">
        <ele>253</ele>
        <time>2019-04-18T22:38:49Z</time>
      </trkpt>
      <trkpt lat="46.05563" lon="5.3626">
        <ele>254</ele>
        <time>2019-04-18T22:39:49Z</time>
      </trkpt>
      <trkpt lat="46.0569" lon="5.36595">
        <ele>255</ele>
        <time>2019-04-18T22:40:49Z</time>
      </trkpt>
      <trkpt lat="46.05702" lon="5.36633">
        <ele>255</ele>
        <time>2019-04-18T22:41:49Z</time>
      </trkpt>
      <trkpt lat="46.05747" lon="5.36737">
        <ele>253</ele>
        <time>2019-04-18T22:42:49Z</time>
      </trkpt>
      <trkpt lat="46.05762" lon="5.36756">
        <ele>252</ele>
        <time>2019-04-18T22:43:49Z</time>
      </trkpt>
      <trkpt lat="46.05788" lon="5.3678">
        <ele>251</ele>
        <time>2019-04-18T22:44:49Z</time>
      </trkpt>
      <trkpt lat="46.06109" lon="5.36952">
        <ele>248</ele>
        <time>2019-04-18T22:45:49Z</time>
      </trkpt>
      <trkpt lat="46.06539" lon="5.37178">
        <ele>249</ele>
        <time>2019-04-18T22:46:49Z</time>
      </trkpt>
      <trkpt lat="46.06958" lon="5.37403">
        <ele>250</ele>
        <time>2019-04-18T22:47:49Z</time>
      </trkpt>
      <trkpt lat="46.0716" lon="5.37506">
        <ele>252</ele>
        <time>2019-04-18T22:48:49Z</time>
      </trkpt>
      <trkpt lat="46.07368" lon="5.37617">
        <ele>256</ele>
        <time>2019-04-18T22:49:49Z</time>
      </trkpt>
      <trkpt lat="46.07412" lon="5.37628">
        <ele>258</ele>
        <time>2019-04-18T22:50:49Z</time>
      </trkpt>
      <trkpt lat="46.07456" lon="5.37634">
        <ele>259</ele>
        <time>2019-04-18T22:51:49Z</time>
      </trkpt>
      <trkpt lat="46.07771" lon="5.37664">
        <ele>257</ele>
        <time>2019-04-18T22:52:49Z</time>
      </trkpt>
      <trkpt lat="46.07812" lon="5.37666">
        <ele>256</ele>
        <time>2019-04-18T22:53:49Z</time>
      </trkpt>
      <trkpt lat="46.07912" lon="5.37647">
        <ele>252</ele>
        <time>2019-04-18T22:54:49Z</time>
      </trkpt>
      <trkpt lat="46.07935" lon="5.37867">
        <ele>253</ele>
        <time>2019-04-18T22:55:49Z</time>
      </trkpt>
      <trkpt lat="46.0797" lon="5.38254">
        <ele>254</ele>
        <time>2019-04-18T22:56:49Z</time>
      </trkpt>
      <trkpt lat="46.07966" lon="5.38289">
        <ele>255</ele>
        <time>2019-04-18T22:57:49Z</time>
      </trkpt>
      <trkpt lat="46.07946" lon="5.38341">
        <ele>258</ele>
        <time>2019-04-18T22:58:49Z</time>
      </trkpt>
      <trkpt lat="46.07971" lon="5.38358">
        <ele>260</ele>
        <time>2019-04-18T22:59:49Z</time>
      </trkpt>
      <trkpt lat="46.08037" lon="5.38409">
        <ele>262</ele>
        <time>2019-04-18T23:00:49Z</time>
      </trkpt>
      <trkpt lat="46.08058" lon="5.38431">
        <ele>266</ele>
        <time>2019-04-18T23:01:49Z</time>
      </trkpt>
      <trkpt lat="46.08082" lon="5.38444">
        <ele>267</ele>
        <time>2019-04-18T23:02:49Z</time>
      </trkpt>
      <trkpt lat="46.08128" lon="5.3849">
        <ele>269</ele>
        <time>2019-04-18T23:03:49Z</time>
      </trkpt>
      <trkpt lat="46.0817" lon="5.38547">
        <ele>271</ele>
        <time>2019-04-18T23:04:49Z</time>
      </trkpt>
      <trkpt lat="46.08218" lon="5.38631">
        <ele>274</ele>
        <time>2019-04-18T23:05:49Z</time>
      </trkpt>
      <trkpt lat="46.08263" lon="5.38781">
        <ele>276</ele>
        <time>2019-04-18T23:06:49Z</time>
      </trkpt>
      <trkpt lat="46.08327" lon="5.3904">
        <ele>274</ele>
        <time>2019-04-18T23:07:49Z</time>
      </trkpt>
      <trkpt lat="46.08354" lon="5.39199">
        <ele>289</ele>
        <time>2019-04-18T23:08:49Z</time>
      </trkpt>
      <trkpt lat="46.08384" lon="5.39298">
        <ele>278</ele>
        <time>2019-04-18T23:09:49Z</time>
      </trkpt>
      <trkpt lat="46.08411" lon="5.39402">
        <ele>270</ele>
        <time>2019-04-18T23:10:49Z</time>
      </trkpt>
      <trkpt lat="46.08422" lon="5.39474">
        <ele>269</ele>
        <time>2019-04-18T23:11:49Z</time>
      </trkpt>
      <trkpt lat="46.08436" lon="5.39638">
        <ele>265</ele>
        <time>2019-04-18T23:12:49Z</time>
      </trkpt>
      <trkpt lat="46.08435" lon="5.39762">
        <ele>271</ele>
        <time>2019-04-18T23:13:49Z</time>
      </trkpt>
      <trkpt lat="46.08432" lon="5.39829">
        <ele>273</ele>
        <time>2019-04-18T23:14:49Z</time>
      </trkpt>
      <trkpt lat="46.08426" lon="5.39906">
        <ele>272</ele>
        <time>2019-04-18T23:15:49Z</time>
      </trkpt>
      <trkpt lat="46.08413" lon="5.40014">
        <ele>269</ele>
        <time>2019-04-18T23:16:49Z</time>
      </trkpt>
      <trkpt lat="46.08406" lon="5.40059">
        <ele>266</ele>
        <time>2019-04-18T23:17:49Z</time>
      </trkpt>
      <trkpt lat="46.0827" lon="5.40677">
        <ele>267</ele>
        <time>2019-04-18T23:18:49Z</time>
      </trkpt>
      <trkpt lat="46.08444" lon="5.40703">
        <ele>258</ele>
        <time>2019-04-18T23:19:49Z</time>
      </trkpt>
      <trkpt lat="46.08471" lon="5.40704">
        <ele>259</ele>
        <time>2019-04-18T23:20:49Z</time>
      </trkpt>
      <trkpt lat="46.0848" lon="5.407">
        <ele>259</ele>
        <time>2019-04-18T23:21:49Z</time>
      </trkpt>
      <trkpt lat="46.08484" lon="5.40659">
        <ele>258</ele>
        <time>2019-04-18T23:22:49Z</time>
      </trkpt>
      <trkpt lat="46.08487" lon="5.40648">
        <ele>258</ele>
        <time>2019-04-18T23:23:49Z</time>
      </trkpt>
      <trkpt lat="46.08496" lon="5.40639">
        <ele>258</ele>
        <time>2019-04-18T23:24:49Z</time>
      </trkpt>
      <trkpt lat="46.08542" lon="5.40633">
        <ele>260</ele>
        <time>2019-04-18T23:25:49Z</time>
      </trkpt>
      <trkpt lat="46.08645" lon="5.40641">
        <ele>263</ele>
        <time>2019-04-18T23:26:49Z</time>
      </trkpt>
      <trkpt lat="46.08651" lon="5.40644">
        <ele>263</ele>
        <time>2019-04-18T23:27:49Z</time>
      </trkpt>
      <trkpt lat="46.08656" lon="5.40662">
        <ele>264</ele>
        <time>2019-04-18T23:28:49Z</time>
      </trkpt>
      <trkpt lat="46.08662" lon="5.40673">
        <ele>264</ele>
        <time>2019-04-18T23:29:49Z</time>
      </trkpt>
      <trkpt lat="46.08725" lon="5.40695">
        <ele>263</ele>
        <time>2019-04-18T23:30:49Z</time>
      </trkpt>
      <trkpt lat="46.08754" lon="5.40705">
        <ele>263</ele>
        <time>2019-04-18T23:31:49Z</time>
      </trkpt>
      <trkpt lat="46.08853" lon="5.40719">
        <ele>263</ele>
        <time>2019-04-18T23:32:49Z</time>
      </trkpt>
      <trkpt lat="46.08882" lon="5.40721">
        <ele>264</ele>
        <time>2019-04-18T23:33:49Z</time>
      </trkpt>
      <trkpt lat="46.08902" lon="5.40709">
        <ele>263</ele>
        <time>2019-04-18T23:34:49Z</time>
      </trkpt>
      <trkpt lat="46.08959" lon="5.40468">
        <ele>257</ele>
        <time>2019-04-18T23:35:49Z</time>
      </trkpt>
    </trkseg>
  </trk>
</gpx>